[[{"header":{"parameterUnit":"m.s-1","parameterCategory":1,"la1":30.6,"la2":29.2853,"lo1":-89.7004,"lo2":-87.6739,"dy":0.0162,"dx":0.0183,"nx":112,"ny":82,"refTime":"2023-09-20T18:00:00:Z","depth":0,"parameterNumber":2,"parameterNumberName":"U-component_of_WINDS"},"data":[0.0,0.0,0.0,0.0,0.0,0.0,0.0,0.0,0.0,0.0,0.0,0.0,0.0,0.0,0.0,0.0,0.0,0.0,0.0,0.0,0.0,0.0,0.0,0.0,0.0,0.0,0.0,0.0,0.0,0.0,0.0,0.0,0.0,0.0,0.0,0.0,0.0,0.0,0.0,0.0,0.0,0.0,0.0,0.0,0.0,0.0,0.0,0.0,0.0,0.0,0.0,0.0,0.0,0.0,0.0,0.0,0.0,0.0,0.0,0.0,0.0,0.0,0.0,0.0,0.0,0.0,0.0,0.0,0.0,0.0,0.0,0.0,0.0,0.0,0.0,0.0,0.0,0.0,0.0,0.0,0.0,0.0,0.0,0.0,0.0,0.0,0.0,0.0,0.0,0.0,-2.5062,-2.4497,-2.4365,-2.4348,-2.4348,-2.4332,-2.4398,-2.4447,0.0,0.0,0.0,0.0,0.0,0.0,0.0,0.0,0.0,0.0,0.0,0.0,0.0,0.0,0.0,0.0,0.0,0.0,0.0,0.0,0.0,0.0,0.0,0.0,0.0,0.0,0.0,0.0,0.0,0.0,0.0,0.0,0.0,0.0,0.0,0.0,0.0,0.0,0.0,0.0,0.0,0.0,0.0,0.0,0.0,0.0,0.0,0.0,0.0,0.0,0.0,0.0,0.0,0.0,0.0,0.0,0.0,0.0,0.0,0.0,0.0,0.0,0.0,0.0,0.0,0.0,0.0,0.0,0.0,0.0,0.0,0.0,0.0,0.0,0.0,0.0,0.0,0.0,0.0,0.0,0.0,0.0,0.0,0.0,0.0,0.0,0.0,0.0,0.0,0.0,0.0,0.0,0.0,0.0,0.0,0.0,0.0,0.0,0.0,0.0,0.0,0.0,0.0,0.0,-2.6114,-2.5907,-2.5872,-2.5889,-2.5889,-2.5909,-2.5997,-2.6049,0.0,0.0,0.0,0.0,0.0,0.0,0.0,0.0,0.0,0.0,0.0,0.0,0.0,0.0,0.0,0.0,0.0,0.0,0.0,0.0,0.0,0.0,0.0,0.0,0.0,0.0,0.0,0.0,0.0,0.0,0.0,0.0,0.0,0.0,0.0,0.0,0.0,0.0,0.0,0.0,0.0,0.0,0.0,0.0,0.0,0.0,0.0,0.0,0.0,0.0,0.0,0.0,0.0,0.0,0.0,0.0,0.0,0.0,0.0,0.0,0.0,0.0,0.0,0.0,0.0,0.0,0.0,0.0,0.0,0.0,0.0,0.0,0.0,0.0,0.0,0.0,0.0,0.0,0.0,0.0,0.0,0.0,0.0,0.0,0.0,0.0,0.0,0.0,0.0,0.0,0.0,0.0,0.0,0.0,0.0,0.0,0.0,0.0,0.0,0.0,0.0,0.0,0.0,-2.6337,-2.6452,-2.6277,-2.6241,-2.6293,-2.6362,-2.6434,-2.6521,-2.6624,-2.6226,0.0,0.0,0.0,0.0,0.0,0.0,0.0,0.0,0.0,0.0,0.0,0.0,0.0,0.0,0.0,0.0,0.0,0.0,0.0,0.0,0.0,0.0,0.0,0.0,0.0,0.0,0.0,0.0,0.0,0.0,0.0,0.0,0.0,0.0,0.0,0.0,0.0,0.0,0.0,0.0,0.0,0.0,0.0,0.0,0.0,0.0,0.0,0.0,0.0,0.0,0.0,0.0,0.0,0.0,0.0,0.0,0.0,0.0,0.0,0.0,0.0,0.0,0.0,0.0,0.0,0.0,0.0,0.0,0.0,0.0,0.0,0.0,0.0,0.0,0.0,0.0,0.0,0.0,0.0,0.0,0.0,0.0,0.0,0.0,0.0,0.0,0.0,0.0,0.0,0.0,0.0,0.0,0.0,0.0,0.0,0.0,0.0,0.0,0.0,0.0,0.0,0.0,-2.6725,-2.6589,-2.64,-2.6365,-2.6417,-2.6537,-2.664,-2.6725,-2.6858,-2.721,0.0,0.0,0.0,0.0,0.0,0.0,0.0,0.0,0.0,0.0,0.0,0.0,0.0,0.0,0.0,0.0,0.0,0.0,0.0,0.0,0.0,0.0,0.0,0.0,0.0,0.0,0.0,0.0,0.0,0.0,0.0,0.0,0.0,0.0,0.0,0.0,0.0,0.0,0.0,0.0,0.0,0.0,0.0,0.0,0.0,0.0,0.0,0.0,0.0,0.0,0.0,0.0,0.0,0.0,0.0,0.0,0.0,0.0,0.0,0.0,0.0,0.0,0.0,0.0,0.0,0.0,0.0,0.0,0.0,0.0,0.0,0.0,0.0,0.0,0.0,0.0,0.0,0.0,0.0,0.0,0.0,0.0,0.0,0.0,0.0,0.0,0.0,0.0,0.0,0.0,0.0,0.0,0.0,0.0,0.0,0.0,0.0,0.0,0.0,0.0,0.0,0.0,-2.6956,-2.6758,-2.6691,-2.6623,-2.6606,-2.6674,-2.6859,-2.699,-2.7053,-2.7444,0.0,0.0,0.0,0.0,0.0,0.0,0.0,0.0,0.0,0.0,0.0,0.0,0.0,0.0,0.0,0.0,0.0,0.0,0.0,0.0,0.0,0.0,0.0,0.0,0.0,0.0,0.0,0.0,0.0,0.0,0.0,0.0,0.0,0.0,0.0,0.0,0.0,0.0,0.0,0.0,0.0,0.0,0.0,0.0,0.0,0.0,0.0,0.0,0.0,0.0,0.0,0.0,0.0,0.0,0.0,0.0,0.0,0.0,0.0,0.0,0.0,0.0,0.0,0.0,0.0,0.0,0.0,0.0,0.0,0.0,0.0,0.0,0.0,0.0,0.0,0.0,0.0,0.0,0.0,0.0,0.0,0.0,0.0,0.0,0.0,0.0,0.0,0.0,0.0,0.0,0.0,0.0,0.0,0.0,0.0,0.0,0.0,0.0,0.0,0.0,0.0,0.0,-2.7117,-2.6989,-2.6892,-2.6892,-2.694,-2.7021,-2.7184,-2.7279,-2.7355,0.0,0.0,0.0,0.0,0.0,0.0,0.0,0.0,0.0,0.0,0.0,0.0,0.0,0.0,0.0,0.0,0.0,0.0,0.0,0.0,0.0,0.0,0.0,0.0,0.0,0.0,0.0,0.0,0.0,0.0,0.0,0.0,0.0,0.0,0.0,0.0,0.0,0.0,0.0,0.0,0.0,0.0,0.0,0.0,0.0,0.0,0.0,0.0,0.0,0.0,0.0,0.0,0.0,0.0,0.0,0.0,0.0,0.0,0.0,0.0,0.0,0.0,0.0,0.0,0.0,0.0,0.0,0.0,0.0,0.0,0.0,0.0,0.0,0.0,0.0,0.0,0.0,0.0,0.0,0.0,0.0,0.0,0.0,0.0,0.0,0.0,0.0,0.0,0.0,0.0,0.0,0.0,0.0,0.0,0.0,0.0,0.0,0.0,0.0,0.0,0.0,0.0,-2.7355,-2.7324,-2.7261,-2.7169,-2.7135,-2.7198,-2.7293,-2.7373,-2.7465,-2.7526,0.0,0.0,0.0,0.0,0.0,0.0,0.0,0.0,0.0,0.0,0.0,0.0,0.0,0.0,0.0,0.0,0.0,0.0,0.0,0.0,0.0,0.0,0.0,0.0,0.0,0.0,0.0,0.0,0.0,0.0,0.0,0.0,0.0,0.0,0.0,0.0,0.0,0.0,0.0,0.0,0.0,0.0,0.0,0.0,0.0,0.0,0.0,0.0,0.0,0.0,0.0,0.0,0.0,0.0,0.0,0.0,0.0,0.0,0.0,0.0,0.0,0.0,0.0,0.0,0.0,0.0,0.0,0.0,0.0,0.0,0.0,0.0,0.0,0.0,0.0,0.0,0.0,0.0,0.0,0.0,0.0,0.0,0.0,0.0,0.0,0.0,0.0,0.0,0.0,0.0,0.0,0.0,0.0,0.0,0.0,0.0,0.0,0.0,0.0,0.0,0.0,0.0,-2.7587,-2.7526,-2.7496,-2.7496,-2.7324,-2.7276,-2.7496,-2.7496,-2.7526,0.0,0.0,0.0,0.0,0.0,0.0,0.0,0.0,0.0,0.0,0.0,0.0,0.0,0.0,0.0,0.0,0.0,0.0,0.0,0.0,0.0,0.0,0.0,0.0,0.0,0.0,0.0,0.0,0.0,0.0,0.0,0.0,0.0,0.0,0.0,0.0,0.0,0.0,0.0,0.0,0.0,0.0,0.0,0.0,0.0,0.0,0.0,0.0,0.0,0.0,0.0,0.0,0.0,0.0,0.0,0.0,0.0,0.0,0.0,0.0,0.0,0.0,0.0,0.0,0.0,0.0,0.0,0.0,0.0,0.0,0.0,0.0,0.0,0.0,0.0,0.0,0.0,0.0,0.0,0.0,0.0,0.0,0.0,0.0,0.0,0.0,0.0,0.0,0.0,0.0,0.0,0.0,0.0,0.0,0.0,0.0,0.0,0.0,0.0,0.0,0.0,0.0,0.0,-2.7526,-2.7557,-2.7526,-2.7434,-2.7373,-2.7373,-2.7434,-2.7465,-2.7526,-2.7587,0.0,0.0,0.0,0.0,0.0,0.0,0.0,0.0,0.0,0.0,0.0,0.0,0.0,0.0,0.0,0.0,0.0,0.0,0.0,0.0,0.0,0.0,0.0,0.0,0.0,0.0,0.0,0.0,0.0,0.0,0.0,0.0,0.0,0.0,0.0,0.0,0.0,0.0,0.0,0.0,0.0,0.0,0.0,0.0,0.0,0.0,0.0,0.0,0.0,0.0,0.0,0.0,0.0,0.0,0.0,0.0,0.0,0.0,0.0,0.0,0.0,0.0,0.0,0.0,0.0,0.0,0.0,0.0,0.0,0.0,0.0,0.0,0.0,0.0,0.0,0.0,0.0,0.0,0.0,0.0,0.0,0.0,0.0,0.0,0.0,0.0,0.0,0.0,0.0,0.0,0.0,0.0,0.0,0.0,0.0,0.0,0.0,0.0,0.0,0.0,0.0,0.0,-2.7452,-2.7513,-2.7465,-2.7324,-2.731,-2.7293,-2.7324,-2.7404,-2.7496,-2.7587,0.0,0.0,0.0,0.0,0.0,0.0,0.0,0.0,0.0,0.0,0.0,0.0,0.0,0.0,0.0,0.0,0.0,0.0,0.0,0.0,0.0,0.0,0.0,0.0,0.0,0.0,0.0,0.0,0.0,0.0,0.0,0.0,0.0,0.0,0.0,0.0,0.0,0.0,0.0,0.0,0.0,0.0,0.0,0.0,0.0,0.0,0.0,0.0,0.0,0.0,0.0,0.0,0.0,0.0,0.0,0.0,0.0,0.0,0.0,0.0,0.0,0.0,0.0,0.0,0.0,0.0,0.0,0.0,0.0,0.0,0.0,0.0,0.0,0.0,0.0,0.0,0.0,0.0,0.0,0.0,0.0,0.0,0.0,0.0,0.0,0.0,0.0,0.0,0.0,0.0,0.0,0.0,0.0,0.0,0.0,0.0,0.0,0.0,0.0,0.0,0.0,0.0,-2.7566,-2.7598,-2.75,-2.7405,-2.7308,-2.7276,-2.7356,-2.7486,-2.7612,-2.7766,0.0,0.0,0.0,0.0,0.0,0.0,0.0,0.0,0.0,0.0,0.0,0.0,0.0,0.0,0.0,0.0,0.0,0.0,0.0,0.0,0.0,0.0,0.0,0.0,0.0,0.0,0.0,0.0,0.0,0.0,0.0,0.0,0.0,0.0,0.0,0.0,0.0,0.0,0.0,0.0,0.0,0.0,0.0,0.0,0.0,0.0,0.0,0.0,0.0,0.0,0.0,0.0,0.0,0.0,0.0,0.0,0.0,0.0,0.0,0.0,-2.6809,-2.599,0.0,0.0,0.0,0.0,0.0,0.0,0.0,0.0,0.0,0.0,0.0,0.0,0.0,0.0,0.0,0.0,0.0,0.0,0.0,0.0,0.0,0.0,0.0,0.0,0.0,0.0,0.0,0.0,0.0,0.0,0.0,0.0,0.0,0.0,0.0,0.0,0.0,0.0,0.0,0.0,-2.9055,-2.8972,-2.8836,-2.8697,-2.8556,-2.8467,-2.8539,-2.8698,-2.8905,-2.909,-2.9273,0.0,0.0,0.0,0.0,0.0,0.0,0.0,0.0,0.0,0.0,0.0,0.0,0.0,0.0,0.0,0.0,0.0,0.0,0.0,0.0,0.0,0.0,0.0,0.0,0.0,0.0,0.0,0.0,0.0,0.0,0.0,0.0,0.0,0.0,0.0,0.0,0.0,0.0,0.0,0.0,0.0,0.0,0.0,0.0,0.0,0.0,0.0,0.0,0.0,0.0,0.0,0.0,0.0,0.0,0.0,0.0,0.0,0.0,0.0,-2.8589,-2.7368,0.0,0.0,0.0,0.0,0.0,0.0,0.0,0.0,0.0,0.0,0.0,0.0,0.0,0.0,0.0,0.0,0.0,0.0,0.0,0.0,0.0,0.0,0.0,0.0,0.0,0.0,0.0,0.0,0.0,0.0,0.0,0.0,0.0,0.0,0.0,0.0,0.0,0.0,0.0,0.0,-2.9607,-2.9472,-2.9281,-2.9138,-2.8958,-2.8901,-2.8938,-2.9174,-2.9333,-2.9506,-2.9693,0.0,0.0,0.0,0.0,0.0,0.0,0.0,0.0,0.0,0.0,0.0,0.0,0.0,0.0,0.0,0.0,0.0,0.0,0.0,0.0,0.0,0.0,0.0,0.0,0.0,0.0,0.0,0.0,0.0,0.0,0.0,0.0,0.0,0.0,0.0,0.0,0.0,0.0,0.0,0.0,0.0,0.0,0.0,0.0,0.0,0.0,0.0,0.0,0.0,0.0,0.0,0.0,0.0,-3.1862,-3.2237,-3.2923,-3.2829,-3.2829,-3.2861,-3.0583,-2.9191,-2.8509,-2.8116,0.0,0.0,0.0,0.0,0.0,0.0,0.0,0.0,0.0,0.0,0.0,0.0,0.0,0.0,0.0,0.0,0.0,0.0,0.0,0.0,0.0,0.0,-2.4996,-2.5999,-2.6879,-2.7131,-2.553,0.0,0.0,0.0,0.0,0.0,0.0,0.0,0.0,0.0,0.0,0.0,-3.0108,-2.992,-2.9728,-2.9532,-2.942,-2.9364,-2.9401,-2.9619,-2.978,-2.9868,-3.0058,-3.0092,0.0,0.0,0.0,0.0,0.0,0.0,0.0,0.0,0.0,0.0,0.0,0.0,0.0,0.0,0.0,0.0,0.0,0.0,0.0,0.0,0.0,0.0,0.0,0.0,0.0,0.0,0.0,0.0,0.0,0.0,0.0,0.0,-2.8883,-2.9648,0.0,0.0,0.0,0.0,0.0,0.0,0.0,0.0,0.0,0.0,0.0,0.0,0.0,-3.1339,-3.1155,-3.2277,-3.2804,-3.2773,-3.274,-3.285,-3.3054,-3.3081,-3.3134,-3.3313,-3.29,0.0,-3.0717,-3.0976,0.0,0.0,0.0,0.0,0.0,0.0,0.0,0.0,0.0,0.0,0.0,0.0,0.0,0.0,0.0,0.0,0.0,0.0,0.0,0.0,0.0,0.0,-2.7207,-2.7155,-2.7844,-2.8402,-2.7976,-2.7549,-2.7078,-2.6637,-2.664,-2.7062,0.0,0.0,0.0,0.0,0.0,0.0,-3.169,-3.1509,-3.1288,-3.1175,-3.0925,-3.0808,-3.0968,-3.1045,-3.1121,-3.1325,-3.1453,-3.1543,-3.1526,-3.1581,0.0,0.0,0.0,0.0,0.0,0.0,0.0,0.0,0.0,0.0,0.0,0.0,0.0,0.0,0.0,0.0,0.0,0.0,0.0,0.0,0.0,0.0,0.0,0.0,0.0,0.0,0.0,0.0,0.0,-2.9697,-3.0476,-3.1156,-3.0876,-3.0314,0.0,0.0,0.0,0.0,0.0,0.0,0.0,0.0,0.0,-3.2017,-3.3242,-3.374,-3.3362,-3.4202,-3.4482,-3.4303,-3.4331,-3.4331,-3.4393,-3.4553,-3.4668,-3.4737,-3.484,-3.4311,-3.3351,-3.2651,-3.1668,-3.0504,0.0,0.0,0.0,0.0,-2.8132,-2.807,-2.9832,-3.0716,-3.1096,-3.1515,0.0,0.0,0.0,0.0,0.0,0.0,0.0,-2.8207,-2.8356,-2.9377,-3.0328,-3.0113,-3.0706,-3.1049,-3.0068,-2.9787,-2.9228,-2.7707,-2.7504,-2.7773,-2.8444,-2.9007,0.0,0.0,0.0,-3.1899,-3.2144,-3.2001,-3.1839,-3.1728,-3.1504,-3.1389,-3.1449,-3.1542,-3.1634,-3.1709,-3.1856,-3.1929,-3.1839,-3.1858,-3.181,0.0,0.0,0.0,0.0,0.0,0.0,0.0,0.0,0.0,0.0,0.0,0.0,0.0,0.0,0.0,0.0,0.0,0.0,0.0,0.0,0.0,0.0,0.0,0.0,0.0,0.0,0.0,0.0,-3.0859,-3.1365,-3.2004,-3.2013,-3.1649,0.0,0.0,0.0,0.0,0.0,0.0,-3.2693,-3.369,-3.4178,-3.3988,-3.5056,-3.5488,-3.5081,-3.5626,-3.5783,-3.5543,-3.5543,-3.5588,-3.5588,-3.581,-3.5958,-3.6002,-3.6114,-3.5973,-3.5492,-3.412,-3.3269,-3.2669,-3.1459,-3.0582,-3.0094,-3.0573,-3.0697,-3.0855,-3.2293,-3.3156,-3.3679,-3.4022,-3.4007,-3.3694,-3.3037,0.0,0.0,0.0,0.0,-3.0802,-3.113,-3.2067,-3.2889,-3.2683,-3.3107,-3.3216,-3.2015,-3.1991,-3.1425,-2.8851,-2.8476,-2.8762,-2.9184,-2.9787,0.0,-3.1388,-3.2019,-3.2354,-3.2267,-3.2196,-3.2073,-3.1984,-3.1765,-3.1654,-3.1691,-3.1746,-3.18,-3.1819,-3.2001,-3.2073,-3.1948,-3.193,-3.1948,-3.2037,0.0,0.0,0.0,0.0,0.0,0.0,0.0,0.0,0.0,0.0,0.0,0.0,0.0,0.0,0.0,0.0,0.0,0.0,0.0,0.0,0.0,0.0,0.0,0.0,0.0,0.0,0.0,0.0,0.0,-3.166,-3.1768,0.0,0.0,0.0,0.0,-3.2849,-3.3559,-3.4345,-3.5178,-3.5236,-3.5186,-3.5047,-3.5596,-3.5703,-3.5267,-3.5946,-3.6156,-3.5864,-3.6011,-3.6054,-3.6054,-3.6199,-3.6343,-3.6461,-3.6502,-3.655,-3.6666,-3.5727,-3.4965,-3.4294,-3.3599,-3.3283,-3.3139,-3.3066,-3.303,-3.3256,-3.4705,-3.5357,-3.5654,-3.6369,-3.6264,-3.5574,-3.4111,-3.3616,0.0,0.0,-3.2808,-3.3283,-3.3173,-3.3636,-3.4056,-3.3876,-3.3928,-3.4024,-3.3802,-3.3926,-3.3121,-2.9971,-2.9539,-2.9983,-3.0851,0.0,-3.1405,-3.2213,-3.2371,-3.2406,-3.2388,-3.2267,-3.2179,-3.2179,-3.1929,-3.1819,-3.1858,-3.1819,-3.1819,-3.1894,-3.202,-3.2108,-3.2073,-3.1984,-3.1894,-3.1894,-3.1728,0.0,0.0,0.0,0.0,0.0,0.0,0.0,0.0,0.0,0.0,0.0,0.0,0.0,0.0,0.0,0.0,0.0,0.0,0.0,0.0,0.0,0.0,0.0,0.0,0.0,0.0,0.0,0.0,-3.3184,-3.3669,0.0,-3.363,-3.3928,-3.4246,-3.4533,-3.5319,-3.5892,-3.6213,-3.6698,-3.713,-3.7542,-3.7737,-3.7925,-3.8188,-3.8286,-3.8262,-3.8101,-3.8026,-3.7958,-3.7958,-3.8069,-3.785,-3.7481,-3.7504,-3.7306,-3.6913,-3.6593,-3.6032,-3.5297,-3.5054,-3.4668,-3.4263,-3.4679,-3.4815,-3.4934,-3.5941,-3.6409,-3.658,-3.6925,-3.6693,-3.6167,-3.5545,-3.5118,-3.4757,-3.4405,-3.4817,-3.535,-3.5153,-3.5548,-3.5933,-3.5694,-3.5711,-3.5607,-3.4985,-3.5022,-3.4669,-3.2993,-3.237,-3.2232,-3.2582,-3.2652,-3.2774,-3.3055,-3.3108,-3.295,-3.2458,-3.2354,-3.2319,-3.2319,-3.2161,-3.2073,-3.2091,-3.2161,-3.2214,-3.2232,-3.2353,-3.2387,-3.2319,-3.202,-3.1875,-3.1856,-3.1542,-3.1351,0.0,0.0,0.0,0.0,0.0,0.0,0.0,0.0,0.0,0.0,0.0,0.0,0.0,0.0,0.0,0.0,0.0,0.0,0.0,0.0,0.0,0.0,0.0,0.0,0.0,-3.2757,-3.3709,-3.4383,-3.4952,-3.5273,-3.5273,-3.5626,-3.5839,-3.5839,-3.6876,-3.7503,-3.7538,-3.8294,-3.896,-3.939,-3.9408,-3.9586,-3.9914,-3.9736,-3.9598,-3.9458,-3.9269,-3.9203,-3.9203,-3.9245,-3.8965,-3.8491,-3.8532,-3.8234,-3.7742,-3.7479,-3.7058,-3.6566,-3.6303,-3.5861,-3.5437,-3.5885,-3.6077,-3.6225,-3.6833,-3.7126,-3.7279,-3.7394,-3.722,-3.6881,-3.6845,-3.6558,-3.6197,-3.6128,-3.6469,-3.6792,-3.6593,-3.6852,-3.7087,-3.6834,-3.6811,-3.6649,-3.6063,-3.6038,-3.5997,-3.5472,-3.4544,-3.3843,-3.3879,-3.3898,-3.388,-3.388,-3.3898,-3.374,-3.3231,-3.3125,-3.3125,-3.3125,-3.3001,-3.2929,-3.2929,-3.3108,-3.3213,-3.3213,-3.3155,-3.3046,-3.2878,-3.2301,-3.1948,-3.18,-3.1389,-3.1173,-3.1151,0.0,0.0,0.0,0.0,0.0,0.0,0.0,0.0,0.0,0.0,0.0,0.0,0.0,0.0,0.0,0.0,0.0,0.0,0.0,0.0,0.0,0.0,0.0,-3.3462,-3.3916,-3.4518,-3.5168,-3.5361,-3.5482,-3.5518,-3.6267,-3.6784,-3.682,-3.8258,-3.9158,-3.9229,-3.9969,-4.0402,-4.042,-4.042,-4.0364,-4.0195,-4.0098,-4.0021,-3.9904,-3.9749,-3.9691,-3.9691,-3.9605,-3.9541,-3.9523,-3.9381,-3.934,-3.9252,-3.8462,-3.8146,-3.8058,-3.7286,-3.6908,-3.6829,-3.6829,-3.6908,-3.7066,-3.7466,-3.7649,-3.7739,-3.7864,-3.7899,-3.7899,-3.7899,-3.7899,-3.7899,-3.7757,-3.7703,-3.7667,-3.7466,-3.7411,-3.7337,-3.7185,-3.7108,-3.7108,-3.7009,-3.7044,-3.7062,-3.7023,-3.5829,-3.4828,-3.4811,-3.4811,-3.4828,-3.483,-3.4812,0.0,-3.476,-3.4596,-3.4504,-3.4504,-3.4446,-3.4425,-3.4425,-3.4672,-3.4836,-3.4836,-3.4406,-3.4064,-3.3844,-3.2827,-3.2161,-3.1869,-3.1359,-3.1083,-3.1083,0.0,0.0,0.0,0.0,0.0,0.0,0.0,0.0,0.0,0.0,0.0,0.0,0.0,0.0,0.0,0.0,0.0,0.0,0.0,0.0,0.0,-3.4439,-3.5089,-3.4268,-3.5083,-3.5915,-3.6182,-3.6736,-3.7345,-3.8025,-3.833,-3.8742,-3.9337,-3.9842,-4.0131,-4.0148,-4.0366,-4.0745,-4.1343,-4.1361,-4.1595,-4.2118,-4.1962,-4.1884,-4.1845,-4.1546,-4.1404,-4.1422,-4.123,-4.0845,-4.0299,-4.019,-3.9831,-3.9287,-3.9076,-3.8989,-3.8848,-3.7514,-3.6987,-3.693,-3.7009,-3.7185,-3.7466,-3.7739,-3.7863,-3.7949,-3.8072,-3.8124,-3.8124,-3.8124,-3.8124,-3.8106,-3.7967,-3.7915,-3.788,-3.7775,-3.7685,-3.7595,-3.7503,-3.7392,-3.7261,-3.7108,-3.7527,-3.7893,-3.7812,-3.7935,-3.7888,-3.7386,-3.7774,-3.8047,-3.7583,-3.7013,-3.641,-3.5935,-3.5278,-3.4816,-3.4726,-3.478,-3.4852,-3.4852,-3.5101,-3.5238,-3.5287,-3.5259,-3.5119,-3.4831,-3.4253,-3.3748,-3.3326,-3.3247,-3.3287,0.0,0.0,0.0,0.0,0.0,0.0,0.0,0.0,0.0,0.0,0.0,0.0,0.0,0.0,0.0,0.0,0.0,0.0,0.0,0.0,0.0,0.0,-3.6039,-3.696,-3.653,-3.709,-3.756,-3.7649,-3.8349,-3.9049,-3.9608,-3.9698,-3.995,-4.042,-4.08,-4.1017,-4.1017,-4.1325,-4.1723,-4.2194,-4.2212,-4.2429,-4.2882,-4.2765,-4.2688,-4.2688,-4.2409,-4.2264,-4.2264,-4.2037,-4.1662,-4.117,-4.1085,-4.0735,-4.0253,-3.9961,-3.9821,-3.9698,0.0,0.0,0.0,0.0,-3.7485,-3.7792,-3.7985,-3.8088,-3.8156,-3.8207,-3.8207,-3.8192,-3.8192,-3.8192,-3.8174,-3.8036,-3.7984,-3.7984,-3.7933,-3.7898,-3.781,-3.7792,-3.7918,-3.8003,-3.7798,-3.8376,-3.8863,-3.8742,-3.9376,0.0,-3.9509,-3.9487,-3.9456,-3.9195,-3.8768,-3.8305,-3.7952,-3.7396,-3.7001,-3.6927,-3.6982,-3.7019,-3.7038,-3.7327,0.0,0.0,0.0,-3.694,-3.6114,-3.577,0.0,0.0,0.0,-3.5096,-3.4941,-3.5238,0.0,0.0,-3.3023,-3.2717,0.0,0.0,0.0,0.0,0.0,0.0,0.0,0.0,0.0,0.0,0.0,0.0,0.0,0.0,0.0,0.0,-3.7485,-3.8976,-3.9402,-3.9445,-3.9355,-3.9283,-3.9932,-4.042,-4.0546,-4.0583,-4.0691,-4.0763,-4.1452,-4.185,-4.185,-4.2502,0.0,0.0,0.0,-4.3027,-4.3027,-4.3077,-4.3054,-4.3054,-4.2875,-4.2718,-4.2629,-4.2388,-4.2168,-4.2005,-4.1841,-4.1736,-4.1552,-4.0979,-4.074,-4.0651,-3.9722,-3.8907,-3.8285,-3.7982,-3.799,-3.8197,-3.8383,0.0,0.0,-3.8307,-3.8241,-3.8225,-3.8192,-3.8192,-3.8174,-3.8036,-3.8018,-3.8018,-3.8018,-3.809,-3.8178,-3.8178,-3.8705,-3.9139,-3.8938,-3.9468,-3.9917,-3.9734,-4.0353,-4.1008,-4.1131,-4.0486,-3.9988,-4.0224,-4.0267,-4.0306,-4.0326,-4.0143,-3.9976,-3.9896,-3.9896,0.0,-3.9958,-4.0274,-4.0474,-4.0563,-3.9944,-3.9029,-3.7696,-3.7373,-3.7154,-3.6951,-3.7056,-3.6847,-3.6482,-3.6647,-3.6774,-3.6809,-3.5526,-3.4865,0.0,0.0,0.0,0.0,0.0,0.0,0.0,0.0,0.0,0.0,0.0,0.0,0.0,0.0,0.0,-3.8335,-3.9756,-4.073,-4.0617,-4.1032,-4.1053,-4.0239,-4.0293,-4.0673,-4.1397,-4.1451,-4.1741,-4.2375,-4.2574,-4.2665,-4.2665,-4.281,-4.2882,-4.2882,-4.3516,-4.386,-4.386,-4.4469,-4.4732,-4.4732,-4.4592,0.0,-4.3363,-4.3275,-4.2786,-4.2005,-4.1841,-4.1736,-4.1587,-4.1578,-4.1679,-4.1647,-4.0147,-3.9509,-3.9487,-3.9638,-3.941,-3.9079,-3.9267,-3.8915,-3.8368,-3.834,-3.8307,-3.8274,-3.8225,-3.8192,0.0,-3.8036,-3.8088,-3.8174,-3.8086,-3.8673,-3.9298,-3.9298,-3.9883,-4.0397,-4.0185,-4.067,-4.1035,-4.0838,-4.1339,-4.1914,-4.2101,-4.1958,-4.197,-4.2356,-4.1923,-4.1578,-4.1684,-4.1015,-4.0509,-4.0384,-4.0402,-4.042,-4.0402,-4.0598,-4.0755,-4.0912,-4.054,-4.0113,-3.9659,-3.9355,-3.9217,-3.9177,-3.9238,-3.9284,-3.9312,-3.9516,-3.9589,-3.948,-3.7274,-3.6398,0.0,0.0,0.0,0.0,0.0,0.0,0.0,0.0,0.0,0.0,0.0,-3.5514,0.0,0.0,-3.9183,-3.9741,-4.1,-4.1807,-4.1544,-4.2067,-4.2123,-4.1161,-4.1396,-4.1831,-4.2266,-4.2303,-4.2466,-4.2864,-4.2882,-4.2882,-4.2882,-4.2882,-4.3063,-4.348,-4.3878,-4.4277,-4.4693,-4.5088,-4.5247,-4.5247,-4.5124,-4.4628,-4.3696,-4.3614,-4.2995,-4.2005,-4.1945,-4.1797,-4.1604,-4.1909,-4.2163,-4.2279,-4.1536,-4.0999,-4.0584,-4.0418,-4.0238,-4.0086,-4.0273,-4.0068,-3.9688,-3.9589,-3.9522,-3.9488,-3.9385,-3.9351,-3.9278,-3.8828,-3.9009,-3.9277,-3.8928,-3.9534,-4.0302,-4.0432,-4.1089,-4.1625,-4.1492,-4.1904,-4.2247,-4.192,-4.2181,-4.245,-4.2494,-4.2691,-4.2864,-4.3124,-4.2938,-4.2787,-4.2837,-4.2404,-4.2044,-4.1903,-4.1886,-4.1905,-4.1976,-4.2063,-4.2184,-4.2187,-4.1976,-4.176,-4.1576,-4.1328,-4.121,-4.121,-4.1153,-4.1053,-4.0829,-4.0979,-4.0854,-4.0474,-3.9262,-3.8545,0.0,0.0,0.0,0.0,0.0,0.0,0.0,0.0,-3.4832,-3.633,-3.6766,-3.7312,-3.872,-3.9698,-4.0453,-4.0878,-4.1983,-4.2654,-4.2386,-4.2777,-4.2813,-4.2031,-4.2502,-4.2882,-4.2882,-4.2882,-4.2882,-4.2882,-4.2882,-4.2882,-4.2882,-4.3045,-4.3425,-4.4077,-4.4403,-4.4874,-4.5526,-4.5689,-4.5761,-4.578,-4.5717,-4.5178,-4.4263,-4.3983,-4.3292,-4.226,-4.2101,-4.1927,-4.1805,-4.2187,-4.2512,-4.2709,-4.2882,-4.2464,-4.1701,-4.1198,-4.105,-4.1097,-4.1266,-4.1192,-4.0979,-4.086,-4.0792,-4.0688,-4.0599,-4.051,-4.0383,-3.9786,-4.0039,-4.04,-3.9938,-4.0492,-4.1244,-4.1501,-4.2192,-4.2765,-4.2751,-4.3051,-4.3232,-4.2824,-4.2765,-4.2765,-4.2688,-4.2975,-4.325,-4.3338,-4.3529,-4.3664,-4.3697,-4.3615,-4.3513,-4.3426,-4.3339,-4.3322,-4.3411,-4.3463,-4.3463,-4.3411,-4.3305,-4.3178,-4.3013,-4.2824,-4.2727,-4.2727,-4.2631,-4.2345,-4.1922,-4.1977,-4.176,-4.1247,-4.1134,-4.0504,-3.5631,-3.626,-3.6912,-3.6972,-3.6933,-3.6892,0.0,0.0,-3.7149,-3.8077,-3.881,-3.9599,-4.047,-4.1825,-4.2744,-4.2648,-4.3268,-4.3619,-4.321,-4.3178,-4.3087,-4.2811,-4.2846,-4.2882,-4.2882,-4.2882,-4.2882,-4.2882,-4.2882,-4.2882,-4.2882,-4.357,-4.4005,-4.4095,-4.549,-4.6269,-4.6359,-4.7083,-4.7446,-4.7446,-4.7404,-4.6904,-4.5899,-4.518,-4.4217,-4.3116,-4.2423,-4.2169,-4.2356,-4.2555,-4.2844,-4.3142,-4.316,-4.3123,-4.3086,-4.2941,-4.2539,-4.2077,-4.2142,-4.1699,-4.1079,-4.0979,-4.0894,-4.0773,-4.0722,-4.0599,-4.0492,-4.0401,-4.0456,-4.0527,-4.063,-4.14,-4.2187,-4.2464,-4.32,-4.3856,-4.3899,-4.3721,-4.3511,-4.3267,-4.3032,-4.29,-4.303,-4.316,-4.3338,-4.3545,-4.3749,-4.3897,-4.3942,-4.3897,-4.3851,-4.3753,-4.3634,-4.3548,-4.3497,-4.3497,-4.3497,-4.3497,-4.3411,-4.3359,-4.334,-4.3214,-4.3123,-4.3123,-4.3123,-4.3105,-4.3104,-4.3104,-4.3138,-4.3169,-4.247,-4.1531,-3.7159,-3.7957,0.0,0.0,-3.789,-3.789,-3.789,-3.8263,-3.8884,-3.9669,-4.0478,-4.128,-4.2085,-4.2706,-4.3164,0.0,-4.3624,-4.3597,-4.3304,-4.3178,-4.3068,-4.2938,-4.2882,-4.2882,-4.2882,-4.2882,-4.2882,-4.2882,-4.2882,-4.3099,-4.357,-4.3914,-4.453,-4.5472,-4.616,-4.6721,-4.7192,-4.7536,-4.7717,-4.7717,-4.7717,-4.7199,-4.6236,-4.5888,-4.4874,-4.3369,-4.2608,-4.2396,-4.2595,-4.2882,-4.3142,-4.3393,-4.3497,-4.3532,-4.3461,-4.3358,-4.3139,-4.2935,-4.2968,-4.2782,-4.2506,-4.2422,-4.2353,-4.23,-4.2176,-4.2069,-4.1923,-4.1434,-4.1597,-4.1832,-4.1593,-4.2223,-4.3085,-4.336,-4.3825,-4.4207,-4.4248,-4.4079,-4.3809,-4.3511,-4.3356,-4.3232,-4.3232,-4.3356,-4.3545,-4.3749,-4.3878,-4.3974,-4.4005,-4.3961,-4.3832,-4.3701,-4.36,-4.3513,-4.3479,-4.3497,-4.3497,-4.3497,-4.3463,-4.3481,-4.3481,-4.3393,-4.341,-4.3426,-4.3426,-4.3461,-4.3545,-4.3646,-4.373,-4.3763,-4.3521,-4.3138,-3.8432,0.0,0.0,-3.9089,-3.8995,-3.9051,-3.9276,-3.9802,-4.0347,-4.0722,-4.1454,-4.2104,-4.2408,-4.2735,-4.3103,-4.3421,-4.3535,-4.3461,-4.3214,-4.3123,-4.3049,-4.2938,-4.2882,-4.2882,-4.2882,-4.2882,-4.2882,-4.2882,-4.3099,-4.348,-4.4059,-4.4512,-4.5291,-4.6468,-4.6721,-4.712,-4.7699,-4.7717,-4.7717,-4.7717,-4.7717,-4.7307,-4.6627,-4.632,-4.5347,-4.3877,-4.318,-4.3018,-4.3192,-4.3269,-4.3444,-4.3634,-4.3753,-4.3753,-4.3634,-4.3497,-4.3446,-4.3446,-4.3497,-4.3497,-4.3497,-4.3446,-4.3411,-4.3411,-4.3322,-4.3214,-4.3032,-4.2414,-4.2577,-4.2848,-4.2449,-4.29,-4.3582,-4.391,-4.4147,-4.4314,-4.443,-4.4277,-4.4079,-4.3763,-4.3631,-4.3513,-4.3408,-4.3529,-4.3716,-4.3865,-4.3961,-4.4005,-4.4005,-4.3961,-4.3832,-4.3667,-4.36,-4.3513,-4.3497,-4.3497,-4.3497,-4.3497,-4.3532,-4.3548,-4.3566,-4.3615,-4.3664,-4.3744,-4.3758,-4.3823,-4.3855,-4.403,-4.4109,-4.4128,-4.4229,-4.4288,-3.9314,0.0,-3.9765,-4.0534,-4.0722,-4.0929,-4.1691,-4.1897,-4.1717,-4.0966,-4.1454,-4.1721,-4.0838,-4.1913,-4.2797,-4.2502,-4.3033,-4.3393,-4.3141,-4.3104,-4.3049,-4.2938,-4.2882,-4.2882,0.0,-4.2882,-4.2882,-4.2882,-4.3607,-4.4059,-4.4095,-4.558,-4.645,-4.6504,-4.7265,-4.7681,-4.7717,-4.7717,-4.7717,-4.7717,-4.7717,-4.7597,-4.7439,-4.6572,-4.572,-4.4916,-4.4367,-4.4271,-4.4382,-4.3823,-4.3716,-4.3865,-4.3818,-4.3804,-4.3771,-4.3634,-4.3548,-4.3497,-4.3497,-4.3497,-4.3497,-4.3497,-4.3497,-4.3497,-4.3479,-4.3391,-4.3286,-4.3178,-4.3142,-4.3086,-4.3142,-4.3321,-4.3582,-4.391,-4.4147,-4.4344,-4.4458,-4.4401,-4.4237,-4.4036,-4.3828,-4.3679,-4.3579,-4.3701,-4.3837,-4.3883,-4.3961,-4.4005,-4.4005,-4.3961,-4.3883,-4.3804,-4.3667,-4.3548,-4.3532,-4.3497,-4.3497,-4.3497,-4.3548,-4.3667,-4.3804,-4.3929,-4.4036,-4.4091,-4.4221,-4.426,-4.4289,-4.4346,-4.4439,-4.4487,-4.4487,-4.4524,-3.9858,0.0,-4.0591,-4.1417,-4.1605,-4.168,-4.1935,-4.1991,-4.1916,-4.1661,-4.1804,-4.1844,-4.1418,-4.1715,-4.2075,-4.2158,-4.237,-4.2595,-4.2903,-4.2956,-4.2938,-4.29,-4.3371,0.0,0.0,0.0,0.0,-4.3697,-4.444,-4.5128,-4.5653,-4.6214,-4.6739,-4.7283,-4.7572,-4.7717,-4.7717,-4.7717,-4.7717,-4.7717,-4.7717,-4.7615,-4.7475,-4.6741,-4.6236,-4.597,-4.549,-4.5004,-4.4618,-4.4586,-4.4313,-4.3897,-4.3929,-4.3915,-4.3851,-4.3753,-4.3667,-4.3548,-4.3532,-4.3497,-4.3497,-4.3497,-4.3513,-4.3548,-4.3548,-4.3529,-4.3495,-4.341,-4.3286,-4.3178,-4.3305,-4.3428,-4.3582,-4.391,-4.4147,-4.4344,-4.4487,-4.443,-4.4325,-4.4207,-4.4048,-4.3968,-4.3936,-4.3955,-4.4005,-4.4073,-4.4055,-4.4005,-4.4005,-4.3961,-4.3897,-4.3883,-4.3701,-4.3582,-4.3548,-4.3532,-4.3513,-4.3548,-4.3667,-4.3767,-4.3929,-4.4079,-4.4229,-4.4421,-4.4513,-4.4621,-4.47,-4.4777,-4.4802,-4.4821,-4.487,-4.487,-4.029,-4.1004,-4.1436,-4.2262,-4.2468,-4.2468,-4.2468,-4.2468,-4.2299,-4.1698,-4.1342,-4.0982,-4.0476,-4.057,-4.0811,-4.1177,-4.1663,-4.2213,-4.2811,-4.2882,-4.2991,-4.3281,-4.3788,-4.4204,0.0,0.0,0.0,-4.4548,-4.5273,-4.5943,-4.6468,-4.6776,-4.7174,-4.7681,-4.7717,-4.7717,-4.7717,-4.7717,-4.7717,-4.7759,-4.7783,-4.7723,-4.7603,-4.722,-4.7044,-4.6989,-4.6521,-4.6067,-4.5624,-4.5293,-4.4856,-4.4387,-4.4085,-4.3942,-4.3897,-4.3818,-4.3719,-4.3582,-4.3513,-4.3497,-4.3497,-4.3497,-4.3566,-4.3667,-4.3701,-4.3716,-4.373,-4.3682,-4.3513,-4.3375,-4.3463,-4.3479,-4.3597,-4.3942,-4.4147,-4.4344,-4.4487,-4.4487,-4.443,-4.4344,-4.4266,-4.4199,-4.4188,-4.4188,-4.4207,-4.4244,-4.4135,-4.4036,-4.4005,-4.3942,-4.3929,-4.3897,-4.3767,-4.3667,-4.3615,-4.3548,-4.3582,-4.3682,-4.3832,-4.3992,-4.4218,-4.4327,-4.4513,-4.4738,-4.4821,-4.4895,-4.4967,-4.5061,-4.5084,-4.5061,-4.5148,-4.5148,-4.0628,-4.1454,-4.228,-4.3144,-4.3332,-4.3294,-4.3294,-4.3219,-4.2712,-4.106,-4.0084,-3.9208,0.0,0.0,-3.9153,-3.9585,-4.0933,-4.214,-4.2757,-4.2864,-4.319,0.0,0.0,0.0,0.0,0.0,0.0,-4.549,-4.6142,-4.6558,-4.6558,-4.7301,-4.7717,-4.7717,-4.7717,-4.7717,-4.7717,-4.7717,-4.7759,-4.792,-4.797,-4.7951,-4.7834,-4.7951,-4.8032,-4.7995,-4.7573,-4.7389,-4.7311,-4.5982,-4.5361,-4.5212,-4.4395,-4.3979,-4.3915,-4.3837,-4.3719,-4.3582,-4.3513,-4.3479,-4.3497,-4.3497,-4.3634,-4.3804,-4.3883,-4.3961,-4.4005,-4.4005,-4.3828,-4.3612,-4.3612,-4.3631,-4.3697,-4.3942,-4.4177,-4.4344,-4.4487,-4.4515,-4.4487,-4.4411,-4.4411,-4.4383,-4.4314,-4.4314,-4.4314,-4.4314,-4.4244,-4.4165,-4.4036,-4.4005,-4.3974,-4.3897,-4.3869,-4.3753,-4.3615,-4.3615,-4.3716,-4.3897,-4.4048,-4.4288,-4.4605,-4.4764,-4.487,-4.5014,-4.5148,-4.5192,-4.5125,-4.5235,-4.5297,-4.5213,-4.5297,-4.5317,-4.1323,-4.2318,-4.3163,-4.3989,-4.3745,-4.3294,-4.3294,-4.2337,-4.1154,-4.0103,-3.922,-3.8327,0.0,0.0,0.0,-3.8742,-4.0093,0.0,-4.1904,-4.252,0.0,-4.3987,0.0,-4.5309,-4.6124,-4.692,0.0,0.0,-4.7283,-4.7391,-4.7391,-4.7591,-4.7717,-4.7717,-4.7717,-4.7717,-4.7717,-4.7819,-4.7925,-4.8126,-4.8148,-4.8169,-4.8172,-4.8229,-4.8286,-4.8363,-4.8292,-4.7995,-4.7511,-4.7222,-4.6382,-4.5268,-4.5045,-4.4581,-4.3974,-4.3897,-4.3818,-4.3719,-4.3634,-4.3548,-4.3497,-4.3497,-4.3566,-4.3667,-4.3832,-4.3974,-4.406,-4.4121,-4.4048,-4.3892,-4.3892,-4.3846,-4.3878,-4.4091,-4.4258,-4.4411,-4.4551,-4.4542,-4.4487,-4.4487,-4.4468,-4.4487,-4.4458,-4.4458,-4.443,-4.4383,-4.4373,-4.4314,-4.4165,-4.4055,-4.4005,-4.3974,-4.3897,-4.3865,-4.391,-4.391,-4.3986,-4.421,-4.4374,-4.4613,-4.487,-4.4967,-4.5106,-4.5301,-4.5339,-4.5399,-4.5457,-4.5477,-4.5477,-4.5495,-4.5512,-4.551,-4.1755,-4.29,-4.3951,-4.4402,-4.3895,-4.32,-4.2825,-4.1454,-4.0027,-3.9201,-3.8075,0.0,-3.6435,-3.6589,0.0,0.0,0.0,0.0,-4.1506,-4.2103,-4.2936,0.0,-4.5037,0.0,-4.692,-4.7446,-4.7717,0.0,-4.7717,-4.7717,-4.7717,-4.7717,-4.7717,-4.7717,-4.7717,-4.7741,-4.7806,-4.8046,-4.8226,-4.8363,-4.8476,-4.855,-4.8569,-4.8569,-4.8605,-4.8679,-4.8714,-4.8509,-4.8153,-4.7816,-4.7163,-4.6271,-4.5565,-4.4989,-4.4525,-4.4077,-4.3851,-4.3771,-4.3634,-4.3548,-4.3497,-4.3497,-4.36,-4.3701,-4.3897,-4.4067,-4.4258,-4.4383,-4.4317,-4.4218,-4.4248,-4.4158,-4.4079,-4.4269,-4.4393,-4.4468,-4.4605,-4.4578,-4.4542,-4.4515,-4.4515,-4.4515,-4.4515,-4.4524,-4.4524,-4.4496,-4.4496,-4.444,-4.4362,-4.4207,-4.4116,-4.4085,-4.4067,-4.4048,-4.406,-4.4151,-4.425,-4.4438,-4.4655,-4.4895,-4.5154,-4.5258,-4.5341,-4.5475,-4.5513,-4.5568,-4.5635,-4.5651,-4.5648,-4.5684,-4.5708,-4.5737,-4.1991,-4.3238,-4.4477,-4.4383,-4.3726,-4.2881,-4.1905,-4.0516,-3.9145,-3.8188,0.0,-3.5837,-3.5591,-3.5535,-3.5925,-3.7055,0.0,-3.9249,-4.1252,-4.1651,-4.2611,-4.5019,-4.5291,-4.5924,-4.7554,-4.7717,-4.7717,-4.7717,-4.7717,-4.7717,-4.7717,-4.7717,-4.7717,-4.7717,-4.7717,-4.7824,-4.8072,-4.8343,-4.855,-4.866,-4.882,-4.8925,-4.8943,-4.8943,-4.8943,-4.8943,-4.8943,-4.8943,-4.8853,-4.8147,-4.7794,-4.7553,-4.6048,-4.5379,-4.5194,-4.4244,-4.3883,-4.3804,-4.3667,-4.36,-4.3513,-4.3479,-4.36,-4.3786,-4.3942,-4.4188,-4.4421,-4.464,-4.4632,-4.4524,-4.4605,-4.443,-4.4298,-4.4477,-4.4524,-4.4551,-4.4685,-4.4659,-4.4578,-4.4515,-4.4515,-4.4515,-4.4515,-4.457,-4.4605,-4.4605,-4.4632,-4.4605,-4.4542,-4.4401,-4.4285,-4.4244,-4.4248,-4.4269,-4.4298,-4.4402,-4.4546,-4.4751,-4.4953,-4.5175,-4.5438,-4.5494,-4.5565,-4.5645,-4.5696,-4.5727,-4.5742,-4.58,-4.5827,-4.5841,-4.5905,-4.5929,-4.1991,-4.3238,-4.4346,-4.367,-4.2862,-4.1849,-4.0347,-3.9239,0.0,0.0,-3.6085,-3.5649,-3.4851,-3.5615,-3.6414,-3.6481,0.0,0.0,0.0,0.0,-4.2611,0.0,0.0,0.0,0.0,-4.7717,0.0,0.0,-4.7861,-4.7819,-4.7717,-4.7717,-4.7759,-4.7861,-4.7861,-4.8046,-4.8419,-4.8457,-4.8624,-4.894,-4.8993,-4.9027,-4.9146,-4.9146,-4.9146,-4.9146,-4.9146,-4.9131,-4.9049,-4.89,-4.8401,-4.7608,-4.6661,-4.5881,-4.5194,-4.4321,-4.3961,-4.3883,-4.3786,-4.3686,-4.3582,-4.3532,-4.3513,-4.36,-4.391,-4.4109,-4.4298,-4.4693,-4.4738,-4.4685,-4.4764,-4.464,-4.456,-4.464,-4.4659,-4.4685,-4.4764,-4.4685,-4.4578,-4.4515,-4.4515,-4.4515,-4.4515,-4.457,-4.4632,-4.4685,-4.4738,-4.4738,-4.4685,-4.4496,-4.4383,-4.4373,-4.4411,-4.4524,-4.4693,-4.4802,-4.4953,-4.5096,-4.5262,-4.5438,-4.5632,-4.5661,-4.5752,-4.5925,-4.588,-4.5886,-4.5953,-4.596,-4.596,-4.5975,-4.6026,-4.6075,-4.1379,-4.228,-4.3125,-4.2731,-4.1999,-4.106,-3.9858,0.0,0.0,0.0,-3.554,-3.5068,-3.4592,0.0,0.0,0.0,0.0,0.0,0.0,0.0,0.0,0.0,0.0,0.0,0.0,-4.7801,-4.7884,-4.8046,-4.8046,-4.8006,-4.7847,-4.7847,-4.7907,-4.8046,-4.8166,-4.8361,-4.8642,-4.8768,-4.8978,-4.916,-4.9211,-4.9295,-4.9345,-4.9345,-4.9345,-4.9345,-4.9276,-4.9211,-4.9197,-4.9135,-4.8826,-4.8345,-4.7493,-4.6624,-4.5825,-4.4989,-4.4332,-4.3915,-4.3851,-4.3786,-4.3719,-4.3686,-4.3652,-4.3701,-4.3942,-4.4188,-4.4449,-4.477,-4.4846,-4.487,-4.4967,-4.4895,-4.484,-4.4895,-4.487,-4.4865,-4.4815,-4.4719,-4.4632,-4.457,-4.4524,-4.4515,-4.4542,-4.4632,-4.4738,-4.4821,-4.4948,-4.4995,-4.4967,-4.4876,-4.4758,-4.456,-4.4685,-4.4796,-4.4943,-4.5125,-4.5237,-4.5342,-4.5456,-4.558,-4.5791,-4.5835,-4.591,-4.6037,-4.6056,-4.6075,-4.6102,-4.6102,-4.6102,-4.6099,-4.6135,-4.615,-4.0741,-4.1398,-4.1954,-4.1811,-4.1285,-4.0497,-3.9339,-3.8061,0.0,0.0,-3.5071,-3.4583,-3.4517,0.0,-3.4933,0.0,-3.6305,0.0,0.0,0.0,0.0,0.0,0.0,0.0,0.0,-4.7834,0.0,-4.8226,-4.8304,-4.8247,-4.8072,-4.8072,-4.8111,-4.8286,-4.8457,-4.8642,-4.8892,-4.9079,-4.9262,-4.934,-4.9459,-4.9509,-4.9509,-4.9509,-4.9509,-4.949,-4.939,-4.934,-4.9308,-4.9183,-4.9135,-4.9027,-4.8103,-4.72,-4.6401,-4.5616,-4.4766,-4.3979,-4.3961,-4.3897,-4.3851,-4.3851,-4.3818,-4.3851,-4.4005,-4.4248,-4.4551,-4.4846,-4.4943,-4.5014,-4.517,-4.5125,-4.5014,-4.5103,-4.5057,-4.4967,-4.4846,-4.4789,-4.4712,-4.4632,-4.4578,-4.4551,-4.4605,-4.4745,-4.487,-4.4995,-4.5156,-4.5241,-4.5258,-4.526,-4.5159,-4.49,-4.4972,-4.5084,-4.5151,-4.5319,-4.5458,-4.555,-4.5616,-4.5742,-4.5912,-4.5986,-4.6056,-4.6127,-4.6176,-4.6209,-4.6209,-4.6203,-4.6209,-4.6189,-4.6206,-4.6197,-4.0591,-4.1398,-4.183,-4.1098,-4.0854,-4.0196,-3.785,0.0,0.0,-3.5052,-3.4658,-3.4602,-3.4583,-3.509,-3.5491,-3.5491,-3.6537,-3.7679,0.0,0.0,0.0,0.0,0.0,0.0,0.0,-4.767,-4.8324,-4.8475,-4.8697,-4.8678,-4.8306,-4.8267,-4.8382,-4.8569,-4.8587,-4.8785,-4.9164,-4.9197,-4.9295,-4.949,-4.949,-4.9509,-4.9509,-4.9509,-4.9509,-4.9509,-4.9509,-4.9409,-4.9308,-4.9276,-4.9197,-4.9027,-4.8151,-4.7266,-4.6401,-4.568,-4.4873,-4.4165,-4.4097,-4.4048,-4.3974,-4.3974,-4.3961,-4.3929,-4.4121,-4.4345,-4.456,-4.4895,-4.501,-4.5014,-4.517,-4.5148,-4.5103,-4.5103,-4.5057,-4.4967,-4.4895,-4.4821,-4.477,-4.4693,-4.4685,-4.4685,-4.4685,-4.4846,-4.5014,-4.5071,-4.5262,-4.54,-4.5476,-4.5476,-4.5476,-4.5419,-4.5282,-4.5222,-4.5361,-4.5457,-4.555,-4.5657,-4.5746,-4.5835,-4.5986,-4.6065,-4.613,-4.6201,-4.6201,-4.6201,-4.6201,-4.6206,-4.6206,-4.6206,-4.6201,-4.6191,-3.984,-4.0309,-4.0478,-4.0159,-3.9671,-3.892,-3.7437,0.0,-3.6028,-3.4846,-3.4602,-3.4602,-3.4602,-3.4798,-3.5082,-3.5448,-3.6337,0.0,0.0,0.0,0.0,0.0,0.0,0.0,0.0,0.0,-4.8052,-4.8748,-4.8978,-4.9012,-4.8855,-4.8714,-4.8714,-4.8837,-4.8925,-4.9061,-4.9244,-4.9327,-4.9427,-4.9509,-4.9509,-4.9509,-4.9509,-4.9509,-4.9509,-4.9509,-4.9509,-4.9459,-4.9409,-4.934,-4.9244,-4.9113,-4.8744,-4.7746,-4.6536,-4.6251,-4.5345,-4.4314,-4.4237,-4.4237,-4.4218,-4.4218,-4.4296,-4.4335,-4.4374,-4.4513,-4.4719,-4.4991,-4.5103,-4.5148,-4.5254,-4.5235,-4.5213,-4.517,-4.5148,-4.5103,-4.4967,-4.4895,-4.4821,-4.477,-4.4738,-4.4738,-4.4846,-4.4995,-4.5115,-4.5323,-4.5493,-4.5599,-4.5668,-4.5687,-4.5671,-4.5616,-4.5512,-4.5457,-4.551,-4.5582,-4.5668,-4.5746,-4.5827,-4.5929,-4.6047,-4.6115,-4.6189,-4.6269,-4.6257,-4.6261,-4.6267,-4.6261,-4.6261,-4.6267,-4.6251,-4.6258,-3.9,-3.9414,-3.9545,-3.9276,-3.8751,-3.8037,0.0,0.0,-3.5653,-3.4771,-3.4602,-3.4602,-3.4602,-3.4561,-3.4776,-3.5549,-3.623,-3.7132,-3.8386,0.0,0.0,0.0,0.0,-4.516,0.0,-4.7585,-4.8277,-4.9104,-4.9276,-4.9327,-4.9358,-4.9211,-4.9127,-4.9094,-4.9179,-4.9276,-4.9358,-4.944,-4.9509,-4.9509,-4.9509,-4.9509,-4.9509,-4.9509,-4.9509,-4.9509,-4.9509,-4.9509,-4.949,-4.9409,-4.9295,-4.9197,-4.915,-4.8091,-4.6605,-4.665,-4.5746,-4.4468,-4.444,-4.4468,-4.4496,-4.4532,-4.4613,-4.4685,-4.4693,-4.477,-4.4895,-4.5103,-4.5192,-4.5235,-4.5297,-4.5297,-4.5297,-4.5235,-4.5213,-4.517,-4.508,-4.501,-4.4962,-4.4895,-4.487,-4.4895,-4.5019,-4.5137,-4.5304,-4.5526,-4.5661,-4.5776,-4.5824,-4.5824,-4.581,-4.5746,-4.5684,-4.5651,-4.5613,-4.568,-4.5761,-4.5833,-4.5886,-4.5988,-4.6119,-4.6183,-4.624,-4.6306,-4.6293,-4.6297,-4.6301,-4.6297,-4.63,-4.6303,-4.6306,-4.6289,-3.8206,-3.8987,-3.937,-3.8525,-3.8319,-3.7887,0.0,-3.5916,-3.5653,-3.4771,-3.4602,-3.4602,-3.4602,-3.4602,-3.4861,-3.5656,-3.6433,-3.7163,-3.7906,0.0,0.0,0.0,0.0,-4.461,-4.6157,-4.8025,-4.9308,-4.9574,-4.9593,-4.9604,-4.9692,-4.9692,-4.9555,-4.9308,-4.9308,-4.9358,-4.9509,-4.9509,-4.9509,-4.9509,-4.9509,-4.9509,-4.9509,-4.9509,-4.9509,-4.9509,-4.9509,-4.9509,-4.9509,-4.9509,-4.9377,-4.9197,-4.9197,-4.8138,-4.6637,-4.6756,-4.5856,-4.4605,-4.4764,-4.4745,-4.4738,-4.4846,-4.4914,-4.4919,-4.5125,-4.5103,-4.5057,-4.5235,-4.5297,-4.5297,-4.5297,-4.5297,-4.5297,-4.5297,-4.5254,-4.5192,-4.5192,-4.5148,-4.5103,-4.5103,-4.5148,-4.5194,-4.5199,-4.5362,-4.5543,-4.5665,-4.5805,-4.5893,-4.5893,-4.5893,-4.586,-4.5814,-4.58,-4.5771,-4.5696,-4.5765,-4.5844,-4.5893,-4.5956,-4.6063,-4.6183,-4.6264,-4.6309,-4.6301,-4.6301,-4.6301,-4.6301,-4.6301,-4.6303,-4.6307,-4.6308,-4.6256,-3.737,-3.7777,-3.7882,-3.7573,-3.7061,-3.6535,-3.6028,-3.5446,-3.4921,-3.4658,-3.4602,-3.4602,-3.4602,-3.4602,-3.4883,-3.5724,-3.6527,-3.7291,0.0,0.0,0.0,0.0,0.0,-4.5475,0.0,0.0,-4.9514,-4.9574,-4.9634,-4.9663,-4.9692,-4.9692,-4.9663,-4.9574,-4.9555,-4.9574,-4.9563,-4.9563,-4.9551,-4.9509,-4.9509,-4.9509,-4.9509,-4.9509,-4.9509,-4.9509,-4.9509,-4.9509,-4.9509,-4.9509,-4.9409,-4.9276,-4.9276,-4.8284,-4.6873,-4.6918,-4.6062,-4.487,-4.4919,-4.4967,-4.5057,-4.5103,-4.5106,-4.5135,-4.5301,-4.5319,-4.5297,-4.5341,-4.536,-4.5378,-4.5378,-4.5338,-4.5297,-4.5297,-4.5297,-4.5254,-4.5213,-4.517,-4.517,-4.517,-4.5194,-4.5222,-4.5381,-4.5526,-4.5677,-4.5827,-4.5867,-4.5893,-4.5893,-4.5899,-4.586,-4.5814,-4.58,-4.58,-4.5833,-4.586,-4.5925,-4.6025,-4.6054,-4.6098,-4.6192,-4.6261,-4.6295,-4.6306,-4.6306,-4.6307,-4.6307,-4.6307,-4.6307,-4.6308,-4.6256,-4.621,0.0,-3.7039,-3.714,-3.6817,-3.6321,0.0,0.0,-3.5018,-3.4623,-3.4645,-3.4645,-3.4645,-3.4666,-3.4645,-3.5021,-3.6205,-3.6784,0.0,0.0,0.0,0.0,0.0,0.0,0.0,0.0,-4.8585,-4.9653,-4.9663,-4.975,-4.9807,-4.9816,-4.9843,-4.9843,-4.9843,-4.975,-4.9663,-4.9653,-4.9653,-4.9593,-4.9551,-4.9551,-4.9521,-4.9509,-4.9509,-4.9509,-4.9509,-4.9509,-4.9509,0.0,-4.9509,-4.9409,-4.9289,-4.9321,-4.8389,-4.7014,-4.709,-4.6247,-4.508,-4.5125,-4.5192,-4.5275,-4.5277,-4.5301,-4.5342,-4.5438,-4.5458,-4.5419,-4.54,-4.54,-4.54,-4.54,-4.5379,-4.5338,-4.5338,-4.5317,-4.5297,-4.5254,-4.5275,-4.5297,-4.5298,-4.5322,-4.5419,-4.558,-4.5692,-4.5814,-4.5917,-4.5941,-4.5941,-4.5949,-4.5944,-4.5899,-4.5835,-4.5841,-4.5854,-4.5932,-4.5937,-4.5975,-4.6084,-4.613,-4.6162,-4.6222,-4.6276,-4.6303,-4.6307,-4.6308,-4.6308,-4.6308,-4.6308,-4.6308,-4.6303,-4.6238,-4.6181,0.0,-3.6672,0.0,0.0,0.0,0.0,0.0,-3.4666,0.0,-3.4687,-3.4727,-3.4727,-3.4788,-3.4747,-3.5233,-3.6851,-3.7051,0.0,0.0,0.0,0.0,0.0,-4.4898,0.0,-4.7099,-4.8626,-4.9665,-4.9807,-4.9871,-4.9952,-5.0005,-5.0057,-5.0108,-5.0108,-4.9843,-4.9721,-4.9721,-4.9721,-4.9663,-4.9623,-4.9604,-4.9563,-4.9509,-4.949,-4.949,-4.9509,-4.9509,-4.949,-4.9521,-4.9521,-4.944,-4.9352,-4.934,-4.8415,-4.7071,-4.7186,-4.6364,-4.5235,-4.5359,-4.5418,-4.5419,-4.54,-4.5476,-4.5513,-4.5586,-4.5568,-4.5495,-4.5438,-4.5419,-4.54,-4.5343,-4.5323,-4.5303,-4.5246,-4.5186,-4.5126,-4.5126,-4.5186,-4.5227,-4.5228,-4.5337,-4.5491,-4.5684,-4.5777,-4.5871,-4.5972,-4.6005,-4.6005,-4.6003,-4.5991,-4.596,-4.5917,-4.5905,-4.5898,-4.5914,-4.5964,-4.6026,-4.6107,-4.6164,-4.623,-4.6301,-4.6306,-4.6307,-4.6308,-4.6308,-4.6308,-4.6308,-4.6308,-4.6305,-4.6293,-4.6225,-4.6164,-3.5666,0.0,-3.5569,-3.5325,-3.523,-3.5135,0.0,-3.4772,-3.4771,-3.4769,0.0,-3.4788,-3.4788,-3.4747,-3.5026,-3.6042,0.0,0.0,0.0,0.0,0.0,-4.1099,-4.3604,-4.576,-4.707,-4.822,-4.9145,-4.9833,-4.9952,-5.0005,-5.0082,-5.0082,-5.0108,-5.0108,-5.0031,-4.9952,-4.9843,-4.9807,-4.975,-4.9682,-4.9604,-4.9593,-4.9563,-4.9521,-4.9521,-4.9563,-4.9563,-4.9634,-4.9721,-4.9721,-4.9731,-4.9712,-4.9105,-4.8287,-4.7403,-4.6877,-4.6116,-4.5361,-4.5438,-4.5514,-4.555,-4.555,-4.5568,-4.5586,-4.5605,-4.5586,-4.5568,-4.5568,-4.5513,-4.5323,-4.4708,-4.4518,-4.4308,-4.3656,-4.3484,-4.3465,-4.3465,-4.3521,-4.3576,-4.3643,-4.3705,-4.4023,-4.4828,-4.4955,-4.5215,-4.5908,-4.5997,-4.6005,-4.6003,-4.5991,-4.596,-4.5917,-4.5905,-4.5665,-4.506,-4.5666,-4.6114,-4.6169,-4.6192,-4.6225,-4.6301,-4.6307,-4.6308,-4.6308,-4.6308,-4.6308,-4.6308,-4.6308,-4.6307,-4.6305,-4.6222,-4.6187,-3.5485,-3.543,-3.5223,-3.5174,-3.5143,-3.5054,-3.4963,0.0,0.0,0.0,0.0,-3.4888,-3.4927,-3.4831,0.0,0.0,-3.6246,0.0,0.0,0.0,0.0,-4.204,-4.4039,-4.584,-4.7159,-4.814,-4.9053,-4.9948,-5.0038,-5.0108,-5.0139,-5.0182,-5.0182,-5.0182,-5.0158,-5.0108,-5.0005,-4.9925,-4.9843,-4.9788,-4.9721,-4.9682,-4.9634,-4.9593,-4.9623,-4.9692,-4.9702,-4.9807,-4.9898,-4.9925,-4.9705,-4.9359,-4.8979,-4.8119,-4.7067,-4.6757,-4.6167,-4.5493,-4.5565,-4.5618,-4.5654,-4.5654,-4.5654,-4.5654,-4.5654,-4.5637,-4.564,-4.5622,-4.528,-4.4858,-4.4416,-4.3978,-4.3539,-4.3057,-4.2944,-4.2944,-4.2979,-4.3047,-4.3111,-4.3168,-4.3247,-4.3478,-4.4051,-4.416,-4.4336,-4.4793,-4.4851,-4.4841,-4.4849,-4.4849,-4.4838,-4.4808,-4.4808,-4.4614,-4.4189,-4.4618,-4.4945,-4.5007,-4.5041,-4.5073,-4.5106,-4.5114,-4.5117,-4.5117,-4.5117,-4.5117,-4.5117,-4.5117,-4.5117,-4.5115,-4.506,-4.525,-3.5475,-3.5577,-3.5435,-3.5422,-3.5315,-3.5239,-3.5155,0.0,0.0,0.0,0.0,0.0,0.0,-3.4963,0.0,0.0,0.0,0.0,0.0,0.0,-4.2473,-4.3416,-4.4947,-4.6266,-4.7157,-4.8061,-4.8992,-4.986,-5.0106,-5.0188,-5.0212,-5.0278,-5.0302,-5.0302,-5.0236,-5.0207,-5.0133,-5.0057,-5.0005,-4.9925,-4.9843,-4.9807,-4.975,-4.975,-4.9807,-4.9843,-4.9906,-5.0012,-5.007,-5.0024,-4.9553,-4.8891,-4.8716,-4.7807,-4.6568,-4.6607,-4.6215,-4.5613,-4.568,-4.57,-4.57,-4.57,-4.57,-4.57,-4.57,-4.5703,-4.5671,-4.5466,-4.4891,-4.4239,-4.397,-4.3359,-4.2785,-4.2662,-4.2626,-4.2665,-4.2726,-4.2782,-4.2847,-4.293,-4.2992,-4.3083,-4.3287,-4.3372,-4.3439,-4.3499,-4.351,-4.35,-4.3501,-4.3491,-4.3491,-4.351,-4.3491,-4.3452,-4.3316,-4.3315,-4.328,-4.3215,-4.3509,-4.37,-4.3698,-4.3707,-4.3691,-4.3691,-4.3691,-4.3691,-4.3691,-4.3691,-4.3691,-4.3708,-4.37,-4.4052,-3.5485,-3.5679,-3.5618,-3.5507,-3.5457,-3.5451,-3.5379,0.0,0.0,0.0,0.0,0.0,0.0,-3.5037,-3.5135,0.0,0.0,-3.8606,0.0,0.0,-4.2621,-4.3545,0.0,-4.5523,-4.6468,-4.7305,-4.8167,-4.9096,-4.9806,-5.0212,-5.0278,-5.0302,-5.0302,-5.0302,-5.0302,-5.0278,-5.0278,-5.0158,-5.0082,-5.0082,-5.0005,-4.9978,-4.9952,-4.9952,-5.0031,-5.0139,-5.0149,-5.0249,-5.0366,-4.9695,-4.9372,-4.9182,-4.776,-4.7085,-4.6758,-4.6095,-4.578,-4.57,-4.57,-4.57,-4.57,-4.57,-4.57,-4.57,-4.57,-4.57,-4.5545,-4.4797,-4.4443,-4.397,-4.2547,-4.2069,-4.1797,-4.1138,-4.1012,-4.1073,-4.1139,-4.116,-4.1197,-4.1267,-4.1286,-4.1546,-4.2349,-4.2494,-4.2747,-4.3478,-4.3575,-4.3566,-4.351,-4.35,-4.3491,-4.3491,-4.351,-4.3189,-4.2451,-4.2451,-4.2169,-4.1461,-4.2783,-4.3642,-4.3707,-4.3691,-4.369,-4.3709,-4.3708,-4.3707,-4.3707,-4.3707,-4.3707,-4.3706,-4.3693,-4.3736,-3.4833,-3.5396,-3.5727,-3.5669,-3.5607,-3.555,-3.5522,0.0,0.0,0.0,0.0,0.0,0.0,0.0,-3.5515,-3.7135,0.0,-3.9788,-4.1614,-4.255,-4.3398,0.0,-4.4786,-4.5422,-4.6367,-4.6786,-4.7571,-4.8957,-4.9396,-4.982,-5.0283,-5.0302,-5.0302,-5.0302,-5.0302,-5.0302,-5.0302,-5.0278,-5.0231,-5.0207,-5.0182,-5.0163,-5.0212,-5.0264,-5.0313,-5.0421,-5.0448,-5.0548,-5.0586,-4.9776,-4.9197,-4.8692,-4.7477,-4.6722,-4.6275,-4.5896,-4.5757,-4.5757,-4.5757,-4.5757,-4.5757,-4.5757,-4.5757,-4.5757,-4.5757,-4.5418,-4.4862,-4.3994,-4.3717,-4.342,-4.219,-4.1497,-4.1065,-4.0717,-4.0713,-4.0757,-4.0839,-4.0878,-4.0941,-4.0991,-4.1013,-4.1143,-4.1591,-4.1643,-4.1772,-4.214,-4.2198,-4.2183,-4.2157,-4.2157,-4.2157,-4.2159,-4.2147,-4.1996,-4.1595,-4.1572,-4.1446,-4.1076,-4.1811,-4.2265,-4.2285,-4.2304,-4.2304,-4.2301,-4.23,-4.2298,-4.2298,-4.2298,-4.2298,-4.2298,-4.229,-4.2529,-3.4284,-3.5138,-3.581,-3.5803,0.0,-3.5637,-3.562,-3.5565,0.0,0.0,0.0,0.0,0.0,-3.563,0.0,-3.8256,-3.9441,-4.0957,-4.3312,-4.3706,-4.4079,-4.4943,-4.5103,-4.5414,-4.6148,-4.6396,-4.7048,-4.8391,-4.8678,-4.906,-4.9691,-4.971,-4.971,-4.9752,-4.9752,-4.9847,-5.0042,-5.0106,-5.0202,-5.0348,-5.0352,-5.0396,-5.0462,-5.0527,-5.0606,-5.0663,-5.054,-5.0494,-5.0503,-4.9459,-4.8647,-4.7971,-4.7144,-4.6394,-4.581,-4.58,-4.58,-4.58,-4.58,-4.58,-4.58,-4.58,-4.58,-4.58,-4.5814,-4.522,-4.4341,-4.3485,-4.3104,-4.2748,-4.1846,-4.1128,-4.0648,-4.0739,-4.0781,-4.0839,-4.0913,-4.0979,-4.1033,-4.1095,-4.1106,-4.1091,-4.11,-4.1095,-4.1089,-4.1026,-4.102,-4.1025,-4.1023,-4.1003,-4.1003,-4.0996,-4.1013,-4.1025,-4.1013,-4.1022,-4.1042,-4.1103,-4.1101,-4.1107,-4.1094,-4.1093,-4.1091,-4.1105,-4.1105,-4.1103,-4.1103,-4.1103,-4.1103,-4.1103,-4.1099,-4.1459,-3.4272,-3.5138,-3.581,-3.5803,-3.5794,0.0,-3.5707,-3.5637,0.0,-3.5673,0.0,0.0,0.0,-3.665,-3.7774,-3.8553,-4.0089,-4.1797,-4.3548,-4.384,-4.4211,-4.5074,-4.5192,-4.5233,-4.5373,-4.6061,-4.6557,-4.6691,-4.7436,-4.7933,-4.799,-4.799,-4.8012,-4.8075,-4.8056,-4.8441,-4.9271,-4.9353,-4.9736,-5.05,-5.0566,-5.0606,-5.0682,-5.0754,-5.0803,-5.0851,-5.0089,-4.9804,-4.973,-4.8063,-4.7346,-4.7191,-4.6332,-4.5905,-4.58,-4.58,-4.58,-4.58,-4.58,-4.58,-4.58,-4.58,-4.58,-4.5814,-4.586,-4.5293,-4.4421,-4.3606,-4.2795,-4.195,-4.1036,-4.0733,-4.0725,-4.0856,-4.0897,-4.0918,-4.0981,-4.105,-4.1091,-4.1091,-4.1091,-4.1091,-4.1091,-4.1106,-4.11,-4.1086,-4.1089,-4.1091,-4.1089,-4.1039,-4.0994,-4.1011,-4.1057,-4.1088,-4.1093,-4.1093,-4.1093,-4.1103,-4.1093,-4.1094,-4.1092,-4.1105,-4.1099,-4.1099,-4.1094,-4.1091,-4.1091,-4.1091,-4.1091,-4.1091,-4.1091,-4.1136,-3.3665,-3.4758,-3.5791,-3.5801,-3.5801,0.0,0.0,-3.6096,-3.6318,-3.5814,-3.6114,0.0,0.0,0.0,-3.8408,-4.0158,-4.1414,-4.2724,-4.4376,-4.4668,-4.4827,-4.5154,-4.5254,-4.5275,-4.5297,-4.5583,-4.5965,-4.6462,-4.6806,-4.7245,-4.7824,-4.7862,-4.7886,-4.795,-4.795,-4.8144,-4.851,-4.8585,-4.8794,-4.9138,-5.0216,-5.0789,-5.0874,-5.039,-5.0181,-5.0176,-4.9362,-4.9038,-4.8953,-4.7765,-4.7248,-4.7171,-4.6254,-4.588,-4.5848,-4.5848,-4.5854,-4.586,-4.586,-4.5827,-4.58,-4.58,-4.58,-4.5717,-4.5241,-4.4511,-4.3683,-4.2876,-4.2024,-4.1267,-4.0862,-4.0787,-4.0849,-4.0888,-4.0929,-4.0981,-4.105,-4.1076,-4.1109,-4.1097,-4.1097,-4.1094,-4.1109,-4.1105,-4.11,-4.1105,-4.11,-4.1096,-4.11,-4.109,-4.1058,-4.1003,-4.1011,-4.1054,-4.1105,-4.1069,-4.1051,-4.1033,-4.1074,-4.1103,-4.1094,-4.1108,-4.1097,-4.1105,-4.11,-4.1076,-4.1047,-4.1047,-4.1047,-4.1047,-4.1076,-4.1086,-3.3239,-3.4345,-3.5469,0.0,0.0,0.0,-3.6085,-3.66,-3.692,-3.6581,-3.7007,-3.7374,-3.7266,0.0,0.0,0.0,-4.2259,-4.3347,-4.4941,-4.5213,-4.5254,-4.5235,-4.5275,-4.5317,-4.5317,-4.5338,-4.5568,-4.6103,-4.6141,-4.6451,-4.7104,-4.7163,-4.7204,-4.7259,-4.7296,-4.7465,-4.7819,-4.7867,-4.8063,-4.841,-4.9558,-5.0139,-5.0181,-4.9666,-4.9419,-4.938,-4.8549,-4.8191,-4.8114,-4.7256,-4.6896,-4.6826,-4.6181,-4.5917,-4.5905,-4.5905,-4.5893,-4.5899,-4.5899,-4.5887,-4.5854,-4.5854,-4.5693,-4.5357,-4.482,-4.3893,-4.2916,-4.2373,-4.161,-4.0945,-4.0913,-4.0902,-4.0933,-4.096,-4.1,-4.1033,-4.109,-4.1101,-4.1108,-4.1091,-4.1094,-4.1094,-4.1104,-4.1104,-4.1108,-4.1091,-4.1091,-4.1094,-4.1097,-4.1105,-4.1071,-4.1035,-4.1006,-4.1019,-4.1037,-4.0994,-4.0953,-4.091,-4.0948,-4.0983,-4.1047,-4.1047,-4.1037,-4.1046,-4.1046,-4.1,-4.094,-4.094,-4.094,-4.0967,-4.102,-4.1013,-3.3102,-3.3952,-3.4812,0.0,0.0,0.0,-3.6906,-3.7102,-3.7336,-3.8161,-3.8306,-3.8296,-3.8236,-3.8876,0.0,-4.1466,-4.2439,-4.3559,-4.5088,-4.5359,-4.5378,-4.5317,-4.5297,-4.5317,-4.5379,-4.5398,-4.5419,-4.54,-4.54,-4.5438,-4.5495,-4.5568,-4.5635,-4.5703,-4.5766,-4.6247,-4.7172,-4.719,-4.7653,-4.8569,-4.8569,-4.8557,-4.8502,-4.8569,-4.858,-4.8541,-4.7667,-4.7298,-4.722,-4.6366,-4.6005,-4.5991,-4.5991,-4.596,-4.5886,-4.5886,-4.5886,-4.5886,-4.5886,-4.5949,-4.6003,-4.6003,-4.5412,-4.4705,-4.4764,-4.3577,-4.2202,-4.2266,-4.1713,-4.1096,-4.109,-4.1057,-4.1028,-4.109,-4.1108,-4.1099,-4.1099,-4.1103,-4.1105,-4.1099,-4.1103,-4.1105,-4.1099,-4.1103,-4.1108,-4.1091,-4.1092,-4.1093,-4.1092,-4.1091,-4.1105,-4.1097,-4.1033,-4.0974,-4.0894,-4.0897,-4.0829,-4.0703,-4.0692,-4.0759,-4.089,-4.0898,-4.0902,-4.0904,-4.0904,-4.0857,-4.081,-4.081,-4.082,-4.0904,-4.0904,-4.0904,-3.4158,-3.4821,0.0,-3.5741,0.0,0.0,0.0,-3.8013,0.0,0.0,-3.8811,-3.8724,-3.9897,-4.0253,-4.1105,-4.3303,-4.3856,-4.4331,-4.5304,-4.5458,-4.5458,-4.538,-4.538,-4.54,-4.5457,-4.5477,-4.5495,-4.555,-4.5547,-4.558,-4.5626,-4.5692,-4.5786,-4.5912,-4.5925,-4.6096,-4.6424,-4.6434,-4.6571,-4.6844,-4.6844,-4.7456,-4.8552,-4.7958,-4.7686,-4.7648,-4.6754,-4.6385,-4.6366,-4.6113,-4.5997,-4.6005,-4.6005,-4.6016,-4.6046,-4.6046,-4.6037,-4.6037,-4.6037,-4.6047,-4.6074,-4.6074,-4.549,-4.4681,-4.4117,-4.3169,-4.2169,-4.1608,-4.1277,-4.1091,-4.1103,-4.1084,-4.108,-4.1094,-4.1099,-4.1105,-4.1105,-4.1107,-4.1107,-4.1105,-4.1108,-4.109,-4.1108,-4.1093,-4.1093,-4.1108,-4.1105,-4.108,-4.1035,-4.1022,-4.1022,-4.1026,-4.0968,-4.0888,-4.0759,-4.0667,-4.0596,-4.0559,-4.0511,-4.0563,-4.0757,-4.0757,-4.0746,-4.0692,-4.0692,-4.068,-4.0662,-4.0617,-4.0597,-4.0617,-4.0617,-4.0617,-3.4511,-3.5211,0.0,-3.6234,-3.6964,-3.7838,-3.8712,0.0,0.0,0.0,-4.0033,-4.0228,-4.1238,-4.1645,-4.2435,-4.4266,-4.4515,-4.4727,-4.5481,-4.558,-4.5545,-4.5475,-4.5493,-4.553,-4.5584,-4.5599,-4.5651,-4.57,-4.5727,-4.5752,-4.5808,-4.5861,-4.5922,-4.6037,-4.6066,-4.6093,-4.6146,-4.6146,-4.6135,-4.6135,-4.6146,-4.6675,-4.7621,-4.7067,-4.6824,-4.6795,-4.624,-4.5997,-4.5997,-4.5997,-4.6026,-4.6037,-4.6037,-4.6056,-4.6093,-4.6102,-4.6119,-4.6135,-4.613,-4.6131,-4.6086,-4.5741,-4.5045,-4.4211,-4.3387,-4.2518,-4.1726,-4.1238,-4.1107,-4.111,-4.1093,-4.1113,-4.1132,-4.1147,-4.1149,-4.113,-4.113,-4.1112,-4.1093,-4.1092,-4.1094,-4.1093,-4.1093,-4.1107,-4.1094,-4.1062,-4.1066,-4.1042,-4.0968,-4.096,-4.0949,-4.0926,-4.0858,-4.0761,-4.0636,-4.0511,-4.0441,-4.0394,-4.0341,-4.0356,-4.0469,-4.0559,-4.0602,-4.0506,-4.0506,-4.0511,-4.0469,-4.0438,-4.0403,-4.0386,-4.0386,-4.0386,-3.4515,0.0,0.0,-3.6923,-3.78,0.0,-3.9606,-4.0383,-4.0907,-4.0907,0.0,-4.2131,-4.2287,-4.2907,-4.3721,-4.4657,-4.4776,-4.497,-4.5617,-4.5718,-4.5688,-4.5629,-4.568,-4.5712,-4.5731,-4.5786,-4.5841,-4.5887,-4.5905,-4.5941,-4.6014,-4.6008,-4.6054,-4.6115,-4.617,-4.6195,-4.6206,-4.6206,-4.6201,-4.6209,-4.619,-4.6196,-4.6193,-4.613,-4.6104,-4.6105,-4.6047,-4.6017,-4.6017,-4.6017,-4.6047,-4.6105,-4.6114,-4.6102,-4.6103,-4.6105,-4.6144,-4.622,-4.6206,-4.6202,-4.6072,-4.5199,-4.4364,-4.355,-4.2651,-4.1793,-4.1093,-4.1094,-4.1094,-4.1094,-4.1092,-4.1151,-4.1191,-4.1191,-4.1191,-4.1191,-4.1191,-4.1132,-4.1092,-4.1093,-4.1107,-4.1094,-4.1094,-4.109,-4.1061,-4.1006,-4.0979,-4.096,-4.0896,-4.0897,-4.0859,-4.0776,-4.0718,-4.0615,-4.0473,-4.0411,-4.0308,-4.0176,-4.0176,-4.0137,-4.0077,-4.0323,-4.0441,-4.0372,-4.0372,-4.0358,-4.0289,-4.0289,-4.0233,-4.0177,-4.0139,-4.0139,-3.5584,-3.6264,0.0,0.0,-3.8274,-3.9625,-4.0461,-4.0771,-4.0907,-4.0907,-4.1043,-4.1607,-4.2966,-4.3364,-4.3975,-4.5487,-4.5708,-4.5743,-4.5841,-4.5854,-4.5848,-4.5833,-4.5841,-4.588,-4.5925,-4.5956,-4.596,-4.5975,-4.6037,-4.6056,-4.6083,-4.6123,-4.6151,-4.6176,-4.6201,-4.6206,-4.6206,-4.6206,-4.6206,-4.6201,-4.6201,-4.6195,-4.6189,-4.6127,-4.6102,-4.6099,-4.6072,-4.6119,-4.6154,-4.6154,-4.6174,-4.6181,-4.6176,-4.6177,-4.6176,-4.6182,-4.6222,-4.6273,-4.6282,-4.6287,-4.6133,-4.5254,-4.4394,-4.3535,-4.2655,-4.1796,-4.1093,-4.1091,-4.111,-4.111,-4.1108,-4.1108,-4.1129,-4.1129,-4.1111,-4.1112,-4.1112,-4.1108,-4.1101,-4.1099,-4.1104,-4.1081,-4.1022,-4.1026,-4.1003,-4.0926,-4.0888,-4.0828,-4.0826,-4.0815,-4.0769,-4.0582,-4.0496,-4.0386,-4.0195,-4.008,-3.9977,-3.9892,-3.9889,-3.9892,-3.9933,-4.0099,-4.0196,-4.0158,-4.0215,-4.0215,-4.0138,-4.0078,-3.9998,-3.9873,-3.9721,-3.9675,0.0,0.0,0.0,-3.8782,0.0,-4.0383,-4.0791,-4.0907,-4.0907,-4.0907,-4.1238,-4.1937,-4.3258,-4.384,-4.454,-4.58,-4.5994,-4.5994,-4.5991,-4.6003,-4.6014,-4.5991,-4.5994,-4.6016,-4.6035,-4.6076,-4.6104,-4.6093,-4.6135,-4.6144,-4.6151,-4.6215,-4.625,-4.6255,-4.624,-4.6245,-4.6245,-4.6245,-4.6245,-4.6245,-4.6245,-4.623,-4.6195,-4.6164,-4.6144,-4.6144,-4.6144,-4.617,-4.6195,-4.6201,-4.6211,-4.6197,-4.6201,-4.6214,-4.6248,-4.6258,-4.6265,-4.6308,-4.6307,-4.603,-4.5536,-4.465,-4.3791,-4.291,-4.2048,-4.1465,-4.1099,-4.1097,-4.1099,-4.1103,-4.1101,-4.1101,-4.1101,-4.1097,-4.1101,-4.1107,-4.1103,-4.1072,-4.1051,-4.1042,-4.1025,-4.0979,-4.0929,-4.0878,-4.0839,-4.0815,-4.075,-4.0694,-4.0688,-4.0648,-4.0564,-4.0422,-4.0321,-4.0177,-4.002,-3.9895,-3.9804,-3.9693,-3.9693,-3.9712,-3.9712,-3.9781,-3.9911,-4.0096,-4.0098,-4.0077,-4.0015,-3.9892,-3.9781,-3.9618,-3.9477,-3.9376,0.0,0.0,-3.8895,-4.0579,-4.0954,0.0,-4.0907,-4.0907,-4.0907,-4.0907,-4.1471,-4.2228,-4.3102,-4.3996,-4.4841,-4.5657,-4.591,-4.6047,-4.6085,-4.6105,-4.6114,-4.6114,-4.6122,-4.613,-4.6113,-4.6181,-4.6209,-4.6209,-4.6215,-4.6211,-4.6211,-4.626,-4.6308,-4.6308,-4.6296,-4.6303,-4.6303,-4.6303,-4.6306,-4.6306,-4.629,-4.6256,-4.6204,-4.6206,-4.6199,-4.6202,-4.6202,-4.6206,-4.6206,-4.6192,-4.62,-4.6204,-4.6204,-4.6228,-4.6289,-4.6289,-4.6286,-4.6262,-4.6108,-4.5594,-4.4813,-4.3797,-4.2988,-4.2247,-4.1369,-4.11,-4.1109,-4.1109,-4.1097,-4.1088,-4.1081,-4.1085,-4.1081,-4.1066,-4.107,-4.1062,-4.1081,-4.1033,-4.0974,-4.0974,-4.0904,-4.0849,-4.0779,-4.073,-4.0688,-4.0668,-4.0602,-4.0559,-4.053,-4.0419,-4.0339,-4.0233,-4.012,-3.996,-3.9829,-3.9739,-3.9647,-3.9526,-3.9502,-3.9477,-3.9427,-3.9427,-3.9556,-3.9892,-3.9933,-3.9892,-3.9804,-3.9693,-3.9551,-3.9324,-3.9219,-3.9082,0.0,0.0,-3.8895,0.0,-4.0999,-4.0974,0.0,0.0,-4.0907,0.0,-4.0985,-4.1335,-4.2209,-4.3083,-4.3947,-4.4832,-4.5589,-4.6084,-4.6093,-4.6149,-4.6185,-4.6181,-4.6183,-4.6196,-4.6189,-4.6201,-4.6201,-4.6201,-4.6255,-4.6284,-4.6284,-4.6292,-4.63,-4.63,-4.6306,-4.6293,-4.6293,-4.6297,-4.6301,-4.6306,-4.6308,-4.6268,-4.6202,-4.6204,-4.6209,-4.619,-4.6191,-4.6191,-4.6209,-4.6208,-4.6208,-4.6207,-4.6204,-4.6202,-4.6219,-4.6206,-4.6218,-4.6117,-4.5343,-4.5007,-4.4651,-4.309,-4.2481,-4.2247,-4.1369,-4.1106,-4.11,-4.11,-4.1056,-4.1006,-4.1006,-4.1019,-4.1007,-4.094,-4.0937,-4.0929,-4.0994,-4.0953,-4.0906,-4.084,-4.0765,-4.0707,-4.0707,-4.066,-4.0583,-4.0534,-4.0469,-4.037,-4.0286,-4.0251,-4.0158,-3.9958,-3.9829,-3.9693,-3.9477,-3.935,-3.9264,-3.9183,-3.911,-3.9082,-3.9137,-3.9101,-3.9064,-3.9063,-3.9439,-3.9575,-3.9452,-3.9452,-3.9298,-3.9045,-3.8796,-3.8615,-3.5878,-3.694,-3.8073,0.0,-3.994,-4.0252,-4.0226,0.0,-4.0907,-4.0907,-4.0907,-4.116,-4.2034,-4.25,-4.3062,-4.3937,-4.4422,-4.4868,-4.5351,-4.5453,-4.565,-4.6131,-4.6209,-4.6201,-4.6206,-4.6236,-4.6255,-4.6255,-4.6288,-4.6292,-4.6292,-4.6303,-4.6309,-4.6295,-4.63,-4.6305,-4.6307,-4.6308,-4.6289,-4.6245,-4.6231,-4.6238,-4.6201,-4.6167,-4.6152,-4.6202,-4.6195,-4.6189,-4.6206,-4.6202,-4.6199,-4.6199,-4.6195,-4.6191,-4.6191,-4.6201,-4.5884,-4.5416,-4.503,-4.4259,-4.3317,-4.2584,-4.1987,-4.148,-4.111,-4.0986,-4.0999,-4.0984,-4.0964,-4.0945,-4.0894,-4.0857,-4.083,-4.0791,-4.0757,-4.0742,-4.0707,-4.0757,-4.0754,-4.0649,-4.0621,-4.0569,-4.0492,-4.0408,-4.0339,-4.0286,-4.0196,-4.01,-4.004,-3.9918,-3.9788,-3.9647,-3.9532,-3.9383,-3.9192,-3.9036,-3.8923,-3.8826,-3.8766,-3.8676,-3.8597,-3.8566,-3.8517,-3.8436,-3.8915,-3.9054,-3.8896,-3.881,-3.8681,-3.8473,-3.8263,-3.8065,0.0,0.0,-3.7421,-3.8287,-3.8954,-3.9395,0.0,0.0,-4.0323,0.0,-4.0606,-4.0867,-4.1733,-4.2081,-4.2449,-4.31,-4.3408,-4.3822,-4.4487,-4.4585,-4.4832,-4.5493,-4.5562,-4.5567,-4.5553,-4.5601,-4.5644,-4.5644,-4.5636,-4.5737,-4.5955,-4.5963,-4.6067,-4.6286,-4.6289,-4.6269,-4.6264,-4.6261,-4.6231,-4.6167,-4.6162,-4.6164,-4.6164,-4.6115,-4.6125,-4.6177,-4.6167,-4.6162,-4.6162,-4.617,-4.6164,-4.6164,-4.6164,-4.6053,-4.5877,-4.5852,-4.5292,-4.4532,-4.4299,-4.3364,-4.224,-4.1996,-4.1438,-4.0867,-4.0858,-4.0849,-4.0859,-4.0859,-4.084,-4.081,-4.0768,-4.0696,-4.066,-4.0655,-4.0602,-4.0545,-4.0481,-4.0554,-4.0588,-4.0473,-4.0441,-4.0372,-4.0252,-4.0158,-4.01,-3.9981,-3.9854,-3.9785,-3.9717,-3.9599,-3.9452,-3.9298,-3.9219,-3.9064,-3.8836,-3.87,-3.8548,-3.8428,-3.8332,-3.8234,-3.8083,-3.8068,-3.8,-3.7897,-3.8162,-3.8287,-3.8269,-3.8176,-3.8013,-3.7826,-3.7685,-3.7469,0.0,-3.6676,0.0,-3.83,0.0,0.0,0.0,0.0,-3.8765,-3.9582,-3.9766,-4.0035,-4.0894,-4.1738,-4.2307,-4.2362,-4.3059,-4.3623,-4.3662,-4.3719,-4.3773,-4.3821,-4.3825,-4.3829,-4.384,-4.3821,-4.384,-4.384,-4.3847,-4.4203,-4.5011,-4.5074,-4.5449,-4.6268,-4.6243,-4.6215,-4.6206,-4.6211,-4.6164,-4.6105,-4.6103,-4.6107,-4.6102,-4.6102,-4.6102,-4.6111,-4.6102,-4.6102,-4.6102,-4.6102,-4.6102,-4.6102,-4.6102,-4.5652,-4.4966,-4.4904,-4.4367,-4.3537,-4.2641,-4.2274,-4.2052,-4.116,-4.0829,-4.081,-4.0798,-4.0754,-4.0706,-4.0706,-4.0668,-4.0615,-4.0602,-4.0554,-4.0511,-4.0519,-4.0454,-4.0406,-4.0406,-4.0422,-4.0389,-4.0323,-4.027,-4.0177,-4.0042,-3.996,-3.9851,-3.9647,-3.9575,-3.9452,-3.9264,-3.9237,-3.9183,-3.9045,-3.8836,-3.8621,-3.8373,-3.8198,-3.8068,-3.7844,-3.7792,-3.7739,-3.7739,-3.7685,-3.754,-3.7334,-3.7111,-3.721,-3.7649,-3.7649,-3.7433,-3.7058,-3.7111,-3.6878,0.0,0.0,0.0,-3.5156,-3.5615,-3.6144,-3.6668,-3.723,-3.7864,-3.8682,-3.9318,-3.9804,-4.0108,-4.0875,-4.1473,-4.1468,-4.1766,-4.2192,-4.2744,-4.2856,-4.306,-4.363,-4.3697,-4.37,-4.3704,-4.3707,-4.3693,-4.3698,-4.3706,-4.3847,-4.414,-4.4118,-4.4245,-4.4555,-4.4538,-4.4512,-4.4474,-4.4476,-4.4431,-4.4365,-4.4356,-4.4335,-4.4303,-4.43,-4.43,-4.43,-4.43,-4.4995,-4.6054,-4.549,-4.5267,-4.522,-4.4656,-4.4267,-4.4005,-4.3976,-4.3403,-4.2578,-4.2248,-4.1742,-4.1183,-4.0851,-4.0694,-4.0615,-4.0602,-4.0526,-4.0446,-4.0504,-4.0457,-4.0408,-4.0408,-4.0358,-4.0307,-4.0252,-4.0177,-4.012,-4.01,-4.0139,-4.0196,-4.0119,-4.0019,-3.9895,-3.9702,-3.958,-3.9477,-3.935,-3.9264,-3.9156,-3.9092,-3.9007,-3.8892,-3.8695,-3.8504,-3.8263,-3.7948,-3.7739,-3.7559,-3.7356,-3.7319,-3.7299,-3.7223,-3.7241,-3.7105,-3.6926,-3.6474,-3.644,-3.6781,-3.6586,-3.6381,-3.6105,-3.6122,-3.6037,-3.2649,0.0,0.0,0.0,0.0,-3.4353,-3.4931,-3.5737,-3.6594,-3.7396,-3.8244,-3.9043,-3.9641,-4.0207,-4.0694,-4.098,-4.1075,-4.1306,-4.1881,-4.1952,-4.2174,-4.2756,-4.2822,-4.2829,-4.2829,-4.2837,-4.2824,-4.2829,-4.2832,-4.2945,-4.3225,-4.3189,-4.33,-4.3559,-4.3537,-4.3517,-4.3481,-4.3432,-4.341,-4.3369,-4.3335,-4.3298,-4.3273,-4.3266,-4.3258,-4.3258,-4.3258,-4.4001,-4.5113,-4.455,-4.4296,-4.4247,-4.3635,-4.3236,-4.2992,-4.297,-4.2377,-4.159,-4.1555,-4.1158,-4.0615,-4.0588,-4.0519,-4.0425,-4.0408,-4.0339,-4.0269,-4.0307,-4.0271,-4.0234,-4.0215,-4.0138,-4.0038,-4.0015,-3.9892,-3.9826,-3.9762,-3.9895,-3.9979,-3.9851,-3.9758,-3.9599,-3.9401,-3.9272,-3.9183,-3.9073,-3.8979,-3.8881,-3.8833,-3.8732,-3.8559,-3.8332,-3.8135,-3.7844,-3.745,-3.7226,-3.7052,-3.6856,-3.6776,-3.6776,-3.6771,-3.6673,-3.655,-3.6419,-3.5881,-3.5644,-3.5722,-3.5705,-3.5571,-3.5362,-3.5407,-3.5362,0.0,0.0,0.0,0.0,0.0,0.0,-3.3398,0.0,-3.4901,-3.5723,-3.6604,-3.7756,-3.9458,-3.9793,-4.0125,-4.0969,-4.11,-4.1094,-4.1094,-4.1104,-4.1111,-4.1111,-4.1111,-4.1094,-4.1099,-4.1105,-4.1092,-4.1092,-4.1103,-4.1433,-4.2226,-4.2266,-4.2615,-4.3384,-4.3343,-4.3322,-4.3327,-4.3245,-4.3233,-4.3221,-4.3137,-4.3129,-4.3109,-4.3106,-4.311,-4.311,-4.311,-4.3139,-4.3208,-4.3227,-4.326,-4.3247,-4.3162,-4.264,-4.1938,-4.1889,-4.1316,-4.0577,-4.0534,-4.0489,-4.0473,-4.0342,-4.0288,-4.0289,-4.0215,-4.0177,-4.0176,-4.0196,-4.0137,-4.0057,-3.9996,-3.9889,-3.9781,-3.9781,-3.9623,-3.9502,-3.9483,-3.9623,-3.9717,-3.9526,-3.9427,-3.9298,-3.9129,-3.9036,-3.8921,-3.8822,-3.8719,-3.8658,-3.851,-3.8368,-3.8189,-3.7984,-3.7757,-3.7374,-3.69,-3.6678,-3.6492,-3.6301,-3.6156,-3.6156,-3.6259,-3.6011,-3.5864,-3.5766,-3.5253,-3.4802,-3.4497,-3.4944,-3.5055,-3.4851,-3.4994,-3.4899,-3.0869,0.0,0.0,0.0,0.0,0.0,-3.3044,0.0,-3.4173,-3.5604,-3.709,-3.8281,-3.8764,-3.9898,-4.0817,-4.1064,-4.1097,-4.1094,-4.1099,-4.1103,-4.1103,-4.1103,-4.1103,-4.1107,-4.1092,-4.1094,-4.1087,-4.1026,-4.1033,-4.1104,-4.1271,-4.1228,-4.1294,-4.147,-4.1454,-4.1416,-4.139,-4.1349,-4.1321,-4.1273,-4.1216,-4.1149,-4.1099,-4.1011,-4.0958,-4.0939,-4.092,-4.0901,-4.0976,-4.1913,-4.2242,-4.2086,-4.1474,-4.1039,-4.0781,-4.0748,-4.0598,-4.0372,-4.0358,-4.0325,-4.0272,-4.0234,-4.0118,-4.0017,-3.9996,-3.987,-3.9781,-3.987,-3.9804,-3.9647,-3.9575,-3.9526,-3.9477,-3.9376,-3.9272,-3.9165,-3.9017,-3.9036,-3.9101,-3.9137,-3.897,-3.8796,-3.8676,-3.8603,-3.8541,-3.8528,-3.8451,-3.8354,-3.8252,-3.8018,-3.7739,-3.745,-3.7167,-3.6856,-3.6333,-3.6156,-3.5898,-3.5677,-3.5616,-3.5599,-3.5661,-3.5599,-3.5419,-3.5207,-3.4754,-3.4333,-3.405,-3.4184,-3.4184,-3.405,-3.3949,-3.3882,0.0,0.0,0.0,0.0,0.0,0.0,-3.2409,-3.3034,-3.3691,-3.5034,-3.6437,-3.7524,-3.7885,-3.8783,-3.9719,-4.0444,-4.0565,-4.0683,-4.1053,-4.1091,-4.1091,-4.1091,-4.1093,-4.1094,-4.1091,-4.1062,-4.1039,-4.0967,-4.096,-4.0943,-4.0858,-4.0781,-4.072,-4.0655,-4.0654,-4.0612,-4.0515,-4.0523,-4.046,-4.0372,-4.0307,-4.0234,-4.0158,-4.006,-4.002,-4.002,-3.9979,-3.996,-4.0019,-4.0749,-4.1048,-4.0991,-4.055,-4.0323,-4.0251,-4.0233,-4.0215,-4.0177,-4.0119,-4.0039,-3.9996,-3.9933,-3.9826,-3.9735,-3.9712,-3.9618,-3.9526,-3.9575,-3.9477,-3.9279,-3.9173,-3.9119,-3.9055,-3.897,-3.8884,-3.8766,-3.8658,-3.8554,-3.8572,-3.8737,-3.8676,-3.8541,-3.8433,-3.8368,-3.8336,-3.8252,-3.8138,-3.8002,-3.7827,-3.7559,-3.7264,-3.6995,-3.6678,-3.635,-3.5941,-3.5633,-3.5362,-3.5055,-3.4944,-3.4864,-3.48,-3.4721,-3.4642,-3.4464,-3.4002,-3.361,-3.3245,-3.3591,-3.3642,-3.3555,-3.3277,-3.3033,0.0,0.0,0.0,0.0,0.0,0.0,-3.1648,-3.2543,-3.3437,-3.4296,-3.5295,-3.6259,-3.7025,-3.7264,-3.7834,-3.9394,-3.9731,-4.0083,-4.0974,-4.1093,-4.1093,-4.1093,-4.1091,-4.1086,-4.1094,-4.1027,-4.0961,-4.089,-4.0878,-4.0858,-4.0788,-4.0726,-4.0654,-4.0574,-4.0569,-4.0508,-4.0372,-4.0358,-4.0288,-4.0177,-4.0099,-4.0036,-3.9975,-3.9911,-3.9867,-3.9867,-3.9845,-3.9845,-3.9845,-3.9845,-3.9916,-4.0061,-4.0118,-4.0157,-4.0137,-4.0057,-3.9996,-3.9933,-3.9804,-3.9693,-3.9623,-3.9502,-3.9477,-3.9433,-3.9376,-3.9324,-3.9298,-3.9219,-3.911,-3.897,-3.8789,-3.8658,-3.8554,-3.8523,-3.8446,-3.8318,-3.8318,-3.8168,-3.8101,-3.83,-3.8364,-3.8382,-3.8223,-3.8189,-3.8138,-3.7915,-3.7739,-3.7541,-3.7301,-3.7017,-3.6719,-3.6492,-3.6199,-3.5854,-3.5532,-3.5131,-3.4754,-3.4399,-3.4151,-3.3917,-3.3885,-3.3729,-3.3591,-3.3591,-3.3108,-3.268,-3.2272,-3.2996,-3.3293,-3.3118,-3.2656,-3.2241,0.0,0.0,0.0,0.0,0.0,0.0,-3.1449,-3.2375,-3.3287,-3.4158,-3.5648,-3.6837,-3.7004,-3.7661,-3.8286,-3.8611,-3.9247,-4.0017,-4.0894,-4.1016,-4.1016,-4.1016,-4.1016,-4.1022,-4.1017,-4.0961,-4.091,-4.0898,-4.0854,-4.0796,-4.0726,-4.0668,-4.0559,-4.0454,-4.0392,-4.0288,-4.0158,-4.0099,-4.0058,-3.9977,-3.9892,-3.9826,-3.9758,-3.9727,-3.9679,-3.9575,-3.9583,-3.9552,-3.9502,-3.9514,-3.9647,-3.9851,-3.987,-3.9867,-3.9781,-3.9735,-3.9665,-3.9599,-3.9502,-3.9401,-3.9272,-3.9264,-3.921,-3.9101,-3.9082,-3.8942,-3.8737,-3.8615,-3.8585,-3.8585,-3.8433,-3.8387,-3.8322,-3.8153,-3.807,-3.7951,-3.7792,-3.765,-3.7487,-3.7376,-3.765,-3.7792,-3.7613,-3.7577,-3.7504,-3.7319,-3.715,-3.6939,-3.662,-3.6392,-3.6139,-3.5827,-3.5577,-3.5321,-3.493,-3.4382,-3.3984,-3.3694,-3.3298,-3.3055,-3.3055,-3.3087,-3.3033,-3.2819,-3.2241,-3.1864,-3.1652,-3.2176,-3.2287,-3.2033,-3.1564,-3.1087,0.0,0.0,0.0,-3.0133,0.0,0.0,0.0,-3.1892,-3.2492,-3.3369,-3.4295,-3.4949,-3.4972,-3.5398,-3.6027,-3.6871,-3.7394,-3.8138,-3.9407,-4.0409,-4.0998,-4.0998,-4.1011,-4.0994,-4.096,-4.0913,-4.0869,-4.08,-4.0771,-4.072,-4.0598,-4.05,-4.0403,-4.025,-4.0196,-4.008,-3.9958,-3.9873,-3.9804,-3.9693,-3.9623,-3.9551,-3.9446,-3.9439,-3.9413,-3.9298,-3.9309,-3.9275,-3.9248,-3.921,-3.9272,-3.9427,-3.9599,-3.9599,-3.9545,-3.9502,-3.9427,-3.9298,-3.9146,-3.9008,-3.8884,-3.8826,-3.8737,-3.8676,-3.8664,-3.8478,-3.8267,-3.8171,-3.8119,-3.8068,-3.788,-3.7828,-3.7775,-3.7685,-3.7577,-3.7466,-3.7281,-3.715,-3.6978,-3.6736,-3.6759,-3.686,-3.7073,-3.7034,-3.6956,-3.6736,-3.6539,-3.6274,-3.6054,-3.5827,-3.5622,-3.5367,-3.5088,-3.4756,-3.4448,-3.3899,-3.3435,-3.3049,-3.2711,-3.2492,-3.2382,-3.2382,-3.216,-3.1679,-3.1261,-3.0866,-3.0644,-3.0615,-3.0852,-3.1233,-3.0689,-3.0133,0.0,0.0,0.0,0.0,0.0,-3.0251,0.0,0.0,0.0,-3.2368,-3.2724,-3.2872,-3.2877,-3.2976,-3.3492,-3.4844,-3.54,-3.6107,-3.746,-3.9248,-4.0439,-4.0466,-4.0451,-4.0435,-4.0382,-4.0374,-4.0308,-4.0185,-4.0326,-4.0347,-4.0223,-4.0241,-4.0194,-4.0041,-3.9958,-3.9848,-3.9717,-3.9647,-3.9551,-3.9452,-3.9376,-3.929,-3.9156,-3.9156,-3.9129,-3.9045,-3.9045,-3.9017,-3.897,-3.8931,-3.8902,-3.8931,-3.9253,-3.935,-3.9298,-3.9272,-3.9137,-3.8942,-3.8778,-3.8597,-3.846,-3.835,-3.8285,-3.8252,-3.8189,-3.8002,-3.7863,-3.7775,-3.7649,-3.7468,-3.7337,-3.7241,-3.7182,-3.7126,-3.7031,-3.6895,-3.6701,-3.6586,-3.6399,-3.6114,-3.5881,-3.5907,-3.6474,-3.6457,-3.6291,-3.6131,-3.5898,-3.5661,-3.5487,-3.5274,-3.5088,-3.4947,-3.4594,-3.425,-3.3949,-3.3435,-3.2904,-3.2437,-3.212,-3.1853,-3.1754,-3.1567,-3.119,-3.0598,-3.0269,-2.9903,-2.956,-2.9016,-2.9317,-3.0404,-2.9732,-2.9093,0.0,0.0,0.0,0.0,-2.991,0.0,-3.0121,0.0,-3.1371,-3.1531,0.0,-3.2823,-3.2804,0.0,0.0,-3.3102,-3.4424,-3.5502,-3.5695,-3.7231,-3.8375,-3.8496,-3.8515,-3.8526,-3.8518,-3.8515,-3.8458,-3.8323,-3.8975,-3.9304,-3.9174,-3.9775,-4.0041,-3.9829,-3.9693,-3.9575,-3.9452,-3.9317,-3.9264,-3.9237,-3.9183,-3.9101,-3.9017,-3.9017,-3.896,-3.8833,-3.8833,-3.8725,-3.8572,-3.8554,-3.8541,-3.851,-3.8844,-3.895,-3.895,-3.8766,-3.8646,-3.8541,-3.8401,-3.8238,-3.8052,-3.8052,-3.7915,-3.7774,-3.7685,-3.7558,-3.7354,-3.7223,-3.7052,-3.6895,-3.6856,-3.6776,-3.6655,-3.6516,-3.6451,-3.6284,-3.5933,-3.5759,-3.5616,-3.5304,-3.5228,-3.5304,-3.5661,-3.5616,-3.5526,-3.5412,-3.5274,-3.5135,-3.4994,-3.4739,-3.4546,-3.4399,-3.405,-3.371,-3.3398,-3.2742,-3.2191,-3.1838,-3.1278,-3.094,-3.094,-3.0628,-3.0312,-2.9931,-2.9393,-2.8953,-2.8675,-2.7999,-2.813,-2.898,-2.826,-2.7657,0.0,0.0,0.0,0.0,0.0,0.0,-2.9823,-3.0103,-3.0402,-3.0522,0.0,0.0,0.0,0.0,0.0,0.0,-3.2512,-3.3206,-3.3704,-3.4423,-3.5681,-3.7823,-3.8067,-3.808,-3.808,-3.7617,-3.7473,-3.7851,-3.7728,-3.7974,-3.8727,-3.9026,-3.9293,-3.9556,-3.9514,-3.9413,-3.929,-3.9156,-3.9027,-3.8923,-3.8796,-3.8695,-3.859,-3.8523,-3.8428,-3.8318,-3.8234,-3.8168,-3.8101,-3.8068,-3.8,-3.8,-3.8119,-3.8318,-3.8546,-3.8465,-3.8318,-3.8186,-3.8088,-3.7951,-3.7757,-3.7649,-3.754,-3.7429,-3.7337,-3.7108,-3.6873,-3.6771,-3.6492,-3.6241,-3.6241,-3.6054,-3.5907,-3.5803,-3.5749,-3.5616,-3.5407,-3.5224,-3.5008,-3.4691,-3.4448,-3.43,-3.435,-3.4658,-3.4866,-3.4835,-3.4659,-3.4448,-3.4349,-3.4101,-3.3832,-3.3662,-3.3298,-3.2942,-3.2687,-3.212,-3.1667,-3.1321,-3.0718,-3.0237,-2.9931,-2.9484,-2.9016,-2.8583,-2.8117,-2.767,-2.7284,-2.6676,-2.6458,-2.6637,-2.6867,-2.6663,-3.1898,-3.1362,-3.0903,-3.076,-3.0316,-2.9869,-2.9683,-2.9663,-2.9757,-3.0092,-3.0147,0.0,0.0,0.0,0.0,0.0,0.0,-3.1433,-3.2041,-3.2326,-3.3487,-3.6195,-3.6526,-3.6512,-3.6517,-3.595,-3.5875,-3.6621,-3.6283,-3.6654,-3.8096,-3.8309,-3.87,-3.9331,-3.9328,-3.9248,-3.9101,-3.896,-3.8748,-3.8548,-3.8428,-3.8285,-3.8122,-3.8018,-3.7931,-3.7827,-3.7721,-3.7667,-3.7596,-3.7504,-3.7468,-3.7485,-3.7411,-3.7595,-3.7933,-3.802,-3.7933,-3.7792,-3.7685,-3.7594,-3.7392,-3.7259,-3.7182,-3.7087,-3.6952,-3.6673,-3.6367,-3.6259,-3.5898,-3.5543,-3.5543,-3.5345,-3.5161,-3.5115,-3.4975,-3.4849,-3.4691,-3.4497,-3.4184,-3.3866,-3.3626,-3.3382,-3.3224,-3.3745,-3.4134,-3.4134,-3.3933,-3.3729,-3.3626,-3.3366,-3.3102,-3.2911,-3.2586,-3.2272,-3.2007,-3.1552,-3.1073,-3.0478,-2.9903,-2.9331,-2.8839,-2.8376,-2.7855,-2.7258,-2.6812,-2.6414,-2.6,-2.5441,-2.5028,-2.4731,-2.5499,-2.5569,-3.1912,-3.1403,-3.1158,-3.0635,-3.0479,-3.0299,-2.964,-2.955,-2.9832,-3.0618,-3.0827,-3.0865,-3.0865,0.0,0.0,0.0,0.0,0.0,0.0,-3.1618,-3.2279,-3.273,-3.2775,-3.2772,-3.2762,-3.2756,-3.3048,-3.3787,-3.4472,-3.5507,-3.6967,-3.7802,-3.8527,-3.9192,-3.9156,-3.9064,-3.8892,-3.8634,-3.8428,-3.8216,-3.8068,-3.7915,-3.7703,-3.7703,-3.7613,-3.7431,-3.7413,-3.7319,-3.7091,-3.6995,-3.6974,-3.7009,-3.6873,-3.6913,-3.7048,-3.7337,-3.7392,-3.7297,-3.7185,-3.7069,-3.7027,-3.7027,-3.6834,-3.6632,-3.6527,-3.6174,-3.581,-3.5677,-3.5237,-3.4816,-3.4816,-3.4658,-3.4497,-3.4349,-3.4234,-3.405,-3.3658,-3.3366,-3.3124,-3.2749,-3.2641,-3.2602,-3.2453,-3.2958,-3.3346,-3.3245,-3.314,-3.298,-3.2841,-3.2602,-3.2382,-3.213,-3.1879,-3.1667,-3.1537,-3.1102,-3.0341,-2.9226,-2.8753,-2.8274,-2.7617,-2.7351,-2.6879,-2.6183,-2.5836,-2.5429,-2.5004,-2.4504,-2.4166,-2.397,-2.4383,-2.4238,-3.4422,-3.3494,-3.2648,-3.2456,-3.1657,-3.087,-3.0715,-3.0706,-3.0826,-3.1259,-3.1314,-3.1147,-3.0652,0.0,0.0,0.0,0.0,0.0,0.0,-2.9967,-3.0155,-3.0259,-3.145,-3.2278,-3.2316,-3.1842,-3.1862,-3.2581,-3.2842,-3.3623,-3.5114,-3.6005,-3.6795,-3.7458,-3.7822,-3.7974,-3.7772,-3.8063,-3.8,-3.7667,-3.7595,-3.7374,-3.7091,-3.7013,-3.6895,-3.6794,-3.6597,-3.6498,-3.6433,-3.6274,-3.6249,-3.6266,-3.6207,-3.6207,-3.635,-3.6816,-3.6992,-3.6913,-3.6655,-3.6492,-3.6409,-3.6308,-3.6207,-3.6097,-3.5941,-3.5633,-3.5207,-3.5038,-3.4561,-3.4068,-3.4068,-3.3764,-3.3507,-3.3455,-3.3351,-3.3177,-3.2926,-3.2695,-3.2351,-3.2089,-3.1849,-3.1637,-3.148,-3.1652,-3.1921,-3.2281,-3.2241,-3.2018,-3.1792,-3.158,-3.1422,-3.1233,-3.0955,-3.0732,-3.0598,-2.9917,-2.9121,-2.83,-2.7829,-2.7351,-2.6595,-2.6195,-2.5557,-2.4755,-2.4432,-2.4009,-2.3497,-2.3128,-2.2841,-2.2478,-2.2617,-2.2841,-3.5692,-3.4893,-3.3972,-3.3454,-3.2589,-3.1738,-3.1289,-3.1407,-3.166,-3.1813,-3.2034,-3.1905,-3.087,-3.0691,0.0,0.0,0.0,0.0,0.0,-2.8902,-2.8855,-2.8855,-3.0142,-3.1065,-3.1144,-3.0695,-3.0713,-3.1517,-3.1551,-3.2347,-3.4134,-3.476,-3.5509,-3.6463,-3.6793,-3.6991,-3.6971,-3.7246,-3.7292,-3.7206,-3.7087,-3.6834,-3.6574,-3.6392,-3.6284,-3.6174,-3.5985,-3.5837,-3.5688,-3.5537,-3.5493,-3.5493,-3.5448,-3.5448,-3.5582,-3.6224,-3.635,-3.6207,-3.5924,-3.5749,-3.5644,-3.5537,-3.5493,-3.5402,-3.5253,-3.4944,-3.4561,-3.4382,-3.3882,-3.3366,-3.3314,-3.298,-3.2672,-3.2586,-3.2422,-3.2296,-3.2089,-3.1792,-3.1564,-3.1291,-3.1058,-3.0837,-3.0673,-3.0687,-3.0851,-3.145,-3.1392,-3.116,-3.0881,-3.0644,-3.0404,-3.0283,-2.9993,-2.9685,-2.9498,-2.8789,-2.8078,-2.7577,-2.7095,-2.6552,-2.5849,-2.5288,-2.4647,-2.3841,-2.3361,-2.2927,-2.2402,-2.2111,-2.1807,-2.1578,-2.1425,-2.1568]},{"header":{"parameterUnit":"m.s-1","parameterCategory":1,"la1":30.6,"la2":29.2853,"lo1":-89.7004,"lo2":-87.6739,"dy":0.0162,"dx":0.0183,"nx":112,"ny":82,"refTime":"2023-09-20T18:00:00:Z","depth":0,"parameterNumber":3,"parameterNumberName":"V-component_of_WINDS"},"data":[0.0,0.0,0.0,0.0,0.0,0.0,0.0,0.0,0.0,0.0,0.0,0.0,0.0,0.0,0.0,0.0,0.0,0.0,0.0,0.0,0.0,0.0,0.0,0.0,0.0,0.0,0.0,0.0,0.0,0.0,0.0,0.0,0.0,0.0,0.0,0.0,0.0,0.0,0.0,0.0,0.0,0.0,0.0,0.0,0.0,0.0,0.0,0.0,0.0,0.0,0.0,0.0,0.0,0.0,0.0,0.0,0.0,0.0,0.0,0.0,0.0,0.0,0.0,0.0,0.0,0.0,0.0,0.0,0.0,0.0,0.0,0.0,0.0,0.0,0.0,0.0,0.0,0.0,0.0,0.0,0.0,0.0,0.0,0.0,0.0,0.0,0.0,0.0,0.0,0.0,-1.5509,-1.5085,-1.5151,-1.5214,-1.5214,-1.5204,-1.5098,-1.4981,0.0,0.0,0.0,0.0,0.0,0.0,0.0,0.0,0.0,0.0,0.0,0.0,0.0,0.0,0.0,0.0,0.0,0.0,0.0,0.0,0.0,0.0,0.0,0.0,0.0,0.0,0.0,0.0,0.0,0.0,0.0,0.0,0.0,0.0,0.0,0.0,0.0,0.0,0.0,0.0,0.0,0.0,0.0,0.0,0.0,0.0,0.0,0.0,0.0,0.0,0.0,0.0,0.0,0.0,0.0,0.0,0.0,0.0,0.0,0.0,0.0,0.0,0.0,0.0,0.0,0.0,0.0,0.0,0.0,0.0,0.0,0.0,0.0,0.0,0.0,0.0,0.0,0.0,0.0,0.0,0.0,0.0,0.0,0.0,0.0,0.0,0.0,0.0,0.0,0.0,0.0,0.0,0.0,0.0,0.0,0.0,0.0,0.0,0.0,0.0,0.0,0.0,0.0,0.0,-1.5924,-1.611,-1.6167,-1.6177,-1.6177,-1.6033,-1.5853,-1.5729,0.0,0.0,0.0,0.0,0.0,0.0,0.0,0.0,0.0,0.0,0.0,0.0,0.0,0.0,0.0,0.0,0.0,0.0,0.0,0.0,0.0,0.0,0.0,0.0,0.0,0.0,0.0,0.0,0.0,0.0,0.0,0.0,0.0,0.0,0.0,0.0,0.0,0.0,0.0,0.0,0.0,0.0,0.0,0.0,0.0,0.0,0.0,0.0,0.0,0.0,0.0,0.0,0.0,0.0,0.0,0.0,0.0,0.0,0.0,0.0,0.0,0.0,0.0,0.0,0.0,0.0,0.0,0.0,0.0,0.0,0.0,0.0,0.0,0.0,0.0,0.0,0.0,0.0,0.0,0.0,0.0,0.0,0.0,0.0,0.0,0.0,0.0,0.0,0.0,0.0,0.0,0.0,0.0,0.0,0.0,0.0,0.0,0.0,0.0,0.0,0.0,0.0,0.0,-1.5591,-1.5894,-1.6181,-1.6239,-1.6192,-1.6155,-1.5961,-1.5778,-1.5526,-1.4687,0.0,0.0,0.0,0.0,0.0,0.0,0.0,0.0,0.0,0.0,0.0,0.0,0.0,0.0,0.0,0.0,0.0,0.0,0.0,0.0,0.0,0.0,0.0,0.0,0.0,0.0,0.0,0.0,0.0,0.0,0.0,0.0,0.0,0.0,0.0,0.0,0.0,0.0,0.0,0.0,0.0,0.0,0.0,0.0,0.0,0.0,0.0,0.0,0.0,0.0,0.0,0.0,0.0,0.0,0.0,0.0,0.0,0.0,0.0,0.0,0.0,0.0,0.0,0.0,0.0,0.0,0.0,0.0,0.0,0.0,0.0,0.0,0.0,0.0,0.0,0.0,0.0,0.0,0.0,0.0,0.0,0.0,0.0,0.0,0.0,0.0,0.0,0.0,0.0,0.0,0.0,0.0,0.0,0.0,0.0,0.0,0.0,0.0,0.0,0.0,0.0,0.0,-1.543,-1.5662,-1.5941,-1.5999,-1.5951,-1.5788,-1.5614,-1.543,-1.5118,-1.4392,0.0,0.0,0.0,0.0,0.0,0.0,0.0,0.0,0.0,0.0,0.0,0.0,0.0,0.0,0.0,0.0,0.0,0.0,0.0,0.0,0.0,0.0,0.0,0.0,0.0,0.0,0.0,0.0,0.0,0.0,0.0,0.0,0.0,0.0,0.0,0.0,0.0,0.0,0.0,0.0,0.0,0.0,0.0,0.0,0.0,0.0,0.0,0.0,0.0,0.0,0.0,0.0,0.0,0.0,0.0,0.0,0.0,0.0,0.0,0.0,0.0,0.0,0.0,0.0,0.0,0.0,0.0,0.0,0.0,0.0,0.0,0.0,0.0,0.0,0.0,0.0,0.0,0.0,0.0,0.0,0.0,0.0,0.0,0.0,0.0,0.0,0.0,0.0,0.0,0.0,0.0,0.0,0.0,0.0,0.0,0.0,0.0,0.0,0.0,0.0,0.0,0.0,-1.4942,-1.5294,-1.541,-1.5604,-1.5672,-1.5478,-1.5196,-1.4961,-1.4765,-1.3983,0.0,0.0,0.0,0.0,0.0,0.0,0.0,0.0,0.0,0.0,0.0,0.0,0.0,0.0,0.0,0.0,0.0,0.0,0.0,0.0,0.0,0.0,0.0,0.0,0.0,0.0,0.0,0.0,0.0,0.0,0.0,0.0,0.0,0.0,0.0,0.0,0.0,0.0,0.0,0.0,0.0,0.0,0.0,0.0,0.0,0.0,0.0,0.0,0.0,0.0,0.0,0.0,0.0,0.0,0.0,0.0,0.0,0.0,0.0,0.0,0.0,0.0,0.0,0.0,0.0,0.0,0.0,0.0,0.0,0.0,0.0,0.0,0.0,0.0,0.0,0.0,0.0,0.0,0.0,0.0,0.0,0.0,0.0,0.0,0.0,0.0,0.0,0.0,0.0,0.0,0.0,0.0,0.0,0.0,0.0,0.0,0.0,0.0,0.0,0.0,0.0,0.0,-1.4647,-1.4883,-1.5137,-1.5137,-1.501,-1.4824,-1.4606,-1.4428,-1.424,0.0,0.0,0.0,0.0,0.0,0.0,0.0,0.0,0.0,0.0,0.0,0.0,0.0,0.0,0.0,0.0,0.0,0.0,0.0,0.0,0.0,0.0,0.0,0.0,0.0,0.0,0.0,0.0,0.0,0.0,0.0,0.0,0.0,0.0,0.0,0.0,0.0,0.0,0.0,0.0,0.0,0.0,0.0,0.0,0.0,0.0,0.0,0.0,0.0,0.0,0.0,0.0,0.0,0.0,0.0,0.0,0.0,0.0,0.0,0.0,0.0,0.0,0.0,0.0,0.0,0.0,0.0,0.0,0.0,0.0,0.0,0.0,0.0,0.0,0.0,0.0,0.0,0.0,0.0,0.0,0.0,0.0,0.0,0.0,0.0,0.0,0.0,0.0,0.0,0.0,0.0,0.0,0.0,0.0,0.0,0.0,0.0,0.0,0.0,0.0,0.0,0.0,-1.424,-1.43,-1.4419,-1.4675,-1.4656,-1.4538,-1.4359,-1.4249,-1.407,-1.395,0.0,0.0,0.0,0.0,0.0,0.0,0.0,0.0,0.0,0.0,0.0,0.0,0.0,0.0,0.0,0.0,0.0,0.0,0.0,0.0,0.0,0.0,0.0,0.0,0.0,0.0,0.0,0.0,0.0,0.0,0.0,0.0,0.0,0.0,0.0,0.0,0.0,0.0,0.0,0.0,0.0,0.0,0.0,0.0,0.0,0.0,0.0,0.0,0.0,0.0,0.0,0.0,0.0,0.0,0.0,0.0,0.0,0.0,0.0,0.0,0.0,0.0,0.0,0.0,0.0,0.0,0.0,0.0,0.0,0.0,0.0,0.0,0.0,0.0,0.0,0.0,0.0,0.0,0.0,0.0,0.0,0.0,0.0,0.0,0.0,0.0,0.0,0.0,0.0,0.0,0.0,0.0,0.0,0.0,0.0,0.0,0.0,0.0,0.0,0.0,0.0,0.0,-1.383,-1.395,-1.401,-1.401,-1.43,-1.435,-1.401,-1.401,-1.395,0.0,0.0,0.0,0.0,0.0,0.0,0.0,0.0,0.0,0.0,0.0,0.0,0.0,0.0,0.0,0.0,0.0,0.0,0.0,0.0,0.0,0.0,0.0,0.0,0.0,0.0,0.0,0.0,0.0,0.0,0.0,0.0,0.0,0.0,0.0,0.0,0.0,0.0,0.0,0.0,0.0,0.0,0.0,0.0,0.0,0.0,0.0,0.0,0.0,0.0,0.0,0.0,0.0,0.0,0.0,0.0,0.0,0.0,0.0,0.0,0.0,0.0,0.0,0.0,0.0,0.0,0.0,0.0,0.0,0.0,0.0,0.0,0.0,0.0,0.0,0.0,0.0,0.0,0.0,0.0,0.0,0.0,0.0,0.0,0.0,0.0,0.0,0.0,0.0,0.0,0.0,0.0,0.0,0.0,0.0,0.0,0.0,0.0,0.0,0.0,0.0,0.0,0.0,-1.395,-1.389,-1.395,-1.413,-1.4249,-1.4249,-1.413,-1.407,-1.395,-1.383,0.0,0.0,0.0,0.0,0.0,0.0,0.0,0.0,0.0,0.0,0.0,0.0,0.0,0.0,0.0,0.0,0.0,0.0,0.0,0.0,0.0,0.0,0.0,0.0,0.0,0.0,0.0,0.0,0.0,0.0,0.0,0.0,0.0,0.0,0.0,0.0,0.0,0.0,0.0,0.0,0.0,0.0,0.0,0.0,0.0,0.0,0.0,0.0,0.0,0.0,0.0,0.0,0.0,0.0,0.0,0.0,0.0,0.0,0.0,0.0,0.0,0.0,0.0,0.0,0.0,0.0,0.0,0.0,0.0,0.0,0.0,0.0,0.0,0.0,0.0,0.0,0.0,0.0,0.0,0.0,0.0,0.0,0.0,0.0,0.0,0.0,0.0,0.0,0.0,0.0,0.0,0.0,0.0,0.0,0.0,0.0,0.0,0.0,0.0,0.0,0.0,0.0,-1.4139,-1.4019,-1.407,-1.43,-1.4369,-1.4359,-1.43,-1.4189,-1.401,-1.383,0.0,0.0,0.0,0.0,0.0,0.0,0.0,0.0,0.0,0.0,0.0,0.0,0.0,0.0,0.0,0.0,0.0,0.0,0.0,0.0,0.0,0.0,0.0,0.0,0.0,0.0,0.0,0.0,0.0,0.0,0.0,0.0,0.0,0.0,0.0,0.0,0.0,0.0,0.0,0.0,0.0,0.0,0.0,0.0,0.0,0.0,0.0,0.0,0.0,0.0,0.0,0.0,0.0,0.0,0.0,0.0,0.0,0.0,0.0,0.0,0.0,0.0,0.0,0.0,0.0,0.0,0.0,0.0,0.0,0.0,0.0,0.0,0.0,0.0,0.0,0.0,0.0,0.0,0.0,0.0,0.0,0.0,0.0,0.0,0.0,0.0,0.0,0.0,0.0,0.0,0.0,0.0,0.0,0.0,0.0,0.0,0.0,0.0,0.0,0.0,0.0,0.0,-1.4427,-1.4366,-1.4469,-1.4648,-1.4827,-1.4887,-1.4699,-1.4538,-1.4297,-1.3995,0.0,0.0,0.0,0.0,0.0,0.0,0.0,0.0,0.0,0.0,0.0,0.0,0.0,0.0,0.0,0.0,0.0,0.0,0.0,0.0,0.0,0.0,0.0,0.0,0.0,0.0,0.0,0.0,0.0,0.0,0.0,0.0,0.0,0.0,0.0,0.0,0.0,0.0,0.0,0.0,0.0,0.0,0.0,0.0,0.0,0.0,0.0,0.0,0.0,0.0,0.0,0.0,0.0,0.0,0.0,0.0,0.0,0.0,0.0,0.0,-1.54,-1.4629,0.0,0.0,0.0,0.0,0.0,0.0,0.0,0.0,0.0,0.0,0.0,0.0,0.0,0.0,0.0,0.0,0.0,0.0,0.0,0.0,0.0,0.0,0.0,0.0,0.0,0.0,0.0,0.0,0.0,0.0,0.0,0.0,0.0,0.0,0.0,0.0,0.0,0.0,0.0,0.0,-1.5205,-1.5486,-1.5738,-1.6071,-1.6321,-1.6436,-1.6311,-1.5989,-1.5612,-1.5305,-1.4996,0.0,0.0,0.0,0.0,0.0,0.0,0.0,0.0,0.0,0.0,0.0,0.0,0.0,0.0,0.0,0.0,0.0,0.0,0.0,0.0,0.0,0.0,0.0,0.0,0.0,0.0,0.0,0.0,0.0,0.0,0.0,0.0,0.0,0.0,0.0,0.0,0.0,0.0,0.0,0.0,0.0,0.0,0.0,0.0,0.0,0.0,0.0,0.0,0.0,0.0,0.0,0.0,0.0,0.0,0.0,0.0,0.0,0.0,0.0,-1.6924,-1.5801,0.0,0.0,0.0,0.0,0.0,0.0,0.0,0.0,0.0,0.0,0.0,0.0,0.0,0.0,0.0,0.0,0.0,0.0,0.0,0.0,0.0,0.0,0.0,0.0,0.0,0.0,0.0,0.0,0.0,0.0,0.0,0.0,0.0,0.0,0.0,0.0,0.0,0.0,0.0,0.0,-1.5413,-1.5753,-1.6064,-1.6402,-1.6719,-1.6855,-1.6792,-1.6338,-1.601,-1.5689,-1.5375,0.0,0.0,0.0,0.0,0.0,0.0,0.0,0.0,0.0,0.0,0.0,0.0,0.0,0.0,0.0,0.0,0.0,0.0,0.0,0.0,0.0,0.0,0.0,0.0,0.0,0.0,0.0,0.0,0.0,0.0,0.0,0.0,0.0,0.0,0.0,0.0,0.0,0.0,0.0,0.0,0.0,0.0,0.0,0.0,0.0,0.0,0.0,0.0,0.0,0.0,0.0,0.0,0.0,-1.9813,-1.9949,-2.0175,-2.0216,-2.0216,-1.994,-1.8195,-1.6939,-1.6047,-1.5345,0.0,0.0,0.0,0.0,0.0,0.0,0.0,0.0,0.0,0.0,0.0,0.0,0.0,0.0,0.0,0.0,0.0,0.0,0.0,0.0,0.0,0.0,-1.5318,-1.6404,-1.6877,-1.6953,-1.6738,0.0,0.0,0.0,0.0,0.0,0.0,0.0,0.0,0.0,0.0,0.0,-1.5507,-1.5909,-1.6225,-1.6539,-1.6815,-1.6953,-1.6889,-1.6503,-1.6169,-1.5965,-1.5647,-1.5581,0.0,0.0,0.0,0.0,0.0,0.0,0.0,0.0,0.0,0.0,0.0,0.0,0.0,0.0,0.0,0.0,0.0,0.0,0.0,0.0,0.0,0.0,0.0,0.0,0.0,0.0,0.0,0.0,0.0,0.0,0.0,0.0,-1.0299,-1.0938,0.0,0.0,0.0,0.0,0.0,0.0,0.0,0.0,0.0,0.0,0.0,0.0,0.0,-1.7104,-1.7716,-1.9013,-1.9808,-2.0083,-2.0063,-2.0032,-1.9959,-1.9877,-1.9713,-1.933,-1.9187,0.0,-1.7734,-1.6994,0.0,0.0,0.0,0.0,0.0,0.0,0.0,0.0,0.0,0.0,0.0,0.0,0.0,0.0,0.0,0.0,0.0,0.0,0.0,0.0,0.0,0.0,-1.6267,-1.6804,-1.7063,-1.7235,-1.7481,-1.7131,-1.6593,-1.5926,-1.5536,-1.5233,0.0,0.0,0.0,0.0,0.0,0.0,-1.6147,-1.6665,-1.7076,-1.7281,-1.7765,-1.7967,-1.761,-1.7475,-1.7339,-1.7008,-1.6812,-1.6684,-1.6674,-1.6528,0.0,0.0,0.0,0.0,0.0,0.0,0.0,0.0,0.0,0.0,0.0,0.0,0.0,0.0,0.0,0.0,0.0,0.0,0.0,0.0,0.0,0.0,0.0,0.0,0.0,0.0,0.0,0.0,0.0,-1.0516,-1.1622,-1.2194,-1.2318,-1.2248,0.0,0.0,0.0,0.0,0.0,0.0,0.0,0.0,0.0,-1.5443,-1.6756,-1.7752,-1.8493,-1.9548,-2.0311,-2.0612,-2.0527,-2.0527,-2.0462,-2.0151,-1.9915,-1.9753,-1.9611,-1.9117,-1.8392,-1.7636,-1.6573,-1.5375,0.0,0.0,0.0,0.0,-1.418,-1.4302,-1.5447,-1.599,-1.6274,-1.6231,0.0,0.0,0.0,0.0,0.0,0.0,0.0,-1.4762,-1.5476,-1.6536,-1.751,-1.7915,-1.8178,-1.8289,-1.8067,-1.7546,-1.6875,-1.5916,-1.5482,-1.5158,-1.4728,-1.47,0.0,0.0,0.0,-1.5817,-1.6114,-1.6482,-1.6751,-1.6959,-1.7373,-1.7579,-1.7432,-1.7304,-1.7176,-1.7038,-1.676,-1.6621,-1.6751,-1.6673,-1.6383,0.0,0.0,0.0,0.0,0.0,0.0,0.0,0.0,0.0,0.0,0.0,0.0,0.0,0.0,0.0,0.0,0.0,0.0,0.0,0.0,0.0,0.0,0.0,0.0,0.0,0.0,0.0,0.0,-1.1769,-1.2514,-1.3175,-1.3507,-1.3516,0.0,0.0,0.0,0.0,0.0,0.0,-1.43,-1.5088,-1.5666,-1.603,-1.7098,-1.7985,-1.885,-1.9646,-2.0245,-2.0624,-2.0624,-2.0547,-2.0547,-2.0157,-1.9932,-1.9854,-1.9608,-1.9127,-1.8574,-1.7952,-1.7134,-1.6288,-1.5429,-1.4999,-1.4841,-1.5326,-1.5557,-1.5806,-1.681,-1.7352,-1.7532,-1.7335,-1.7234,-1.7075,-1.5935,0.0,0.0,0.0,0.0,-1.561,-1.6378,-1.732,-1.8137,-1.8585,-1.8827,-1.8793,-1.8298,-1.7824,-1.7151,-1.6075,-1.5542,-1.5132,-1.487,-1.4932,0.0,-1.5309,-1.5617,-1.5867,-1.6,-1.614,-1.6342,-1.6473,-1.689,-1.7097,-1.7028,-1.6968,-1.6908,-1.683,-1.6482,-1.6342,-1.6542,-1.6533,-1.6542,-1.6412,0.0,0.0,0.0,0.0,0.0,0.0,0.0,0.0,0.0,0.0,0.0,0.0,0.0,0.0,0.0,0.0,0.0,0.0,0.0,0.0,0.0,0.0,0.0,0.0,0.0,0.0,0.0,0.0,0.0,-1.3931,-1.3978,0.0,0.0,0.0,0.0,-1.4283,-1.4854,-1.5202,-1.5296,-1.5504,-1.5666,-1.588,-1.6693,-1.751,-1.8457,-1.9012,-1.9529,-1.9982,-1.9756,-1.9678,-1.9678,-1.945,-1.9222,-1.9082,-1.9002,-1.8825,-1.8381,-1.8204,-1.772,-1.7098,-1.6478,-1.6323,-1.6613,-1.6757,-1.683,-1.6945,-1.797,-1.8113,-1.7873,-1.8232,-1.7785,-1.6968,-1.6179,-1.5765,0.0,0.0,-1.5736,-1.6323,-1.672,-1.7231,-1.7823,-1.8202,-1.823,-1.8091,-1.8258,-1.7944,-1.7334,-1.6104,-1.5459,-1.5195,-1.5382,0.0,-1.5317,-1.5711,-1.5788,-1.5805,-1.5797,-1.6,-1.6132,-1.6132,-1.6621,-1.683,-1.6673,-1.683,-1.683,-1.6603,-1.6403,-1.6272,-1.6342,-1.6473,-1.6603,-1.6603,-1.6959,0.0,0.0,0.0,0.0,0.0,0.0,0.0,0.0,0.0,0.0,0.0,0.0,0.0,0.0,0.0,0.0,0.0,0.0,0.0,0.0,0.0,0.0,0.0,0.0,0.0,0.0,0.0,0.0,-1.4688,-1.499,0.0,-1.4885,-1.484,-1.4891,-1.5015,-1.5265,-1.5513,-1.5558,-1.5767,-1.6145,-1.6519,-1.6802,-1.7383,-1.8113,-1.8674,-1.9077,-1.9309,-1.9585,-1.976,-1.976,-1.9502,-1.9286,-1.8892,-1.8801,-1.8499,-1.8103,-1.8046,-1.7769,-1.7406,-1.7192,-1.7003,-1.6897,-1.729,-1.7453,-1.7608,-1.8214,-1.8153,-1.794,-1.7811,-1.7208,-1.6482,-1.6387,-1.5912,-1.5475,-1.5498,-1.5867,-1.6297,-1.6673,-1.7338,-1.8013,-1.8482,-1.8491,-1.8437,-1.8406,-1.8038,-1.757,-1.6902,-1.6404,-1.607,-1.6067,-1.6014,-1.5985,-1.6122,-1.6148,-1.6071,-1.5831,-1.5867,-1.5938,-1.5938,-1.6211,-1.6342,-1.6263,-1.6211,-1.6149,-1.607,-1.578,-1.5709,-1.5938,-1.6403,-1.6682,-1.676,-1.7304,-1.7647,0.0,0.0,0.0,0.0,0.0,0.0,0.0,0.0,0.0,0.0,0.0,0.0,0.0,0.0,0.0,0.0,0.0,0.0,0.0,0.0,0.0,0.0,0.0,0.0,0.0,-1.3652,-1.4657,-1.5308,-1.547,-1.5613,-1.5613,-1.549,-1.549,-1.549,-1.5748,-1.5919,-1.5837,-1.6156,-1.6437,-1.6822,-1.6829,-1.711,-1.7771,-1.8213,-1.8465,-1.8715,-1.9153,-1.9333,-1.9333,-1.9247,-1.911,-1.8877,-1.8793,-1.8648,-1.8408,-1.828,-1.8074,-1.7834,-1.7706,-1.7587,-1.7476,-1.7891,-1.7987,-1.7864,-1.7865,-1.7708,-1.7383,-1.7041,-1.6571,-1.6228,-1.6308,-1.5991,-1.5645,-1.5803,-1.6047,-1.6381,-1.6773,-1.7282,-1.7789,-1.8264,-1.8353,-1.8372,-1.8276,-1.8066,-1.7752,-1.7493,-1.7035,-1.6689,-1.6616,-1.6533,-1.6524,-1.6524,-1.6533,-1.6456,-1.6208,-1.6246,-1.6246,-1.6246,-1.6454,-1.6597,-1.6597,-1.6237,-1.602,-1.602,-1.546,-1.5322,-1.577,-1.6193,-1.6542,-1.6908,-1.7579,-1.7998,-1.8076,0.0,0.0,0.0,0.0,0.0,0.0,0.0,0.0,0.0,0.0,0.0,0.0,0.0,0.0,0.0,0.0,0.0,0.0,0.0,0.0,0.0,0.0,0.0,-1.3266,-1.4222,-1.5098,-1.5658,-1.5559,-1.5428,-1.5444,-1.5582,-1.5614,-1.5629,-1.624,-1.6521,-1.6249,-1.6556,-1.6735,-1.6742,-1.6742,-1.6926,-1.7373,-1.7644,-1.7819,-1.808,-1.8324,-1.8403,-1.8403,-1.8679,-1.886,-1.8852,-1.9101,-1.9187,-1.9144,-1.8759,-1.8605,-1.8562,-1.8186,-1.8201,-1.8362,-1.8362,-1.8201,-1.7878,-1.6976,-1.6566,-1.6312,-1.617,-1.6087,-1.6087,-1.6087,-1.6087,-1.6087,-1.6319,-1.6394,-1.6476,-1.6976,-1.7049,-1.7212,-1.7538,-1.77,-1.77,-1.7951,-1.7968,-1.7976,-1.8057,-1.7475,-1.6987,-1.6978,-1.6978,-1.6987,-1.6894,-1.6885,0.0,-1.686,-1.7061,-1.7203,-1.7203,-1.7362,-1.7446,-1.7446,-1.6817,-1.643,-1.643,-1.5589,-1.5255,-1.5692,-1.5922,-1.6298,-1.6945,-1.7832,-1.8309,-1.8309,0.0,0.0,0.0,0.0,0.0,0.0,0.0,0.0,0.0,0.0,0.0,0.0,0.0,0.0,0.0,0.0,0.0,0.0,0.0,0.0,0.0,-1.228,-1.3557,-1.3932,-1.5073,-1.5803,-1.5826,-1.5973,-1.6141,-1.6239,-1.6171,-1.6147,-1.6395,-1.6401,-1.6418,-1.6323,-1.6411,-1.6566,-1.6808,-1.6816,-1.7017,-1.7338,-1.7812,-1.7995,-1.8086,-1.8715,-1.8978,-1.8986,-1.9445,-1.9482,-1.9222,-1.9493,-1.9427,-1.9162,-1.9059,-1.9016,-1.8948,-1.8297,-1.804,-1.8112,-1.7951,-1.7538,-1.6976,-1.6409,-1.6072,-1.5816,-1.5673,-1.5597,-1.5597,-1.5597,-1.5597,-1.559,-1.5824,-1.5899,-1.5982,-1.6327,-1.6484,-1.664,-1.6894,-1.7139,-1.7375,-1.77,-1.8,-1.8277,-1.8442,-1.8502,-1.8377,-1.7933,-1.8118,-1.8046,-1.7425,-1.726,-1.7075,-1.6566,-1.6544,-1.6607,-1.675,-1.6683,-1.6623,-1.6623,-1.5996,-1.5597,-1.5435,-1.5057,-1.5088,-1.5599,-1.6246,-1.7011,-1.7907,-1.8052,-1.7979,0.0,0.0,0.0,0.0,0.0,0.0,0.0,0.0,0.0,0.0,0.0,0.0,0.0,0.0,0.0,0.0,0.0,0.0,0.0,0.0,0.0,0.0,-1.2851,-1.4188,-1.4852,-1.5744,-1.6332,-1.6175,-1.6377,-1.6576,-1.6609,-1.6443,-1.6344,-1.6536,-1.6588,-1.6572,-1.6572,-1.6696,-1.6857,-1.7047,-1.7055,-1.7143,-1.7326,-1.7714,-1.79,-1.79,-1.855,-1.8928,-1.8928,-1.9379,-1.9538,-1.9527,-1.9706,-1.9758,-1.9632,-1.9383,-1.9314,-1.9255,0.0,0.0,0.0,0.0,-1.6886,-1.6237,-1.5831,-1.5582,-1.5416,-1.534,-1.534,-1.5431,-1.5431,-1.5431,-1.5423,-1.5658,-1.5733,-1.5733,-1.5906,-1.5989,-1.6147,-1.6237,-1.6586,-1.702,-1.7425,-1.7895,-1.8329,-1.8583,-1.8887,0.0,-1.8423,-1.8518,-1.8399,-1.7656,-1.7464,-1.7255,-1.6798,-1.6846,-1.696,-1.7121,-1.7049,-1.6968,-1.6879,-1.623,0.0,0.0,0.0,-1.5395,-1.6268,-1.6966,0.0,0.0,0.0,-1.7979,-1.7421,-1.6902,0.0,0.0,-1.7099,-1.7305,0.0,0.0,0.0,0.0,0.0,0.0,0.0,0.0,0.0,0.0,0.0,0.0,0.0,0.0,0.0,0.0,-1.3274,-1.4767,-1.572,-1.6238,-1.6604,-1.6574,-1.6643,-1.6742,-1.6691,-1.6603,-1.644,-1.6469,-1.6748,-1.6908,-1.6908,-1.7172,0.0,0.0,0.0,-1.7384,-1.7384,-1.7623,-1.7834,-1.7834,-1.831,-1.8575,-1.8536,-1.8983,-1.9328,-1.9587,-1.9845,-2.0019,-2.0266,-1.9656,-1.9432,-1.939,-1.916,-1.8871,-1.8363,-1.721,-1.6322,-1.5627,-1.5216,0.0,0.0,-1.509,-1.5257,-1.5347,-1.5431,-1.5431,-1.5423,-1.5658,-1.565,-1.565,-1.565,-1.568,-1.5619,-1.5619,-1.6032,-1.6614,-1.7032,-1.7572,-1.8191,-1.8634,-1.8924,-1.8905,-1.8636,-1.8451,-1.8224,-1.7699,-1.7404,-1.7213,-1.7117,-1.7247,-1.7486,-1.7763,-1.7763,0.0,-1.7478,-1.6888,-1.6455,-1.6183,-1.5835,-1.6067,-1.7179,-1.7826,-1.8322,-1.8726,-1.8475,-1.7971,-1.7012,-1.6701,-1.6469,-1.6292,-1.6566,-1.6911,0.0,0.0,0.0,0.0,0.0,0.0,0.0,0.0,0.0,0.0,0.0,0.0,0.0,0.0,0.0,-1.2087,-1.3399,-1.4523,-1.5287,-1.6059,-1.6587,-1.6668,-1.669,-1.6743,-1.6831,-1.6853,-1.6865,-1.7121,-1.7201,-1.7238,-1.7238,-1.7296,-1.7326,-1.7326,-1.7582,-1.7721,-1.7721,-1.8193,-1.8529,-1.8529,-1.8813,0.0,-1.8855,-1.9154,-1.9386,-1.9587,-1.9845,-2.0019,-2.0283,-1.9943,-1.9546,-1.9199,-1.8721,-1.8423,-1.8099,-1.7235,-1.6526,-1.5789,-1.5369,-1.5036,-1.4824,-1.5006,-1.509,-1.5173,-1.5347,-1.5431,0.0,-1.5658,-1.5582,-1.5423,-1.5484,-1.5331,-1.5183,-1.5183,-1.551,-1.5913,-1.6338,-1.7055,-1.7842,-1.8289,-1.8839,-1.8991,-1.8525,-1.8462,-1.814,-1.722,-1.6832,-1.6483,-1.6106,-1.6156,-1.6264,-1.6521,-1.6632,-1.6639,-1.6529,-1.6094,-1.5747,-1.55,-1.5867,-1.6411,-1.7039,-1.7728,-1.8079,-1.8165,-1.7985,-1.7696,-1.7298,-1.6875,-1.6703,-1.686,-1.6304,-1.6588,0.0,0.0,0.0,0.0,0.0,0.0,0.0,0.0,0.0,0.0,0.0,-0.8526,0.0,0.0,-1.1235,-1.2435,-1.3619,-1.4702,-1.5429,-1.6253,-1.6805,-1.6839,-1.6936,-1.7007,-1.7077,-1.7091,-1.7157,-1.7318,-1.7326,-1.7326,-1.7326,-1.7326,-1.7399,-1.7567,-1.7728,-1.7889,-1.8057,-1.8331,-1.8511,-1.8511,-1.8807,-1.8829,-1.8773,-1.8964,-1.9255,-1.9587,-1.9671,-1.9936,-2.0292,-1.9654,-1.9104,-1.8603,-1.806,-1.7827,-1.7752,-1.6949,-1.6257,-1.5689,-1.5258,-1.5081,-1.5037,-1.5296,-1.5469,-1.5555,-1.5813,-1.5899,-1.587,-1.5786,-1.586,-1.5769,-1.5432,-1.5275,-1.5068,-1.4716,-1.4854,-1.515,-1.5513,-1.6296,-1.7176,-1.801,-1.8341,-1.8458,-1.8257,-1.7792,-1.7318,-1.6662,-1.6161,-1.5785,-1.5591,-1.5749,-1.5929,-1.619,-1.6394,-1.6401,-1.6218,-1.5936,-1.5667,-1.5773,-1.6218,-1.6661,-1.7115,-1.7756,-1.8026,-1.8026,-1.8108,-1.785,-1.7331,-1.6974,-1.6714,-1.6455,-1.5963,-1.6163,0.0,0.0,0.0,0.0,0.0,0.0,0.0,0.0,-0.8523,-0.889,-0.9082,-0.9476,-1.0194,-1.0916,-1.1695,-1.2791,-1.3945,-1.5,-1.5742,-1.6528,-1.6973,-1.6982,-1.7172,-1.7326,-1.7326,-1.7326,-1.7326,-1.7326,-1.7326,-1.7326,-1.7326,-1.7391,-1.7545,-1.7808,-1.794,-1.813,-1.8394,-1.846,-1.8489,-1.8496,-1.8703,-1.8829,-1.8789,-1.8897,-1.9162,-1.9594,-1.952,-1.9662,-1.9828,-1.9004,-1.8265,-1.78,-1.7326,-1.7265,-1.7273,-1.6645,-1.6067,-1.5673,-1.5224,-1.5197,-1.5322,-1.5582,-1.5761,-1.6027,-1.6197,-1.6367,-1.6316,-1.6074,-1.6177,-1.622,-1.5531,-1.5341,-1.5113,-1.4391,-1.4425,-1.4621,-1.472,-1.5457,-1.6379,-1.752,-1.7714,-1.7714,-1.79,-1.7145,-1.6386,-1.6096,-1.5629,-1.5248,-1.5153,-1.5445,-1.573,-1.5913,-1.6204,-1.6305,-1.6123,-1.5927,-1.5927,-1.6123,-1.6407,-1.6683,-1.7052,-1.752,-1.7807,-1.7807,-1.7986,-1.7757,-1.7044,-1.6854,-1.645,-1.5937,-1.5687,-1.5853,-0.9798,-0.9716,-0.946,-0.9304,-0.938,-0.9541,0.0,0.0,-0.9867,-1.0025,-1.0309,-1.0611,-1.1128,-1.1796,-1.256,-1.3345,-1.4163,-1.5019,-1.6048,-1.6466,-1.6756,-1.7188,-1.7311,-1.7326,-1.7326,-1.7326,-1.7326,-1.7326,-1.7326,-1.7326,-1.7326,-1.7604,-1.7779,-1.7816,-1.8379,-1.8694,-1.873,-1.9023,-1.9169,-1.9169,-1.9273,-1.9308,-1.9483,-1.9178,-1.9341,-1.9649,-1.9333,-1.8996,-1.8527,-1.8064,-1.7419,-1.6777,-1.6676,-1.6553,-1.6324,-1.6483,-1.6223,-1.5732,-1.5443,-1.5177,-1.5053,-1.5322,-1.5493,-1.5754,-1.5938,-1.6197,-1.636,-1.6323,-1.6345,-1.6271,-1.58,-1.5479,-1.5147,-1.4415,-1.4245,-1.425,-1.4052,-1.4841,-1.5622,-1.6285,-1.6951,-1.7333,-1.7167,-1.6676,-1.6096,-1.5527,-1.5064,-1.4688,-1.449,-1.4688,-1.4885,-1.5172,-1.5452,-1.5635,-1.5832,-1.5832,-1.5832,-1.5832,-1.6123,-1.6319,-1.6312,-1.6588,-1.677,-1.677,-1.677,-1.6655,-1.6331,-1.6331,-1.6129,-1.5819,-1.5458,-1.5631,-1.0568,-1.0616,0.0,0.0,-1.0419,-1.0419,-1.0419,-1.0611,-1.0783,-1.1094,-1.1321,-1.1642,-1.2167,-1.2549,-1.3197,0.0,-1.4702,-1.5439,-1.6298,-1.6683,-1.6965,-1.7239,-1.7326,-1.7326,-1.7326,-1.7326,-1.7326,-1.7326,-1.7326,-1.7413,-1.7604,-1.7743,-1.7991,-1.8372,-1.865,-1.8877,-1.9067,-1.9206,-1.9279,-1.9279,-1.9279,-1.931,-1.9388,-1.936,-1.9396,-1.9423,-1.897,-1.8434,-1.7971,-1.7326,-1.6669,-1.6116,-1.5832,-1.5737,-1.5818,-1.6211,-1.6236,-1.5946,-1.5745,-1.5571,-1.5471,-1.5756,-1.5941,-1.6026,-1.6296,-1.6571,-1.6726,-1.653,-1.6701,-1.6795,-1.607,-1.5787,-1.5363,-1.4508,-1.4028,-1.3727,-1.3528,-1.4004,-1.4765,-1.5622,-1.6103,-1.6487,-1.6487,-1.6103,-1.5527,-1.5064,-1.4682,-1.4394,-1.4298,-1.4496,-1.4879,-1.5261,-1.5547,-1.573,-1.5825,-1.5832,-1.5832,-1.5832,-1.5927,-1.5933,-1.5933,-1.6116,-1.6015,-1.5913,-1.5913,-1.5818,-1.5527,-1.5242,-1.5057,-1.4962,-1.4456,-1.4434,-1.102,0.0,0.0,-1.1209,-1.1182,-1.1198,-1.1262,-1.1413,-1.1569,-1.1677,-1.1887,-1.2173,-1.2662,-1.3065,-1.359,-1.4634,-1.5203,-1.5818,-1.6588,-1.6878,-1.7066,-1.7239,-1.7326,-1.7326,-1.7326,-1.7326,-1.7326,-1.7326,-1.7413,-1.7567,-1.7801,-1.7984,-1.8299,-1.8774,-1.8877,-1.9038,-1.9272,-1.9279,-1.9279,-1.9279,-1.9279,-1.9354,-1.9314,-1.9542,-1.9483,-1.9192,-1.844,-1.7819,-1.7341,-1.6609,-1.592,-1.5452,-1.5172,-1.5172,-1.5452,-1.5832,-1.6028,-1.6028,-1.5832,-1.5832,-1.5832,-1.6028,-1.6123,-1.6123,-1.6305,-1.6588,-1.6734,-1.66,-1.6879,-1.7095,-1.6401,-1.604,-1.554,-1.4586,-1.3919,-1.3443,-1.3055,-1.3431,-1.4004,-1.4962,-1.5343,-1.573,-1.5906,-1.5629,-1.5159,-1.4783,-1.4496,-1.4298,-1.4298,-1.4496,-1.4879,-1.5356,-1.5547,-1.573,-1.5832,-1.5832,-1.5832,-1.5832,-1.5737,-1.5635,-1.5642,-1.5445,-1.5248,-1.4956,-1.4854,-1.4663,-1.4567,-1.4094,-1.3908,-1.3913,-1.3522,-1.3329,-1.1273,0.0,-1.1402,-1.1623,-1.1677,-1.1736,-1.2053,-1.2113,-1.1962,-1.1747,-1.1887,-1.2161,-1.2388,-1.3014,-1.3906,-1.4842,-1.545,-1.6116,-1.6885,-1.6979,-1.7066,-1.7239,-1.7326,-1.7326,0.0,-1.7326,-1.7326,-1.7326,-1.7618,-1.7801,-1.7816,-1.8416,-1.8767,-1.8789,-1.9096,-1.9264,-1.9279,-1.9279,-1.9279,-1.9279,-1.9279,-1.9472,-1.965,-1.9649,-1.9407,-1.895,-1.7925,-1.7105,-1.6594,-1.5734,-1.5159,-1.4783,-1.4981,-1.5083,-1.5178,-1.5452,-1.5635,-1.5832,-1.5832,-1.5832,-1.5832,-1.5832,-1.5832,-1.5832,-1.5825,-1.6008,-1.6292,-1.6574,-1.6777,-1.6972,-1.6669,-1.6197,-1.554,-1.4586,-1.3919,-1.3346,-1.2958,-1.3152,-1.363,-1.4202,-1.4771,-1.5146,-1.5432,-1.5261,-1.4987,-1.479,-1.4496,-1.4298,-1.4298,-1.4496,-1.479,-1.5083,-1.5356,-1.5635,-1.5737,-1.5832,-1.5832,-1.5832,-1.5635,-1.5356,-1.5083,-1.4592,-1.4202,-1.3902,-1.3414,-1.3216,-1.3119,-1.2926,-1.2743,-1.2861,-1.2861,-1.2662,-1.1429,0.0,-1.1639,-1.1876,-1.193,-1.1951,-1.2124,-1.214,-1.2118,-1.1946,-1.2086,-1.2296,-1.2762,-1.3253,-1.3976,-1.5344,-1.5841,-1.635,-1.7117,-1.7246,-1.7239,-1.7333,-1.7523,0.0,0.0,0.0,0.0,-1.7655,-1.7955,-1.8233,-1.8445,-1.8672,-1.8884,-1.9103,-1.922,-1.9279,-1.9279,-1.9279,-1.9279,-1.9279,-1.9279,-1.948,-1.9665,-1.9241,-1.9033,-1.8807,-1.769,-1.6938,-1.635,-1.557,-1.5042,-1.4688,-1.4592,-1.4694,-1.4885,-1.5172,-1.5356,-1.5635,-1.5737,-1.5832,-1.5832,-1.5832,-1.573,-1.5635,-1.5635,-1.5629,-1.5724,-1.6015,-1.64,-1.6683,-1.6407,-1.6021,-1.554,-1.4586,-1.3919,-1.3346,-1.2861,-1.3055,-1.334,-1.3727,-1.41,-1.4286,-1.4382,-1.4388,-1.4298,-1.4214,-1.4208,-1.4298,-1.4298,-1.4496,-1.4688,-1.479,-1.5261,-1.554,-1.5635,-1.5737,-1.573,-1.5635,-1.5356,-1.507,-1.4592,-1.4004,-1.3522,-1.2948,-1.2554,-1.2165,-1.1873,-1.158,-1.1482,-1.1487,-1.1292,-1.1292,-1.1553,-1.1758,-1.1881,-1.2118,-1.2178,-1.2178,-1.2178,-1.2178,-1.2129,-1.1957,-1.1855,-1.2042,-1.2568,-1.2986,-1.3754,-1.5293,-1.5889,-1.6416,-1.7188,-1.7326,-1.7369,-1.7486,-1.7691,-1.786,0.0,0.0,0.0,-1.7999,-1.8291,-1.8562,-1.8774,-1.8899,-1.906,-1.9264,-1.9279,-1.9279,-1.9279,-1.9279,-1.9279,-1.9175,-1.9063,-1.916,-1.9354,-1.8839,-1.865,-1.8628,-1.7509,-1.6767,-1.6268,-1.5375,-1.49,-1.4637,-1.443,-1.449,-1.4688,-1.4981,-1.5267,-1.554,-1.573,-1.5832,-1.5832,-1.5832,-1.5642,-1.5356,-1.5261,-1.5159,-1.5057,-1.5255,-1.573,-1.6109,-1.5927,-1.5825,-1.5439,-1.449,-1.3919,-1.3346,-1.2861,-1.2861,-1.3055,-1.3346,-1.3534,-1.3619,-1.3721,-1.3721,-1.3727,-1.3738,-1.4022,-1.4202,-1.4298,-1.449,-1.4592,-1.4688,-1.507,-1.5356,-1.5445,-1.5635,-1.554,-1.5255,-1.4879,-1.44,-1.3624,-1.313,-1.2554,-1.1883,-1.1487,-1.1194,-1.09,-1.0507,-1.0408,-1.0507,-1.0216,-1.0216,-1.165,-1.1887,-1.2124,-1.2371,-1.2425,-1.2414,-1.2414,-1.2393,-1.2248,-1.1774,-1.1494,-1.1428,0.0,0.0,-1.3291,-1.4702,-1.561,-1.6388,-1.7166,-1.7318,-1.745,0.0,0.0,0.0,0.0,0.0,0.0,-1.8379,-1.8642,-1.8811,-1.8811,-1.9111,-1.9279,-1.9279,-1.9279,-1.9279,-1.9279,-1.9279,-1.9175,-1.8876,-1.8534,-1.8527,-1.8722,-1.8527,-1.8318,-1.8304,-1.7198,-1.6549,-1.6175,-1.5163,-1.4739,-1.469,-1.4425,-1.4502,-1.4694,-1.4987,-1.5267,-1.554,-1.573,-1.5825,-1.5832,-1.5832,-1.5452,-1.5083,-1.479,-1.4496,-1.4298,-1.4298,-1.4771,-1.5337,-1.5337,-1.5343,-1.5153,-1.449,-1.3823,-1.3346,-1.2861,-1.2764,-1.2861,-1.305,-1.305,-1.3147,-1.3443,-1.3443,-1.3443,-1.3443,-1.3738,-1.3925,-1.4202,-1.4298,-1.4394,-1.4688,-1.4892,-1.5172,-1.5445,-1.5445,-1.5159,-1.4688,-1.41,-1.3329,-1.237,-1.1785,-1.1292,-1.0703,-1.0216,-1.0019,-1.0314,-0.9821,-0.9628,-0.992,-0.9628,-0.9529,-1.1849,-1.2134,-1.2377,-1.2614,-1.2544,-1.2414,-1.2414,-1.214,-1.1801,-1.1499,-1.1246,-1.1171,0.0,0.0,0.0,-1.4389,-1.529,0.0,-1.693,-1.7179,0.0,-1.7772,0.0,-1.8306,-1.8635,-1.8957,0.0,0.0,-1.9103,-1.9147,-1.9147,-1.9228,-1.9279,-1.9279,-1.9279,-1.9279,-1.9279,-1.9078,-1.8757,-1.8233,-1.8122,-1.801,-1.7891,-1.7793,-1.7694,-1.7483,-1.6983,-1.6409,-1.6012,-1.5457,-1.5071,-1.4708,-1.4636,-1.4485,-1.4394,-1.4688,-1.4981,-1.5267,-1.5452,-1.5635,-1.5832,-1.5832,-1.5642,-1.5356,-1.4879,-1.4394,-1.3998,-1.3806,-1.41,-1.458,-1.458,-1.4777,-1.4682,-1.3902,-1.3426,-1.305,-1.2565,-1.2667,-1.2861,-1.2861,-1.2856,-1.2861,-1.2958,-1.2958,-1.3055,-1.3147,-1.3249,-1.3443,-1.3925,-1.4208,-1.4298,-1.4394,-1.4688,-1.4783,-1.4586,-1.4586,-1.4292,-1.3516,-1.3039,-1.2268,-1.1292,-1.09,-1.031,-0.932,-0.9327,-0.9133,-0.863,-0.8634,-0.8634,-0.8535,-0.823,-0.8127,-1.1973,-1.2301,-1.2603,-1.2732,-1.2587,-1.2388,-1.228,-1.1887,-1.1478,-1.1241,-1.0918,0.0,-1.1226,-1.1712,0.0,0.0,0.0,0.0,-1.6769,-1.7011,-1.7347,0.0,-1.8196,0.0,-1.8957,-1.9169,-1.9279,0.0,-1.9279,-1.9279,-1.9279,-1.9279,-1.9279,-1.9279,-1.9279,-1.9168,-1.8952,-1.8443,-1.7911,-1.7483,-1.7166,-1.6955,-1.6842,-1.6842,-1.6736,-1.6643,-1.6418,-1.6231,-1.5878,-1.5652,-1.5324,-1.5034,-1.4805,-1.4618,-1.4467,-1.4641,-1.4885,-1.5178,-1.5452,-1.5635,-1.5832,-1.5832,-1.5547,-1.5261,-1.4688,-1.4106,-1.3426,-1.2937,-1.3232,-1.3624,-1.3528,-1.3817,-1.4004,-1.3323,-1.3044,-1.2856,-1.237,-1.2467,-1.2667,-1.2764,-1.2764,-1.2764,-1.2764,-1.2662,-1.2662,-1.2759,-1.2759,-1.2953,-1.3352,-1.3727,-1.4016,-1.4112,-1.4106,-1.41,-1.3998,-1.3709,-1.3318,-1.2533,-1.1965,-1.1194,-1.001,-0.962,-0.9122,-0.8326,-0.8333,-0.8137,-0.7637,-0.7537,-0.7434,-0.7338,-0.6933,-0.6734,-1.214,-1.2398,-1.2754,-1.2727,-1.2538,-1.2296,-1.2016,-1.1618,-1.1225,-1.095,0.0,-1.0361,-1.0712,-1.1289,-1.2107,-1.3487,0.0,-1.5362,-1.6667,-1.6828,-1.7216,-1.8189,-1.8299,-1.8555,-1.9213,-1.9279,-1.9279,-1.9279,-1.9279,-1.9279,-1.9279,-1.9279,-1.9279,-1.9279,-1.9279,-1.8959,-1.8213,-1.7595,-1.6955,-1.6518,-1.6099,-1.5779,-1.5785,-1.5785,-1.5785,-1.5785,-1.5785,-1.5785,-1.5873,-1.5644,-1.5529,-1.5451,-1.4962,-1.4745,-1.4684,-1.4697,-1.479,-1.5083,-1.5356,-1.5547,-1.573,-1.5825,-1.5547,-1.5077,-1.449,-1.3721,-1.2948,-1.217,-1.2273,-1.2662,-1.237,-1.2845,-1.3227,-1.2754,-1.2662,-1.2565,-1.2078,-1.2175,-1.2467,-1.2764,-1.2764,-1.2764,-1.2764,-1.257,-1.237,-1.237,-1.2273,-1.237,-1.2667,-1.3152,-1.3539,-1.3738,-1.3528,-1.3323,-1.3227,-1.2732,-1.2145,-1.1365,-1.0792,-0.9912,-0.8627,-0.8329,-0.7932,-0.7332,-0.7135,-0.6936,-0.6836,-0.6437,-0.6237,-0.6137,-0.5636,-0.5436,-1.214,-1.2398,-1.2716,-1.2522,-1.2291,-1.2,-1.1569,-1.1252,0.0,0.0,-1.0347,-1.0307,-1.0323,-1.1229,-1.2184,-1.3008,0.0,0.0,0.0,0.0,-1.7216,0.0,0.0,0.0,0.0,-1.9279,0.0,0.0,-1.8974,-1.9078,-1.9279,-1.9279,-1.9175,-1.8974,-1.8974,-1.8443,-1.7384,-1.7279,-1.6743,-1.5666,-1.5565,-1.5458,-1.5143,-1.5143,-1.5143,-1.5143,-1.5143,-1.5256,-1.5583,-1.5535,-1.5493,-1.5469,-1.5161,-1.4908,-1.4684,-1.4401,-1.4496,-1.479,-1.5077,-1.5363,-1.554,-1.5737,-1.573,-1.5547,-1.4586,-1.3908,-1.3227,-1.1975,-1.1883,-1.2078,-1.1785,-1.217,-1.2462,-1.217,-1.2175,-1.2078,-1.1785,-1.2078,-1.2467,-1.2764,-1.2764,-1.2764,-1.2764,-1.257,-1.2273,-1.2078,-1.1883,-1.1883,-1.2078,-1.2759,-1.3147,-1.3249,-1.305,-1.2662,-1.1975,-1.1482,-1.0792,-0.9998,-0.9414,-0.8627,-0.7534,-0.7232,-0.6634,-0.5639,-0.5837,-0.5634,-0.5236,-0.5338,-0.5338,-0.5035,-0.4736,-0.464,-1.1865,-1.2124,-1.2366,-1.2253,-1.2043,-1.1774,-1.1429,0.0,0.0,0.0,-1.0191,-1.0138,-1.0165,0.0,0.0,0.0,0.0,0.0,0.0,0.0,0.0,0.0,0.0,0.0,0.0,-1.9071,-1.8862,-1.8443,-1.8443,-1.8548,-1.8848,-1.8848,-1.875,-1.8443,-1.8128,-1.7602,-1.6749,-1.6318,-1.5678,-1.503,-1.4928,-1.4719,-1.4617,-1.4617,-1.4617,-1.4617,-1.4713,-1.4928,-1.5041,-1.5374,-1.5512,-1.5475,-1.5317,-1.5149,-1.489,-1.4618,-1.4618,-1.4694,-1.4885,-1.5077,-1.5267,-1.5363,-1.5458,-1.5261,-1.449,-1.3721,-1.2851,-1.1683,-1.1389,-1.1292,-1.09,-1.1194,-1.1492,-1.1194,-1.1292,-1.1394,-1.159,-1.1878,-1.2273,-1.257,-1.2662,-1.2764,-1.2667,-1.2273,-1.1883,-1.1487,-1.0895,-1.0699,-1.09,-1.1189,-1.1575,-1.2462,-1.2078,-1.1585,-1.0998,-1.0314,-0.9719,-0.9019,-0.8425,-0.773,-0.6639,-0.6034,-0.5434,-0.4636,-0.4435,-0.4234,-0.3932,-0.3932,-0.3932,-0.3729,-0.353,-0.3328,-1.1682,-1.1871,-1.2129,-1.1989,-1.1838,-1.1612,-1.1187,-1.0824,0.0,0.0,-1.0056,-0.9916,-1.0143,0.0,-1.1182,0.0,-1.3035,0.0,0.0,0.0,0.0,0.0,0.0,0.0,0.0,-1.8722,0.0,-1.7911,-1.7701,-1.7799,-1.8213,-1.8213,-1.8108,-1.7694,-1.7279,-1.6749,-1.6004,-1.5357,-1.4826,-1.4498,-1.4299,-1.4196,-1.4196,-1.4196,-1.4196,-1.4191,-1.4396,-1.4498,-1.4606,-1.5154,-1.5374,-1.5458,-1.5398,-1.5336,-1.5077,-1.4712,-1.4545,-1.4502,-1.4496,-1.4688,-1.4885,-1.4885,-1.4981,-1.4885,-1.4298,-1.3528,-1.2565,-1.1389,-1.0998,-1.0703,-1.0117,-1.0314,-1.0703,-1.0413,-1.0609,-1.09,-1.1389,-1.1688,-1.198,-1.2273,-1.2467,-1.2565,-1.237,-1.178,-1.1292,-1.0699,-0.9908,-0.9513,-0.962,-0.9517,-0.9805,-1.1091,-1.0797,-1.0408,-1.0113,-0.9426,-0.8836,-0.8237,-0.7633,-0.6836,-0.5739,-0.4935,-0.4232,-0.363,-0.3229,-0.3029,-0.3029,-0.2826,-0.2725,-0.2724,-0.2422,-0.2219,-1.1639,-1.1871,-1.1995,-1.1785,-1.1715,-1.1526,-1.0853,0.0,0.0,-1.0051,-0.9938,-0.9922,-0.9916,-1.0478,-1.1105,-1.1617,-1.267,-1.3714,0.0,0.0,0.0,0.0,0.0,0.0,0.0,-1.806,-1.7589,-1.7285,-1.653,-1.6524,-1.7582,-1.7687,-1.7371,-1.6842,-1.673,-1.6205,-1.5148,-1.5041,-1.4719,-1.4191,-1.4191,-1.4196,-1.4196,-1.4196,-1.4196,-1.4196,-1.4196,-1.4401,-1.4606,-1.4713,-1.5041,-1.5458,-1.5182,-1.513,-1.5077,-1.4512,-1.4148,-1.3925,-1.401,-1.41,-1.4394,-1.4394,-1.4496,-1.4592,-1.3806,-1.3136,-1.2462,-1.1194,-1.0806,-1.0703,-1.0117,-1.0216,-1.0413,-1.0413,-1.0609,-1.09,-1.1194,-1.1487,-1.1683,-1.1975,-1.2078,-1.2078,-1.2078,-1.1389,-1.0703,-1.0199,-0.9414,-0.8825,-0.8531,-0.8531,-0.8531,-0.8726,-0.9316,-0.9509,-0.9023,-0.863,-0.8237,-0.7743,-0.6939,-0.6034,-0.4935,-0.4131,-0.3327,-0.2522,-0.2522,-0.2522,-0.2522,-0.2422,-0.2422,-0.2422,-0.2118,-0.1916,-1.1424,-1.1558,-1.1607,-1.1515,-1.1375,-1.116,-1.0735,0.0,-1.0331,-0.9992,-0.9922,-0.9922,-0.9922,-1.0225,-1.0642,-1.1177,-1.1982,0.0,0.0,0.0,0.0,0.0,0.0,0.0,0.0,0.0,-1.6663,-1.6193,-1.5678,-1.5571,-1.5992,-1.6418,-1.6418,-1.5986,-1.5779,-1.5351,-1.4821,-1.4611,-1.4407,-1.4196,-1.4196,-1.4196,-1.4196,-1.4196,-1.4196,-1.4196,-1.4196,-1.4299,-1.4401,-1.4498,-1.4821,-1.525,-1.5252,-1.5169,-1.4784,-1.4583,-1.408,-1.3443,-1.363,-1.363,-1.3624,-1.3624,-1.3437,-1.3238,-1.3039,-1.2554,-1.1878,-1.0801,-1.0413,-1.0216,-0.9826,-0.9821,-0.992,-1.0117,-1.0216,-1.0413,-1.09,-1.1194,-1.1487,-1.1683,-1.1883,-1.1883,-1.1389,-1.0699,-1.0002,-0.8913,-0.8226,-0.7733,-0.7437,-0.7441,-0.754,-0.7633,-0.823,-0.8528,-0.8127,-0.7832,-0.7437,-0.6939,-0.6237,-0.5436,-0.4332,-0.3528,-0.2724,-0.1919,-0.1716,-0.1615,-0.1414,-0.1615,-0.1615,-0.1414,-0.1312,-0.1009,-1.1091,-1.1209,-1.1246,-1.1262,-1.1112,-1.0907,0.0,0.0,-1.0223,-0.997,-0.9922,-0.9922,-0.9922,-0.9992,-1.0301,-1.0784,-1.1423,-1.2065,-1.2937,0.0,0.0,0.0,0.0,-1.5881,0.0,-1.6037,-1.5686,-1.5013,-1.4713,-1.4611,-1.4504,-1.4928,-1.5137,-1.5244,-1.5035,-1.4713,-1.4504,-1.4293,-1.4196,-1.4196,-1.4196,-1.4196,-1.4196,-1.4196,-1.4196,-1.4196,-1.4196,-1.4196,-1.4191,-1.4401,-1.4719,-1.5041,-1.5261,-1.5048,-1.4695,-1.4485,-1.3768,-1.2856,-1.2953,-1.2856,-1.2759,-1.2559,-1.2268,-1.2078,-1.1975,-1.1683,-1.1194,-1.0413,-1.0019,-0.9821,-0.9628,-0.9628,-0.9628,-0.9821,-0.992,-1.0117,-1.0511,-1.0806,-1.1002,-1.1194,-1.1292,-1.1194,-1.06,-0.9903,-0.9011,-0.7925,-0.7232,-0.6739,-0.6542,-0.6542,-0.6642,-0.6939,-0.7338,-0.7537,-0.7531,-0.7235,-0.6839,-0.6339,-0.5634,-0.4732,-0.3731,-0.2825,-0.212,-0.1415,-0.1212,-0.101,-0.0808,-0.101,-0.0909,-0.0707,-0.0505,0.0101,-1.0596,-1.0995,-1.1289,-1.1047,-1.0988,-1.0864,0.0,-1.0299,-1.0223,-0.997,-0.9922,-0.9922,-0.9922,-0.9922,-1.0079,-1.0562,-1.0965,-1.145,-1.1952,0.0,0.0,0.0,0.0,-1.471,-1.5444,-1.5258,-1.4606,-1.3748,-1.3753,-1.364,-1.3315,-1.3315,-1.3743,-1.4606,-1.4606,-1.4504,-1.4196,-1.4196,-1.4196,-1.4196,-1.4196,-1.4196,-1.4196,-1.4196,-1.4196,-1.4196,-1.4196,-1.4196,-1.4196,-1.4196,-1.4509,-1.5041,-1.5041,-1.4832,-1.4593,-1.4072,-1.3257,-1.237,-1.1785,-1.178,-1.1883,-1.1389,-1.1198,-1.1096,-1.0314,-1.0413,-1.0609,-0.9821,-0.9628,-0.9628,-0.9628,-0.9628,-0.9628,-0.9628,-0.9826,-1.0019,-1.0019,-1.0216,-1.0413,-1.0413,-1.0216,-0.9916,-0.971,-0.8715,-0.7826,-0.7335,-0.6539,-0.6042,-0.6042,-0.6042,-0.6139,-0.6337,-0.6437,-0.6637,-0.7135,-0.6942,-0.6545,-0.6042,-0.5033,-0.3929,-0.2825,-0.202,-0.1314,-0.0808,-0.0808,-0.0808,-0.0808,-0.0808,-0.0707,-0.0404,0.0101,0.111,-1.0101,-1.0388,-1.0595,-1.0685,-1.0627,-1.0476,-1.0331,-1.0164,-1.0013,-0.9938,-0.9922,-0.9922,-0.9922,-0.9922,-1.0003,-1.0328,-1.0647,-1.0958,0.0,0.0,0.0,0.0,0.0,-1.412,0.0,0.0,-1.3964,-1.3748,-1.3532,-1.3423,-1.3315,-1.3315,-1.3423,-1.3748,-1.3743,-1.3748,-1.3862,-1.3862,-1.3975,-1.4196,-1.4196,-1.4196,-1.4196,-1.4196,-1.4196,-1.4196,-1.4196,-1.4196,-1.4196,-1.4196,-1.4401,-1.4713,-1.4713,-1.4417,-1.3885,-1.3453,-1.245,-1.1292,-1.1096,-1.09,-1.0609,-1.0413,-1.031,-1.0006,-0.932,-0.9426,-0.9628,-0.9225,-0.9229,-0.9335,-0.9335,-0.943,-0.9628,-0.9628,-0.9628,-0.9826,-0.992,-1.0117,-1.0117,-1.0117,-0.9916,-0.9509,-0.8616,-0.7925,-0.7132,-0.6237,-0.5937,-0.5737,-0.5737,-0.5839,-0.6139,-0.6337,-0.6437,-0.6437,-0.6339,-0.6139,-0.5639,-0.4939,-0.4029,-0.3224,-0.232,-0.1615,-0.1111,-0.0505,-0.0505,-0.0404,-0.0303,-0.0404,-0.0303,0.0202,0.111,0.1917,0.0,-0.9751,-1.0126,-1.0124,-1.0158,0.0,0.0,-0.9959,-0.9846,-0.9771,-0.9771,-0.9771,-0.9695,-0.9771,-0.9877,-1.0211,-1.0461,0.0,0.0,0.0,0.0,0.0,0.0,0.0,0.0,-1.3588,-1.3537,-1.3423,-1.3098,-1.2881,-1.2767,-1.2659,-1.2659,-1.2659,-1.3098,-1.3423,-1.3537,-1.3537,-1.3753,-1.3975,-1.3975,-1.4083,-1.4196,-1.4196,-1.4196,-1.4196,-1.4196,-1.4196,0.0,-1.4196,-1.4401,-1.46,-1.4493,-1.399,-1.3259,-1.2838,-1.1745,-1.0511,-1.0314,-1.0019,-0.9727,-0.9624,-0.932,-0.9019,-0.8627,-0.8733,-0.8931,-0.8825,-0.8928,-0.9031,-0.9031,-0.9232,-0.943,-0.943,-0.9529,-0.9628,-0.9826,-0.9727,-0.9628,-0.9525,-0.9118,-0.852,-0.773,-0.7033,-0.6337,-0.5536,-0.5336,-0.5336,-0.5438,-0.5641,-0.5839,-0.6034,-0.6137,-0.6037,-0.5741,-0.5539,-0.5035,-0.4133,-0.3327,-0.252,-0.1614,-0.1111,-0.0707,-0.0303,-0.0202,-0.0202,0.0,-0.0101,0.0202,0.0707,0.1716,0.2521,0.0,-0.8889,0.0,0.0,0.0,0.0,0.0,-0.9695,0.0,-0.962,-0.9549,-0.9549,-0.9322,-0.9473,-0.9771,-1.022,-1.0449,0.0,0.0,0.0,0.0,0.0,-1.2557,0.0,-1.2951,-1.3143,-1.3192,-1.2881,-1.255,-1.2223,-1.2005,-1.1787,-1.1568,-1.1568,-1.2659,-1.3207,-1.3207,-1.3207,-1.3423,-1.3645,-1.364,-1.3862,-1.4196,-1.4191,-1.4191,-1.4196,-1.4196,-1.4191,-1.4083,-1.4083,-1.4293,-1.4385,-1.4148,-1.3541,-1.2833,-1.2093,-1.1024,-0.9821,-0.9331,-0.9137,-0.9034,-0.8825,-0.8531,-0.8333,-0.8038,-0.8137,-0.8432,-0.8627,-0.8726,-0.8722,-0.8711,-0.8913,-0.9114,-0.9103,-0.9296,-0.9489,-0.9489,-0.9296,-0.8996,-0.8791,-0.8096,-0.7307,-0.6828,-0.6027,-0.5429,-0.5238,-0.4937,-0.4937,-0.514,-0.524,-0.5338,-0.5536,-0.5636,-0.5534,-0.5231,-0.5135,-0.4736,-0.3629,-0.2823,-0.1917,-0.0808,-0.0505,-0.0303,0.0,0.0,0.0,0.0,0.0202,0.0606,0.1212,0.2018,0.2823,-0.6369,0.0,-0.8294,-0.8562,-0.8702,-0.8842,0.0,-0.9155,-0.9236,-0.9316,0.0,-0.9322,-0.9322,-0.9473,-0.9713,-0.9995,0.0,0.0,0.0,0.0,0.0,-1.1494,-1.1888,-1.2368,-1.2612,-1.2695,-1.271,-1.254,-1.2223,-1.2005,-1.1678,-1.1678,-1.1568,-1.1568,-1.1896,-1.2223,-1.2659,-1.2881,-1.3098,-1.3428,-1.364,-1.3753,-1.3862,-1.4083,-1.4083,-1.3862,-1.3862,-1.3532,-1.3207,-1.3207,-1.3093,-1.2856,-1.2471,-1.2039,-1.138,-1.0715,-0.9907,-0.9023,-0.873,-0.8435,-0.8237,-0.8237,-0.8137,-0.8038,-0.8041,-0.8038,-0.8137,-0.8137,-0.8333,-0.8502,-0.8387,-0.8553,-0.8713,-0.8585,-0.8649,-0.8646,-0.8646,-0.846,-0.8175,-0.7695,-0.7216,-0.6579,-0.5902,-0.552,-0.5152,-0.4926,-0.4834,-0.4937,-0.514,-0.524,-0.5338,-0.5536,-0.5636,-0.5506,-0.5134,-0.48,-0.4237,-0.333,-0.232,-0.1513,-0.0808,-0.0303,-0.0101,0.0,0.0,0.0,0.0,0.0101,0.0303,0.0606,0.1614,0.2421,-0.5303,-0.6247,-0.7326,-0.7557,-0.7791,-0.8093,-0.8394,0.0,0.0,0.0,0.0,-0.8861,-0.8627,-0.9008,0.0,0.0,-1.0137,0.0,0.0,0.0,0.0,-1.1461,-1.1697,-1.2069,-1.2196,-1.2226,-1.2117,-1.1991,-1.1782,-1.1568,-1.1345,-1.124,-1.124,-1.124,-1.135,-1.1568,-1.2005,-1.2332,-1.2659,-1.2876,-1.3207,-1.3428,-1.3532,-1.3753,-1.3645,-1.3315,-1.3202,-1.2881,-1.2441,-1.2332,-1.2163,-1.185,-1.142,-1.0888,-1.0219,-0.9513,-0.8765,-0.8226,-0.7932,-0.7736,-0.764,-0.764,-0.764,-0.764,-0.764,-0.7739,-0.7842,-0.7942,-0.8086,-0.8112,-0.8032,-0.8151,-0.8266,-0.8077,-0.8153,-0.8153,-0.7966,-0.759,-0.7214,-0.6741,-0.6078,-0.5531,-0.5019,-0.4739,-0.4562,-0.451,-0.4516,-0.4614,-0.4912,-0.4912,-0.501,-0.5105,-0.5105,-0.5083,-0.4839,-0.4493,-0.3932,-0.3147,-0.2262,-0.1476,-0.0984,-0.0492,-0.0098,0.0,0.0,0.0,0.0,0.0,0.0098,0.0394,0.1278,0.1976,-0.467,-0.5476,-0.6328,-0.6405,-0.6865,-0.7249,-0.7553,0.0,0.0,0.0,0.0,0.0,0.0,-0.8394,0.0,0.0,0.0,0.0,0.0,0.0,-1.158,-1.1532,-1.1624,-1.175,-1.1648,-1.1649,-1.1536,-1.1511,-1.1223,-1.1126,-1.1017,-1.0802,-1.0692,-1.0692,-1.0907,-1.1131,-1.1459,-1.1787,-1.2005,-1.2332,-1.2659,-1.2881,-1.3098,-1.3098,-1.2881,-1.2659,-1.2327,-1.1891,-1.1559,-1.1319,-1.1099,-1.0839,-1.0355,-0.9835,-0.9263,-0.8428,-0.7837,-0.7531,-0.7235,-0.7238,-0.7238,-0.7238,-0.7238,-0.7238,-0.7238,-0.7341,-0.754,-0.7813,-0.7815,-0.7801,-0.7753,-0.7841,-0.7833,-0.7522,-0.7612,-0.7619,-0.715,-0.668,-0.6117,-0.5652,-0.4993,-0.4528,-0.4263,-0.3985,-0.3896,-0.4093,-0.4189,-0.4284,-0.4476,-0.4571,-0.4571,-0.4573,-0.4571,-0.4567,-0.4553,-0.4171,-0.3691,-0.3022,-0.2375,-0.1622,-0.1049,-0.0572,-0.0191,0.0095,0.0095,0.0095,0.0095,0.0095,0.0191,0.0477,0.0954,0.1635,-0.4436,-0.4618,-0.4927,-0.5544,-0.5854,-0.6012,-0.6637,0.0,0.0,0.0,0.0,0.0,0.0,-0.8169,-0.8923,0.0,0.0,-1.0616,0.0,0.0,-1.1023,-1.0958,0.0,-1.0929,-1.0835,-1.103,-1.112,-1.0997,-1.1042,-1.1017,-1.0802,-1.0692,-1.0692,-1.0692,-1.0692,-1.0802,-1.0802,-1.135,-1.1678,-1.1678,-1.2005,-1.2114,-1.2223,-1.2223,-1.1896,-1.1345,-1.1118,-1.0566,-0.979,-0.966,-0.9374,-0.9004,-0.8529,-0.8196,-0.8139,-0.761,-0.7353,-0.7238,-0.7238,-0.7238,-0.7238,-0.7238,-0.7238,-0.7238,-0.7238,-0.7238,-0.7214,-0.7195,-0.7537,-0.7753,-0.7502,-0.7513,-0.737,-0.67,-0.6496,-0.623,-0.5782,-0.5328,-0.4876,-0.4611,-0.4248,-0.4,-0.3798,-0.3718,-0.374,-0.3899,-0.3908,-0.4003,-0.4189,-0.4284,-0.4379,-0.4571,-0.4381,-0.4254,-0.4181,-0.3527,-0.3134,-0.2899,-0.2429,-0.1619,-0.0572,0.0,0.0286,0.0381,0.0477,0.0572,0.0572,0.0572,0.0572,0.0668,0.124,0.1718,-0.3969,-0.4033,-0.4229,-0.4696,-0.5004,-0.5392,-0.5944,0.0,0.0,0.0,0.0,0.0,0.0,0.0,-0.8608,-0.969,0.0,-1.0661,-1.0859,-1.0905,-1.082,0.0,-1.0649,-1.0591,-1.0492,-1.0587,-1.0655,-1.063,-1.0725,-1.0703,-1.0688,-1.0692,-1.0692,-1.0692,-1.0692,-1.0692,-1.0692,-1.0802,-1.1021,-1.1131,-1.124,-1.1236,-1.1017,-1.0684,-1.0351,-0.9915,-0.9464,-0.8913,-0.8465,-0.833,-0.8122,-0.7821,-0.7626,-0.74,-0.7226,-0.6859,-0.6736,-0.6736,-0.6736,-0.6736,-0.6736,-0.6736,-0.6736,-0.6736,-0.6736,-0.6889,-0.6905,-0.6771,-0.7022,-0.7266,-0.7155,-0.7037,-0.678,-0.6358,-0.5994,-0.5547,-0.4743,-0.4206,-0.3762,-0.3406,-0.3138,-0.2967,-0.3,-0.3095,-0.3196,-0.3502,-0.3506,-0.369,-0.3966,-0.3966,-0.3966,-0.4152,-0.3873,-0.3582,-0.3456,-0.2998,-0.2535,-0.2153,-0.1917,-0.1291,-0.0185,0.0092,0.0277,0.0554,0.0646,0.0738,0.0738,0.0738,0.0738,0.0738,0.1107,0.1578,-0.3603,-0.3693,-0.3843,-0.4079,0.0,-0.4929,-0.5323,-0.5553,0.0,0.0,0.0,0.0,0.0,-0.7087,0.0,-0.9805,-1.0292,-1.0592,-1.1,-1.0796,-1.0583,-1.0583,-1.0413,-1.0276,-1.0125,-1.018,-1.0215,-1.0286,-1.0347,-1.0428,-1.0562,-1.0566,-1.0566,-1.0462,-1.0462,-1.0482,-1.0409,-1.0194,-1.0214,-1.0472,-1.0359,-1.0139,-0.9809,-0.9251,-0.8809,-0.8478,-0.7892,-0.7546,-0.721,-0.7061,-0.6945,-0.6849,-0.6836,-0.683,-0.6642,-0.6437,-0.6437,-0.6437,-0.6437,-0.6437,-0.6437,-0.6437,-0.6437,-0.6437,-0.6337,-0.6355,-0.6429,-0.6208,-0.625,-0.6389,-0.6721,-0.6514,-0.6166,-0.5816,-0.5369,-0.4743,-0.3849,-0.3315,-0.2869,-0.2513,-0.2334,-0.2243,-0.2424,-0.2513,-0.2603,-0.2959,-0.3048,-0.3229,-0.3499,-0.3497,-0.3497,-0.3587,-0.3138,-0.2689,-0.2239,-0.206,-0.1613,-0.0897,-0.0987,-0.0718,0.009,0.0179,0.0448,0.0807,0.0807,0.0897,0.0897,0.0897,0.0897,0.0897,0.1076,0.1448,-0.3527,-0.3693,-0.3843,-0.4079,-0.4157,0.0,-0.4701,-0.4929,0.0,-0.5093,0.0,0.0,0.0,-0.6958,-0.8374,-0.9256,-0.9717,-1.0131,-1.0455,-1.0323,-1.0105,-1.0096,-1.0019,-0.9924,-0.9644,-0.9791,-0.9896,-0.9925,-1.0083,-1.0188,-1.0201,-1.0201,-1.0096,-0.989,-0.9886,-0.9855,-0.9689,-0.937,-0.9443,-0.9816,-0.9258,-0.8923,-0.8595,-0.8039,-0.7593,-0.726,-0.6928,-0.6557,-0.6216,-0.6008,-0.5918,-0.5899,-0.5997,-0.6247,-0.6437,-0.6437,-0.6437,-0.6437,-0.6437,-0.6437,-0.6437,-0.6437,-0.6437,-0.6337,-0.6139,-0.5963,-0.5848,-0.5451,-0.516,-0.5151,-0.595,-0.5997,-0.5633,-0.4926,-0.4208,-0.358,-0.3045,-0.2601,-0.2243,-0.2243,-0.2243,-0.2243,-0.2243,-0.2334,-0.2424,-0.2333,-0.2603,-0.2873,-0.2603,-0.278,-0.2867,-0.2598,-0.2152,-0.1435,-0.0269,-0.0179,0.0179,0.0897,0.0269,0.0,0.0359,0.0807,0.1076,0.1076,0.1256,0.1345,0.1345,0.1345,0.1345,0.1345,0.1345,0.1706,-0.3316,-0.3577,-0.3841,-0.3921,-0.3921,0.0,0.0,-0.4592,-0.4701,-0.4636,-0.4755,0.0,0.0,0.0,-0.764,-0.8811,-0.9371,-0.9864,-1.0347,-1.021,-1.004,-1.001,-0.9826,-0.9727,-0.9628,-0.9689,-0.977,-0.9876,-0.9949,-1.0042,-0.9947,-0.9955,-0.9743,-0.9321,-0.9321,-0.914,-0.8772,-0.8348,-0.8165,-0.8003,-0.8066,-0.7817,-0.7376,-0.6746,-0.6384,-0.6272,-0.5842,-0.5587,-0.5469,-0.5548,-0.5592,-0.5583,-0.5679,-0.5837,-0.5934,-0.5934,-0.6037,-0.6139,-0.6139,-0.6237,-0.6437,-0.6437,-0.6437,-0.6323,-0.6057,-0.5761,-0.546,-0.498,-0.451,-0.4428,-0.5198,-0.5008,-0.4474,-0.4297,-0.3671,-0.3045,-0.2601,-0.2153,-0.1885,-0.1705,-0.1705,-0.1794,-0.1885,-0.1974,-0.2064,-0.1974,-0.2064,-0.2154,-0.2064,-0.1884,-0.1703,-0.1611,-0.0626,0.0269,0.0807,0.1434,0.1882,0.224,0.1255,0.0897,0.1256,0.1436,0.1705,0.1974,0.2064,0.2153,0.2331,0.2331,0.2331,0.2331,0.2153,0.2333,-0.3054,-0.3383,-0.3728,0.0,0.0,0.0,-0.4191,-0.4332,-0.4451,-0.4492,-0.4544,-0.4755,-0.5403,0.0,0.0,0.0,-0.8694,-0.9313,-1.0066,-0.992,-0.9826,-0.9821,-0.9727,-0.9529,-0.9529,-0.943,-0.9478,-0.9589,-0.9597,-0.945,-0.937,-0.9274,-0.8962,-0.8333,-0.8233,-0.7943,-0.7467,-0.7154,-0.6755,-0.6373,-0.6634,-0.6712,-0.6384,-0.5769,-0.5521,-0.5517,-0.521,-0.5065,-0.5057,-0.5175,-0.5239,-0.5335,-0.5466,-0.5536,-0.5636,-0.5636,-0.5737,-0.5839,-0.5839,-0.5939,-0.6037,-0.6037,-0.5914,-0.577,-0.5503,-0.5195,-0.4795,-0.4173,-0.3732,-0.3492,-0.3849,-0.3758,-0.3401,-0.3314,-0.2777,-0.224,-0.1884,-0.1615,-0.1436,-0.1345,-0.1256,-0.1256,-0.1525,-0.1525,-0.1436,-0.1345,-0.1345,-0.1256,-0.1166,-0.0807,-0.0538,-0.0179,0.0895,0.1701,0.2151,0.2867,0.3403,0.3669,0.2953,0.2417,0.2331,0.2331,0.251,0.296,0.296,0.3047,0.3312,0.3312,0.3312,0.3224,0.3048,0.3138,-0.2823,-0.3194,-0.3429,0.0,0.0,0.0,-0.3879,-0.4063,-0.4254,-0.4601,-0.4703,-0.4787,-0.4949,-0.5464,0.0,-0.7218,-0.777,-0.8368,-0.9481,-0.9331,-0.9335,-0.9529,-0.9628,-0.9529,-0.9232,-0.9236,-0.9034,-0.8825,-0.8825,-0.8627,-0.8432,-0.8137,-0.7637,-0.683,-0.6534,-0.6191,-0.5896,-0.5585,-0.5324,-0.5212,-0.5212,-0.5318,-0.5633,-0.5212,-0.5106,-0.5102,-0.501,-0.4971,-0.4963,-0.4873,-0.4937,-0.524,-0.524,-0.5338,-0.5634,-0.5634,-0.5634,-0.5634,-0.5634,-0.5438,-0.514,-0.514,-0.4973,-0.46,-0.4409,-0.41,-0.3692,-0.3141,-0.2643,-0.2154,-0.1884,-0.2152,-0.233,-0.1884,-0.1436,-0.1076,-0.1076,-0.0897,-0.0807,-0.1076,-0.0897,-0.0807,-0.1076,-0.0897,-0.0628,-0.0448,-0.0359,-0.0179,0.0359,0.0448,0.0807,0.1705,0.224,0.2865,0.3848,0.4208,0.4652,0.5359,0.5447,0.4914,0.3667,0.3578,0.3758,0.3939,0.3939,0.4024,0.4289,0.4289,0.42,0.3939,0.3939,0.3939,-0.2613,-0.3123,0.0,-0.3756,0.0,0.0,0.0,-0.3995,0.0,0.0,-0.425,-0.4326,-0.4722,-0.5032,-0.5594,-0.6762,-0.7142,-0.7617,-0.8601,-0.8733,-0.8733,-0.9027,-0.9027,-0.8928,-0.863,-0.8634,-0.8535,-0.8237,-0.8031,-0.773,-0.7329,-0.7033,-0.6537,-0.5739,-0.5639,-0.5354,-0.4879,-0.4778,-0.4587,-0.4407,-0.4407,-0.457,-0.4996,-0.5041,-0.5012,-0.5008,-0.4914,-0.4875,-0.4873,-0.4847,-0.4834,-0.4937,-0.4937,-0.4836,-0.4738,-0.4738,-0.4636,-0.4433,-0.4433,-0.4332,-0.4031,-0.4031,-0.398,-0.3811,-0.3278,-0.3113,-0.2856,-0.209,-0.1622,-0.1345,-0.0897,-0.0896,-0.1076,-0.1256,-0.1076,-0.0807,-0.0807,-0.0718,-0.0718,-0.0807,-0.0628,-0.0538,-0.0628,-0.0269,0.0179,0.0628,0.0807,0.1076,0.1792,0.206,0.2419,0.2959,0.3674,0.4297,0.4914,0.5625,0.6248,0.6605,0.6779,0.6334,0.5095,0.5095,0.5184,0.5447,0.5447,0.5536,0.5805,0.598,0.5977,0.598,0.598,0.598,-0.2338,-0.2926,0.0,-0.3728,-0.3885,-0.3977,-0.4069,0.0,0.0,0.0,-0.4208,-0.4228,-0.4516,-0.4745,-0.521,-0.6123,-0.6454,-0.6884,-0.7611,-0.773,-0.7928,-0.8326,-0.8226,-0.8131,-0.7935,-0.7733,-0.7537,-0.7238,-0.6936,-0.6634,-0.6234,-0.5834,-0.5334,-0.4636,-0.4334,-0.4033,-0.3632,-0.3632,-0.353,-0.353,-0.3632,-0.3878,-0.4271,-0.4532,-0.4612,-0.4712,-0.4758,-0.4834,-0.4834,-0.4834,-0.4736,-0.4636,-0.4636,-0.4435,-0.4033,-0.3932,-0.3731,-0.353,-0.3327,-0.3024,-0.2819,-0.2697,-0.2558,-0.2414,-0.2084,-0.1856,-0.1639,-0.099,-0.0718,-0.0538,-0.0179,-0.0179,-0.0269,-0.0628,-0.0539,-0.0449,-0.0449,-0.0359,-0.0269,-0.0359,-0.009,0.0179,0.0179,0.0718,0.1256,0.1613,0.1973,0.242,0.2955,0.3314,0.3673,0.4121,0.4746,0.5366,0.5983,0.6779,0.7404,0.776,0.7933,0.7753,0.7136,0.6605,0.634,0.6688,0.6688,0.6779,0.7136,0.7312,0.7397,0.7485,0.7485,0.7485,-0.196,0.0,0.0,-0.3718,-0.3973,0.0,-0.4163,-0.4244,-0.43,-0.43,0.0,-0.4428,-0.4444,-0.4699,-0.4981,-0.5384,-0.5696,-0.602,-0.6614,-0.6731,-0.693,-0.7431,-0.7235,-0.7036,-0.7039,-0.6537,-0.6137,-0.5939,-0.5636,-0.5336,-0.5039,-0.4531,-0.4029,-0.3528,-0.3026,-0.2623,-0.2422,-0.2422,-0.2522,-0.2725,-0.3027,-0.323,-0.3534,-0.3833,-0.4135,-0.4338,-0.4535,-0.4634,-0.4634,-0.4634,-0.4535,-0.4338,-0.4237,-0.3932,-0.3426,-0.3123,-0.2822,-0.2523,-0.2017,-0.1613,-0.1408,-0.1184,-0.0968,-0.0665,-0.0651,-0.0547,-0.0269,0.0,0.009,0.009,0.0359,0.0269,0.009,0.009,0.009,0.0,0.0,0.0269,0.0359,0.0179,0.0718,0.1256,0.1256,0.1884,0.2422,0.2688,0.3315,0.3764,0.4028,0.4208,0.4565,0.5097,0.5542,0.6251,0.7228,0.7672,0.8292,0.8999,0.8999,0.9174,0.9345,0.8021,0.7404,0.7665,0.7665,0.7845,0.8288,0.8288,0.846,0.8632,0.8715,0.8715,-0.1709,-0.2456,0.0,0.0,-0.3938,-0.4165,-0.4253,-0.4285,-0.43,-0.43,-0.4314,-0.4373,-0.4516,-0.4653,-0.4816,-0.5183,-0.5309,-0.5515,-0.6137,-0.6037,-0.5934,-0.6339,-0.6137,-0.5837,-0.5639,-0.5541,-0.5338,-0.5035,-0.4636,-0.4232,-0.393,-0.3428,-0.3025,-0.2622,-0.2522,-0.2422,-0.2422,-0.2422,-0.2422,-0.2522,-0.2522,-0.2623,-0.2724,-0.363,-0.3932,-0.3729,-0.3828,-0.3731,-0.3531,-0.3531,-0.3533,-0.3432,-0.3229,-0.2925,-0.2622,-0.2117,-0.1614,-0.1212,-0.0808,-0.0404,0.0,0.0,0.0097,0.019,0.0372,0.0274,0.0269,0.0448,0.0538,0.0538,0.0628,0.0628,0.0538,0.0538,0.0448,0.0269,0.0269,0.0628,0.0987,0.1076,0.1525,0.2063,0.2419,0.2959,0.3497,0.4121,0.4478,0.4832,0.5013,0.5102,0.5458,0.6337,0.6868,0.7485,0.8452,0.9069,0.9598,0.9946,1.0038,0.9946,0.9864,0.9165,0.8819,0.8903,0.8732,0.8732,0.9082,0.9253,0.951,0.9941,1.0458,1.0631,0.0,0.0,0.0,-0.3564,0.0,-0.4244,-0.4287,-0.43,-0.43,-0.43,-0.4334,-0.4408,-0.4547,-0.4608,-0.4681,-0.5016,-0.5037,-0.5037,-0.524,-0.514,-0.5039,-0.524,-0.5037,-0.4836,-0.4839,-0.4437,-0.4135,-0.4033,-0.353,-0.3126,-0.3025,-0.2624,-0.2323,-0.2222,-0.212,-0.2019,-0.2019,-0.2019,-0.2019,-0.2019,-0.2019,-0.1917,-0.1815,-0.2823,-0.3126,-0.2822,-0.2822,-0.2723,-0.2623,-0.2522,-0.2321,-0.2219,-0.2118,-0.1816,-0.1413,-0.1009,-0.0606,-0.0101,0.0404,0.0703,0.0994,0.1267,0.1242,0.1311,0.1376,0.1267,0.1076,0.1166,0.1076,0.0897,0.0987,0.0987,0.0987,0.1166,0.0987,0.0718,0.0897,0.1345,0.1882,0.2061,0.2689,0.3315,0.3671,0.4206,0.4743,0.5102,0.5455,0.5719,0.5899,0.6166,0.6697,0.7401,0.7929,0.854,0.9331,0.9854,1.0294,1.0636,1.0636,1.0641,1.0641,1.0381,0.9951,0.9349,0.9257,0.9345,0.9607,0.9946,1.0381,1.0987,1.1413,1.1757,0.0,0.0,-0.2635,-0.3639,-0.4034,0.0,-0.43,-0.43,-0.43,-0.43,-0.4359,-0.4438,-0.453,-0.4624,-0.4614,-0.4698,-0.4724,-0.4535,-0.4336,-0.4338,-0.4237,-0.4237,-0.3934,-0.3833,-0.4034,-0.3432,-0.3029,-0.3029,-0.2624,-0.2321,-0.2321,-0.2121,-0.1921,-0.1921,-0.1718,-0.1516,-0.1516,-0.1516,-0.1415,-0.1415,-0.1313,-0.111,-0.0806,-0.1513,-0.1714,-0.1613,-0.1613,-0.1513,-0.1513,-0.131,-0.1008,-0.0806,-0.0806,-0.0504,-0.0101,0.0202,0.0505,0.0808,0.1509,0.1692,0.1663,0.2104,0.2253,0.2214,0.2168,0.2064,0.1885,0.1885,0.1705,0.1435,0.1614,0.1524,0.1614,0.1973,0.1883,0.1613,0.1614,0.224,0.2865,0.3135,0.3939,0.4654,0.4917,0.5453,0.5899,0.5897,0.634,0.6605,0.6782,0.7309,0.7841,0.846,0.8894,0.9501,1.0115,1.0463,1.0809,1.1241,1.1327,1.1413,1.1585,1.1585,1.1063,0.9946,0.9864,0.9946,1.0294,1.0636,1.1154,1.1929,1.2272,1.2699,0.0,0.0,-0.2635,0.0,-0.3767,-0.4036,0.0,0.0,-0.43,0.0,-0.4308,-0.4344,-0.4436,-0.4338,-0.4328,-0.4317,-0.4189,-0.4133,-0.4033,-0.3835,-0.3635,-0.3432,-0.3128,-0.2927,-0.2724,-0.2522,-0.2522,-0.2522,-0.2222,-0.2021,-0.2021,-0.1819,-0.1617,-0.1617,-0.1415,-0.1212,-0.1212,-0.101,-0.0808,-0.0505,-0.0101,0.0404,0.0907,0.0806,0.0403,-0.0302,0.0,0.0202,0.0403,0.0504,0.0504,0.0605,0.0806,0.0907,0.1009,0.1513,0.1715,0.1812,0.2079,0.2162,0.2242,0.2164,0.2226,0.2214,0.2168,0.2334,0.2424,0.2424,0.2511,0.2688,0.2688,0.2778,0.2957,0.3312,0.3582,0.3671,0.2867,0.3403,0.4119,0.4383,0.5186,0.5902,0.5902,0.6349,0.67,0.6874,0.7136,0.7573,0.8105,0.8281,0.8719,0.9593,1.0115,1.0636,1.1413,1.1843,1.2192,1.2448,1.2613,1.2699,1.2528,1.2705,1.2693,1.2504,1.1402,1.1068,1.1499,1.1499,1.2015,1.2875,1.3548,1.4055,0.0157,-0.0967,-0.1995,0.0,-0.3319,-0.3787,-0.4051,0.0,-0.43,-0.43,-0.43,-0.4326,-0.4418,-0.428,-0.4146,-0.4231,-0.4082,-0.3925,-0.3768,-0.3477,-0.3192,-0.3024,-0.2725,-0.2522,-0.2422,-0.2221,-0.2222,-0.2222,-0.192,-0.1819,-0.1819,-0.1516,-0.1314,-0.1111,-0.0909,-0.0606,-0.0303,-0.0202,0.0202,0.0706,0.1312,0.1716,0.2118,0.242,0.1914,0.0907,0.121,0.1411,0.1513,0.1613,0.1714,0.1714,0.1815,0.1916,0.1916,0.2118,0.2204,0.2182,0.2458,0.261,0.2649,0.2791,0.2936,0.3174,0.3145,0.3226,0.3317,0.3496,0.3494,0.3492,0.3848,0.4024,0.4291,0.4648,0.5095,0.5364,0.5179,0.5095,0.5275,0.5894,0.6343,0.6789,0.7231,0.758,0.7841,0.8105,0.8544,0.8982,0.9244,0.9676,1.0197,1.0809,1.1149,1.1666,1.2357,1.2778,1.3118,1.3464,1.3633,1.3886,1.4048,1.4132,1.421,1.4371,1.3021,1.2595,1.3014,1.3269,1.3698,1.4384,1.488,1.5379,0.0,0.0,-0.1225,-0.2007,-0.2639,-0.3274,0.0,0.0,-0.406,0.0,-0.4178,-0.4115,-0.4294,-0.4145,-0.3994,-0.396,-0.3798,-0.3545,-0.3306,-0.302,-0.284,-0.2583,-0.2388,-0.2288,-0.2188,-0.1991,-0.1893,-0.1893,-0.1594,-0.1497,-0.1404,-0.1103,-0.0804,-0.0505,-0.0202,0.0202,0.0707,0.0908,0.1312,0.2016,0.252,0.2823,0.3127,0.3528,0.3124,0.2218,0.242,0.252,0.252,0.2723,0.2823,0.2823,0.2823,0.2716,0.2706,0.2804,0.2671,0.2626,0.2904,0.3127,0.3232,0.3582,0.3899,0.4115,0.4204,0.4293,0.4385,0.4565,0.4563,0.465,0.5006,0.5267,0.5534,0.5985,0.634,0.6694,0.6956,0.6514,0.6428,0.7228,0.7404,0.7665,0.8372,0.8719,0.8982,0.9414,0.9937,1.0289,1.0549,1.0982,1.1499,1.2015,1.2272,1.2693,1.3372,1.3704,1.4126,1.4559,1.481,1.5061,1.5387,1.5477,1.5643,1.5891,1.5032,1.4601,1.4594,1.4942,1.5455,1.5959,1.6288,1.678,0.0,0.048,0.0,-0.1254,0.0,0.0,0.0,0.0,-0.3306,-0.3811,-0.3741,-0.3591,-0.3848,-0.3835,-0.3608,-0.3427,-0.3011,-0.2764,-0.2766,-0.2483,-0.2198,-0.2009,-0.1913,-0.1818,-0.1531,-0.153,-0.1531,-0.1531,-0.134,-0.1158,-0.0884,-0.059,-0.0198,0.0303,0.0807,0.121,0.1513,0.2321,0.2823,0.3123,0.3426,0.3629,0.3932,0.3932,0.3932,0.3831,0.3932,0.3932,0.3932,0.3932,0.3932,0.3932,0.3932,0.3693,0.344,0.3731,0.3589,0.3426,0.3824,0.3977,0.4049,0.4508,0.4652,0.465,0.4919,0.5275,0.563,0.563,0.5897,0.6251,0.634,0.6514,0.6779,0.6962,0.7224,0.7489,0.7489,0.7401,0.7577,0.8021,0.8285,0.854,0.9061,0.9501,1.0028,1.0809,1.1068,1.1499,1.2192,1.2277,1.2448,1.2875,1.3372,1.3866,1.4538,1.5047,1.5477,1.5966,1.6139,1.6312,1.6312,1.6484,1.6812,1.731,1.7602,1.7253,1.6273,1.6273,1.6764,1.7577,1.7602,1.8086,0.0,0.0,0.0,-0.0153,-0.0855,-0.142,-0.1922,-0.2359,-0.2814,-0.3129,-0.3267,-0.3307,-0.3421,-0.3396,-0.3264,-0.3082,-0.2737,-0.2488,-0.2427,-0.2152,-0.1974,-0.1905,-0.1717,-0.1622,-0.1526,-0.1431,-0.124,-0.1049,-0.0668,-0.0287,0.0096,0.0481,0.1062,0.1751,0.2139,0.2625,0.3207,0.3696,0.3985,0.4272,0.4564,0.4758,0.5048,0.5243,0.5243,0.5243,0.5243,0.4828,0.4029,0.398,0.406,0.4155,0.4103,0.4068,0.414,0.4234,0.4275,0.4287,0.444,0.4756,0.5148,0.5287,0.5719,0.6251,0.634,0.6691,0.7041,0.7051,0.7316,0.758,0.758,0.7845,0.8201,0.8464,0.8723,0.8894,0.8982,0.8715,0.8544,0.8986,0.9423,0.9854,1.0453,1.0977,1.1413,1.1843,1.2192,1.2534,1.2796,1.3052,1.3392,1.3893,1.43,1.488,1.5718,1.6214,1.6624,1.7123,1.7204,1.7294,1.7456,1.7465,1.7797,1.821,1.8886,1.8868,1.8238,1.8541,1.8939,1.9502,1.9511,1.9668,0.2856,0.0,0.0,0.0,0.0,-0.0375,-0.0838,-0.1326,-0.1838,-0.2205,-0.2423,-0.2473,-0.2598,-0.2635,-0.2667,-0.2776,-0.2512,-0.2255,-0.2103,-0.1832,-0.1657,-0.1773,-0.1589,-0.1402,-0.1402,-0.1122,-0.0841,-0.0467,0.0,0.0562,0.1226,0.1697,0.2269,0.3141,0.3426,0.3903,0.4474,0.4757,0.4946,0.5133,0.5417,0.57,0.5889,0.6081,0.6272,0.6272,0.6272,0.5598,0.4642,0.4584,0.4753,0.4846,0.4875,0.4926,0.4993,0.5181,0.5203,0.5199,0.5471,0.5784,0.6251,0.6428,0.6962,0.7492,0.758,0.7841,0.8193,0.8201,0.8376,0.8552,0.864,0.899,0.9428,0.9607,0.9946,1.0207,1.0376,0.9854,0.9506,1.0028,1.0467,1.0982,1.1671,1.21,1.2448,1.279,1.3137,1.3483,1.3561,1.3906,1.4321,1.481,1.5311,1.5966,1.687,1.7359,1.7772,1.8175,1.8336,1.8336,1.8434,1.8585,1.8825,1.9161,1.9991,2.0372,2.0313,2.0304,2.0537,2.0934,2.0857,2.0934,0.0,0.0,0.0,0.0,0.0,0.0,0.0146,0.0,-0.0305,-0.1169,-0.1118,-0.1154,-0.1637,-0.1563,-0.1577,-0.2326,-0.2064,-0.1794,-0.1794,-0.1525,-0.1346,-0.1346,-0.1346,-0.1256,-0.1076,-0.0807,-0.0359,0.0359,0.0897,0.1628,0.2583,0.2863,0.3447,0.4464,0.4843,0.5032,0.532,0.5501,0.5596,0.569,0.6158,0.6349,0.6347,0.6635,0.6732,0.6732,0.6732,0.6543,0.6072,0.6075,0.5984,0.6078,0.6258,0.6182,0.5987,0.6447,0.6451,0.6245,0.6874,0.7139,0.7228,0.8025,0.8197,0.8288,0.8548,0.8815,0.8999,0.8911,0.9174,0.9432,0.9602,1.0038,1.0381,1.0381,1.0895,1.1327,1.1322,1.0895,1.0549,1.1241,1.1585,1.2015,1.2619,1.2966,1.3307,1.3652,1.3997,1.4166,1.4398,1.4824,1.5333,1.5733,1.6319,1.7131,1.7997,1.8487,1.8895,1.9301,1.9529,1.9529,1.9381,1.9756,1.9982,2.0235,2.1078,2.1852,2.2402,2.1624,2.1482,2.1883,2.1655,2.1807,0.4476,0.0,0.0,0.0,0.0,0.0,0.1659,0.0,0.0671,0.0311,0.0081,-0.0167,-0.0677,-0.0609,-0.0534,-0.0896,-0.1166,-0.1256,-0.1076,-0.0897,-0.0897,-0.0897,-0.0897,-0.0718,-0.0359,0.009,0.0717,0.1522,0.224,0.2964,0.3792,0.4424,0.4887,0.5368,0.5642,0.5913,0.6093,0.6364,0.6545,0.6722,0.7175,0.7441,0.771,0.8065,0.8333,0.8329,0.8418,0.8414,0.8244,0.692,0.6596,0.6948,0.694,0.7052,0.7282,0.746,0.7524,0.7665,0.7845,0.8113,0.8468,0.8644,0.9078,0.9515,0.9602,1.0033,1.0381,1.0033,1.0294,1.0809,1.1068,1.1241,1.1413,1.1757,1.21,1.2443,1.2772,1.2778,1.2705,1.2528,1.3039,1.3548,1.3886,1.4146,1.4314,1.4405,1.4664,1.4915,1.5068,1.565,1.6312,1.687,1.7529,1.8175,1.9116,1.9529,2.0001,2.0391,2.0459,2.045,2.0382,2.045,2.076,2.1155,2.1928,2.2617,2.3075,2.2841,2.2841,2.3075,2.3224,2.3287,0.0,0.0,0.0,0.0,0.0,0.0,0.2907,0.2455,0.1987,0.1759,0.1432,0.1065,0.0661,0.0677,0.078,0.0618,0.0354,0.0089,-0.0358,-0.0448,-0.0448,-0.0448,-0.0269,-0.009,0.0448,0.0986,0.1702,0.2685,0.3314,0.3942,0.4746,0.5369,0.5813,0.5985,0.6257,0.6523,0.6871,0.7054,0.7408,0.7665,0.8201,0.8552,0.8811,0.9157,0.9331,0.9331,0.9506,0.9501,0.9423,0.8476,0.7979,0.7968,0.7882,0.8021,0.8281,0.8368,0.8548,0.8815,0.8986,0.9336,0.9602,0.9864,1.0207,1.0554,1.0641,1.0987,1.1241,1.1068,1.1413,1.2009,1.2351,1.2522,1.2784,1.3039,1.3294,1.3633,1.388,1.4223,1.423,1.3717,1.3886,1.4314,1.4657,1.4824,1.4908,1.5068,1.5409,1.5741,1.6057,1.6624,1.7277,1.7844,1.8487,1.9125,1.9923,2.0469,2.0934,2.1482,2.1624,2.168,2.1745,2.1907,2.2069,2.2381,2.3043,2.3644,2.4154,2.374,2.3666,2.3824,2.4177,2.4443,0.0,0.0,0.0,0.0,0.0,0.0,0.3956,0.3708,0.3441,0.3076,0.2855,0.2535,0.2184,0.2116,0.2066,0.2151,0.2082,0.1662,0.0447,0.0269,0.0269,0.0269,0.0448,0.0807,0.1256,0.1971,0.2774,0.3667,0.4206,0.4746,0.546,0.5905,0.6257,0.6517,0.6789,0.7143,0.7665,0.7845,0.8197,0.8632,0.9165,0.9519,0.9689,0.9951,1.0125,1.0125,1.0212,1.0212,1.0212,1.0212,0.9767,0.9065,0.9078,0.9087,0.9174,0.9432,0.9602,0.9864,1.0294,1.0636,1.0895,1.1327,1.1413,1.1494,1.1757,1.1929,1.2015,1.2272,1.2613,1.3039,1.3451,1.388,1.4223,1.4307,1.4566,1.4901,1.4901,1.5228,1.5394,1.4894,1.4727,1.4734,1.5249,1.5333,1.5409,1.5899,1.6312,1.6714,1.7196,1.7755,1.8407,1.8895,1.945,2.0079,2.0722,2.1318,2.1928,2.2553,2.2927,2.3202,2.318,2.3508,2.374,2.374,2.4276,2.485,2.5441,2.4527,2.4189,2.4394,2.4945,2.5417,0.0,0.0,0.0,0.0,0.0,0.0,0.5192,0.4838,0.453,0.4345,0.4062,0.379,0.3482,0.3378,0.3181,0.3039,0.2917,0.2535,0.1875,0.1791,0.1791,0.1791,0.1791,0.206,0.2509,0.3044,0.3669,0.4389,0.5107,0.5552,0.5905,0.6169,0.6605,0.7224,0.7669,0.8197,0.8627,0.9074,0.934,0.9598,0.9946,1.0207,1.0467,1.0738,1.0911,1.1068,1.1257,1.1435,1.1607,1.1424,1.0809,1.0028,1.0033,1.0125,1.0381,1.0554,1.0814,1.0982,1.1327,1.1671,1.21,1.2192,1.2363,1.2705,1.2699,1.3124,1.3717,1.4055,1.4139,1.4139,1.4657,1.4831,1.4999,1.5318,1.5575,1.5914,1.6237,1.6468,1.6788,1.7033,1.6468,1.6139,1.655,1.6632,1.6796,1.7204,1.7521,1.7917,1.8559,1.9045,1.952,2.0167,2.0644,2.1118,2.1721,2.2542,2.3139,2.3593,2.4082,2.4348,2.4348,2.4371,2.4443,2.4731,2.5417,2.5918,2.6208,2.5594,2.5453,2.5709,2.6252,2.6786,0.0,0.0,0.0,0.6474,0.0,0.0,0.0,0.5839,0.5583,0.5434,0.5202,0.4912,0.4604,0.4346,0.4184,0.4201,0.4095,0.3924,0.3795,0.3092,0.2508,0.2508,0.2598,0.2867,0.3314,0.3849,0.4476,0.5371,0.573,0.6086,0.6612,0.6959,0.7397,0.8189,0.8636,0.9161,0.9593,0.9941,1.0294,1.0636,1.0895,1.1154,1.1591,1.1682,1.1768,1.2015,1.2112,1.2289,1.2375,1.2363,1.21,1.1585,1.0982,1.0982,1.1246,1.1327,1.1585,1.2015,1.2437,1.2863,1.3294,1.3464,1.3717,1.3886,1.3977,1.4482,1.4977,1.5325,1.5401,1.5477,1.5982,1.6154,1.6327,1.6484,1.673,1.6976,1.7286,1.7521,1.7836,1.8416,1.8327,1.8078,1.7683,1.7764,1.7925,1.8416,1.8718,1.9186,1.9678,2.0167,2.0566,2.1041,2.1502,2.2035,2.2478,2.3298,2.3959,2.4455,2.4874,2.5158,2.53,2.53,2.5581,2.6114,2.6582,2.7069,2.7351,2.7324,2.7056,2.6676,2.7271,2.7855,0.0,0.0,0.0,0.0,0.0,0.6845,0.0,0.0,0.0,0.6365,0.6065,0.5796,0.5649,0.5297,0.5155,0.5363,0.5212,0.5235,0.5431,0.4385,0.3449,0.3362,0.3539,0.3715,0.4066,0.4511,0.5217,0.6095,0.6207,0.6571,0.7183,0.7731,0.836,0.9152,0.9593,1.012,1.0549,1.0809,1.1154,1.1499,1.1757,1.2106,1.2534,1.2534,1.2619,1.2875,1.2875,1.296,1.3039,1.3215,1.33,1.3215,1.2095,1.1843,1.2015,1.21,1.2528,1.3124,1.3542,1.4048,1.4475,1.4817,1.4985,1.5068,1.5333,1.5741,1.6072,1.6327,1.6566,1.6878,1.7212,1.7465,1.7635,1.7708,1.7861,1.8095,1.8399,1.8541,1.8948,1.9608,1.9991,1.9904,1.8886,1.8877,1.9195,1.9618,2.0001,2.0382,2.0799,2.1195,2.1502,2.1731,2.2252,2.2777,2.3224,2.3959,2.4683,2.5229,2.5664,2.6025,2.6176,2.6371,2.6756,2.743,2.7736,2.813,2.8546,2.9016,2.8684,2.7617,2.8338,2.8967,0.0,0.0,0.0,0.0,0.7596,0.0,0.7231,0.0,0.7027,0.6846,0.0,0.638,0.6376,0.0,0.0,0.606,0.5992,0.5941,0.5973,0.5897,0.565,0.5068,0.5071,0.4987,0.49,0.5071,0.549,0.6241,0.661,0.7107,0.7792,0.8455,0.9152,1.0115,1.0636,1.1068,1.1499,1.202,1.2192,1.2277,1.2448,1.2705,1.296,1.296,1.313,1.3561,1.3561,1.3808,1.423,1.4223,1.4314,1.4398,1.347,1.3222,1.3222,1.3633,1.3971,1.4314,1.4741,1.5159,1.5567,1.5567,1.5899,1.6229,1.6484,1.682,1.7221,1.7456,1.7772,1.8095,1.8175,1.8336,1.8576,1.8807,1.8975,1.9292,1.9816,2.0129,2.0459,2.1108,2.1272,2.1108,2.0382,2.0459,2.0615,2.0964,2.1195,2.1425,2.1655,2.2025,2.2327,2.2553,2.3075,2.3604,2.4043,2.4897,2.5606,2.6013,2.6714,2.7134,2.7134,2.7456,2.7776,2.8157,2.8634,2.9079,2.9435,3.0025,2.9903,2.9107,2.978,3.0315,0.0,0.0,0.0,0.0,0.0,0.0,0.7852,0.7785,0.7721,0.7398,0.0,0.0,0.0,0.0,0.0,0.0,0.6836,0.6756,0.6857,0.6847,0.6613,0.5906,0.5859,0.5776,0.5776,0.5958,0.6355,0.7015,0.7248,0.7812,0.903,0.9459,1.0162,1.1063,1.1424,1.1768,1.2106,1.2534,1.2869,1.3118,1.3548,1.3893,1.4237,1.4307,1.4559,1.4901,1.5061,1.5228,1.5394,1.5477,1.5643,1.5643,1.5401,1.4901,1.4412,1.4573,1.4901,1.5235,1.5582,1.5914,1.6319,1.6566,1.6812,1.7057,1.7212,1.77,1.8184,1.8434,1.8895,1.9371,1.9371,1.9678,1.9904,2.0051,2.0226,2.0459,2.0857,2.1165,2.1558,2.2101,2.2478,2.2703,2.2521,2.208,2.1787,2.1873,2.2187,2.2478,2.2628,2.3001,2.3361,2.357,2.4082,2.4599,2.4969,2.5664,2.622,2.6633,2.7297,2.7829,2.8157,2.8597,2.9016,2.947,2.9889,3.0329,3.0703,3.1233,3.1392,3.1188,3.1043,3.1218,1.0287,1.0039,0.9744,0.9478,0.9196,0.8848,0.8511,0.8366,0.8322,0.8134,0.8078,0.0,0.0,0.0,0.0,0.0,0.0,0.7619,0.7766,0.7835,0.75,0.6627,0.6441,0.652,0.6603,0.6663,0.7055,0.7701,0.7878,0.8631,1.003,1.0444,1.1006,1.1837,1.2118,1.2375,1.2705,1.313,1.3626,1.4126,1.4559,1.4985,1.5499,1.565,1.5809,1.6057,1.6304,1.6378,1.6542,1.6796,1.6878,1.6886,1.7049,1.664,1.5906,1.5748,1.5906,1.6237,1.6484,1.6738,1.7139,1.7473,1.7635,1.7789,1.8023,1.8585,1.9134,1.9381,2.0001,2.0624,2.0624,2.0924,2.1231,2.1308,2.1538,2.1776,2.2101,2.2402,2.2841,2.3276,2.3655,2.4032,2.425,2.3519,2.2916,2.2916,2.3213,2.3508,2.3655,2.402,2.4383,2.4576,2.5004,2.5441,2.5804,2.6358,2.6892,2.7564,2.813,2.8698,2.9219,2.9642,3.0133,3.0674,3.1116,3.148,3.1823,3.2272,3.2617,3.2819,3.2201,3.2145,1.1222,1.1198,1.1187,1.025,0.9977,0.9772,0.9133,0.8894,0.8837,0.907,0.8985,0.8851,0.8851,0.0,0.0,0.0,0.0,0.0,0.0,0.8917,0.8649,0.7481,0.7191,0.7115,0.7338,0.7187,0.7402,0.819,0.8675,0.9431,1.06,1.1018,1.1595,1.2357,1.2534,1.2881,1.3392,1.4062,1.4559,1.5054,1.5477,1.5899,1.6394,1.6394,1.655,1.696,1.6952,1.7204,1.7691,1.7844,1.7934,1.7951,1.8184,1.8103,1.787,1.7212,1.7139,1.7392,1.7538,1.7781,1.7959,1.7959,1.8264,1.8665,1.8913,1.9539,2.0157,2.0391,2.1068,2.1756,2.1756,2.208,2.2402,2.2628,2.2767,2.3075,2.3677,2.402,2.4288,2.4791,2.4933,2.5016,2.5241,2.4611,2.4116,2.4154,2.4299,2.4515,2.4636,2.5016,2.53,2.5557,2.5931,2.622,2.6346,2.6918,2.7802,2.8972,2.9387,2.9794,3.0404,3.0644,3.1058,3.1622,3.1905,3.2256,3.2586,3.2964,3.3261,3.345,3.3102,3.3208,1.3386,1.3025,1.2614,1.2296,1.1757,1.1236,1.0801,1.0648,1.0539,1.0232,1.025,1.0196,0.9886,0.0,0.0,0.0,0.0,0.0,0.0,0.9592,0.958,0.9179,0.8722,0.8423,0.8357,0.8161,0.824,0.8806,0.9108,0.9721,1.0735,1.1094,1.1513,1.2261,1.2839,1.3354,1.4028,1.4802,1.5643,1.6378,1.664,1.7131,1.7691,1.7853,1.8095,1.8345,1.8647,1.8798,1.8966,1.9186,1.9274,1.9283,1.9353,1.9353,1.9125,1.8256,1.7942,1.8103,1.8576,1.8895,1.9054,1.9204,1.9353,1.9599,1.9923,2.0469,2.1155,2.1471,2.2231,2.2979,2.2979,2.3423,2.379,2.3863,2.4009,2.4215,2.4587,2.4862,2.5276,2.5639,2.5906,2.6195,2.6414,2.6208,2.5849,2.5334,2.5417,2.5697,2.5975,2.6264,2.6483,2.6676,2.7027,2.731,2.743,2.8143,2.8994,2.9822,3.0237,3.0644,3.1276,3.1637,3.213,3.2703,3.3018,3.3351,3.3713,3.3968,3.4184,3.4448,3.4333,3.4184,1.4784,1.4364,1.3985,1.3601,1.3084,1.2582,1.2011,1.1977,1.1916,1.15,1.158,1.1534,1.1007,1.0868,0.0,0.0,0.0,0.0,0.0,1.0591,1.0717,1.0717,0.9939,0.9349,0.9151,0.8947,0.9025,0.9336,0.9496,0.9967,1.0926,1.1211,1.1623,1.2466,1.312,1.383,1.475,1.5523,1.6506,1.7448,1.7789,1.8264,1.8736,1.9045,1.9292,1.9539,1.9844,2.007,2.0294,2.0518,2.0595,2.0595,2.0672,2.0672,2.044,1.9362,1.9125,1.9353,1.9913,2.0226,2.0372,2.0518,2.0595,2.075,2.1078,2.1624,2.2231,2.2542,2.3287,2.402,2.4093,2.4515,2.4957,2.5004,2.5217,2.5346,2.5639,2.5975,2.6252,2.6607,2.6879,2.7162,2.7377,2.739,2.7175,2.6389,2.6458,2.6731,2.7082,2.7351,2.7617,2.7749,2.8091,2.8417,2.861,2.9296,2.9979,3.0493,3.0896,3.1364,3.1921,3.2367,3.2857,3.3423,3.3832,3.4151,3.4497,3.4707,3.4899,3.5041,3.5135,3.5024]}]]